ftp/pub/palmer/observations_modified/2019/June/original_files/AR190615_BASE.txt
Download
Sample DateTime Unit Id WS Avg 2min WD Avg 2min WGS 10min WGD 10min Air Temp Rel Humidity Dew Point Pyranometer Quantum Air Pressure Snow Level Rainfall PW Current Visibility CBase 1 CBase 2 CBase 3 Vert Vis
2019/06/15 00:00:01 BASE 6.87 307 8.64 306 -1.1 100 -1.1 0 0 989.7 NA 0.0000 UP BR 4900 300 0 0 0
2019/06/15 00:01:00 BASE 6.84 306 8.64 306 -1.1 100 -1.1 0 0 989.7 NA 0.0000 UP BR 5000 330 0 0 0
2019/06/15 00:02:00 BASE 7.06 305 8.64 306 -1.1 100 -1.1 0 0 989.7 NA 0.0000 UP BR 5000 330 0 0 0
2019/06/15 00:03:00 BASE 6.68 306 8.64 306 -1.1 100 -1.1 0 0 989.7 NA 0.0000 UP BR 6000 300 0 0 0
2019/06/15 00:04:00 BASE 6.52 307 8.64 306 -1.1 100 -1.1 0 0 989.7 NA 0.0000 UP BR 5000 300 0 0 0
2019/06/15 00:05:01 BASE 6.47 304 8.64 306 -1.1 100 -1.1 0 0 989.7 NA 0.0000 UP BR 5000 300 0 0 0
2019/06/15 00:06:00 BASE 6.45 300 8.13 311 -1.1 100 -1.1 0 0 989.8 NA 0.0000 UP BR 4800 230 0 0 0
2019/06/15 00:07:00 BASE 6.57 300 8.13 311 -1.1 100 -1.1 0 0 989.8 NA 0.0000 UP BR 4700 330 0 0 0
2019/06/15 00:08:00 BASE 6.79 301 7.97 304 -1.1 100 -1.1 0 0 989.8 NA 0.0000 UP BR 4600 300 0 0 0
2019/06/15 00:09:00 BASE 6.81 305 7.92 301 -1.1 100 -1.1 0 0 989.8 NA 0.0000 UP BR 4300 300 0 0 0
2019/06/15 00:10:01 BASE 6.35 306 7.92 301 -1.1 100 -1.1 0 0 989.8 NA 0.0000 UP BR 4400 260 0 0 0
2019/06/15 00:11:00 BASE 5.94 305 7.92 301 -1.1 100 -1.1 0 0 989.8 NA 0.0000 UP BR 4600 260 0 0 0
2019/06/15 00:12:00 BASE 5.91 304 7.77 289 -1.1 100 -1.1 0 0 989.9 NA 0.0000 UP BR 4300 230 0 0 0
2019/06/15 00:13:00 BASE 6.24 304 7.77 289 -1.1 100 -1.1 0 0 989.9 NA 0.0000 UP BR 4200 260 0 0 0
2019/06/15 00:14:00 BASE 6.52 300 7.87 297 -1.1 100 -1.1 0 0 989.9 NA 0.0000 UP BR 4200 260 0 0 0
2019/06/15 00:15:00 BASE 6.66 300 7.87 292 -1.1 100 -1.1 0 0 989.9 NA 0.0000 UP BR 4000 260 0 0 0
2019/06/15 00:16:00 BASE 6.68 301 7.87 292 -1.1 100 -1.1 0 0 989.9 NA 0.0000 UP BR 4100 300 0 0 0
2019/06/15 00:17:00 BASE 6.58 300 7.87 292 -1.1 100 -1.1 0 0 989.9 NA 0.0000 -SN BR 5000 260 0 0 0
2019/06/15 00:18:00 BASE 6.45 303 7.87 292 -1.1 100 -1.1 0 0 989.9 NA 0.0000 -SN BR 5000 300 0 0 0
2019/06/15 00:19:00 BASE 6.19 302 7.87 292 -1.1 100 -1.1 0 0 989.9 NA 0.0000 -SN BR 6000 300 0 0 0
2019/06/15 00:20:01 BASE 6.22 299 7.87 292 -1.1 100 -1.1 0 0 989.9 NA 0.0000 -SN BR 7000 300 0 0 0
2019/06/15 00:21:00 BASE 6.46 300 7.87 292 -1.1 100 -1.1 0 0 989.9 NA 0.0000 -SN BR 8000 300 0 0 0
2019/06/15 00:22:00 BASE 6.66 301 7.87 292 -1.1 100 -1.1 0 0 989.9 NA 0.0000 -SN BR 7000 260 0 0 0
2019/06/15 00:23:00 BASE 6.69 300 7.87 292 -1.1 100 -1.1 0 0 989.9 NA 0.0000 -SN BR 7000 0 0 0 820
2019/06/15 00:24:00 BASE 6.26 299 7.87 292 -1.1 100 -1.1 0 0 990.0 NA 0.0000 -SN BR 6000 0 0 0 820
2019/06/15 00:25:00 BASE 6.36 298 7.67 290 -1.1 100 -1.1 0 0 990.0 NA 0.0000 -SN BR 5000 300 0 0 0
2019/06/15 00:26:00 BASE 7.45 294 8.90 294 -1.1 100 -1.1 0 0 990.0 NA 0.0000 -SN BR 5000 260 0 0 0
2019/06/15 00:27:00 BASE 7.26 295 8.90 294 -1.1 100 -1.1 0 0 990.1 NA 0.0000 -SN BR 5000 300 0 0 0
2019/06/15 00:28:00 BASE 6.95 297 8.90 294 -1.1 100 -1.1 0 0 990.1 NA 0.0000 -SN BR 5000 260 0 0 0
2019/06/15 00:29:01 BASE 7.11 292 8.90 294 -1.1 100 -1.1 0 0 990.1 NA 0.0000 -SN BR 6000 0 0 0 850
2019/06/15 00:30:00 BASE 6.78 290 8.90 294 -1.1 100 -1.1 0 0 990.1 NA 0.0000 -SN BR 5000 260 0 0 0
2019/06/15 00:31:00 BASE 6.89 290 8.90 294 -1.1 100 -1.1 0 0 990.1 NA 0.0000 -SN BR 5000 300 0 0 0
2019/06/15 00:32:00 BASE 7.38 290 8.90 294 -1.1 100 -1.1 0 0 990.1 NA 0.0000 -SN BR 6000 260 0 0 0
2019/06/15 00:33:00 BASE 7.40 289 8.90 294 -1.1 100 -1.1 0 0 990.1 NA 0.0000 -SN BR 5000 260 0 0 0
2019/06/15 00:34:00 BASE 7.24 288 8.90 294 -1.1 100 -1.1 0 0 990.1 NA 0.0000 -SN BR 5000 230 0 0 0
2019/06/15 00:35:00 BASE 7.76 288 9.16 281 -1.1 100 -1.1 0 0 990.1 NA 0.0000 -SN BR 4500 0 0 0 950
2019/06/15 00:36:00 BASE 7.72 287 9.16 281 -1.1 100 -1.1 0 0 990.1 NA 0.0000 -SN BR 5000 260 0 0 0
2019/06/15 00:37:00 BASE 7.10 288 9.16 281 -1.1 100 -1.1 0 0 990.2 NA 0.0000 -SN BR 5000 260 0 0 0
2019/06/15 00:38:00 BASE 6.87 289 9.16 281 -1.1 100 -1.1 0 0 990.2 NA 0.2540 -SN BR 4800 230 0 0 0
2019/06/15 00:39:00 BASE 6.94 288 9.16 281 -1.1 100 -1.1 0 0 990.2 NA 0.0000 -SN BR 3800 0 0 0 950
2019/06/15 00:40:00 BASE 7.06 288 9.16 281 -1.1 100 -1.1 0 0 990.2 NA 0.0000 -SN BR 3900 0 0 0 920
2019/06/15 00:41:00 BASE 6.86 289 9.16 281 -1.1 100 -1.1 0 0 990.2 NA 0.0000 -SN BR 4700 0 0 0 1050
2019/06/15 00:42:00 BASE 6.50 289 9.16 281 -1.1 100 -1.1 0 0 990.2 NA 0.0000 -SN BR 4200 0 0 0 950
2019/06/15 00:43:00 BASE 6.29 286 9.16 281 -1.1 100 -1.1 0 0 990.2 NA 0.0000 -SN BR 4800 0 0 0 950
2019/06/15 00:44:00 BASE 6.48 286 9.16 281 -1.1 100 -1.1 0 0 990.2 NA 0.0000 -SN BR 4600 0 0 0 1020
2019/06/15 00:45:00 BASE 6.58 286 8.85 280 -1.1 100 -1.1 0 0 990.3 NA 0.0000 -SN BR 4200 0 0 0 1050
2019/06/15 00:46:00 BASE 6.49 285 8.64 281 -1.1 100 -1.1 0 0 990.3 NA 0.0000 -SN BR 4200 0 0 0 1120
2019/06/15 00:47:00 BASE 6.71 285 8.64 281 -1.1 100 -1.1 0 0 990.3 NA 0.0000 -SN BR 4800 0 0 0 1050
2019/06/15 00:48:00 BASE 7.14 287 8.33 287 -1.0 100 -1.0 0 0 990.3 NA 0.0000 -SN BR 5000 0 0 0 1020
2019/06/15 00:49:00 BASE 7.22 287 8.33 287 -1.0 100 -1.0 0 0 990.3 NA 0.0000 -SN BR 4500 0 0 0 1050
2019/06/15 00:50:00 BASE 6.57 285 8.33 287 -1.0 100 -1.0 0 0 990.3 NA 0.0000 -SN BR 4400 0 0 0 950
2019/06/15 00:51:00 BASE 6.86 284 8.75 279 -1.1 100 -1.1 0 0 990.4 NA 0.0000 -SN BR 4200 0 0 0 1020
2019/06/15 00:52:00 BASE 7.45 286 8.75 279 -1.0 100 -1.0 0 0 990.3 NA 0.0000 -SN BR 3700 0 0 0 1080
2019/06/15 00:53:00 BASE 7.60 286 8.95 286 -1.0 100 -1.0 0 0 990.4 NA 0.0000 -SN BR 3700 0 0 0 1280
2019/06/15 00:54:00 BASE 7.79 284 8.95 281 -1.0 100 -1.0 0 0 990.4 NA 0.0000 -SN BR 4900 0 0 0 1180
2019/06/15 00:55:00 BASE 7.53 284 8.95 281 -1.0 100 -1.0 0 0 990.4 NA 0.0000 -SN BR 8000 230 0 0 0
2019/06/15 00:56:00 BASE 7.18 285 8.95 281 -1.0 100 -1.0 0 0 990.4 NA 0.0000 -SN BR 9000 260 0 0 0
2019/06/15 00:57:00 BASE 6.99 284 8.95 281 -1.0 100 -1.0 0 0 990.4 NA 0.0000 -SN BR 9999 260 0 0 0
2019/06/15 00:58:00 BASE 6.76 282 8.95 281 -1.0 100 -1.0 0 0 990.4 NA 0.0000 -SN BR 9999 300 0 0 0
2019/06/15 00:59:00 BASE 7.05 281 8.95 281 -1.0 100 -1.0 0 0 990.4 NA 0.0000 -SN BR 9999 300 0 0 0
2019/06/15 01:00:00 BASE 7.15 280 8.95 281 -1.0 100 -1.0 0 0 990.4 NA 0.0000 -SN BR 9999 330 0 0 0
2019/06/15 01:01:00 BASE 6.61 283 8.95 281 -1.0 100 -1.0 0 0 990.4 NA 0.0000 -SN BR 9999 300 0 0 0
2019/06/15 01:02:01 BASE 6.59 283 8.95 281 -1.0 100 -1.0 0 0 990.4 NA 0.0000 -SN BR 9999 260 0 0 0
2019/06/15 01:03:00 BASE 6.43 283 8.95 281 -1.0 100 -1.0 0 0 990.4 NA 0.0000 -SN 9999 260 0 0 0
2019/06/15 01:04:00 BASE 6.51 281 8.85 280 -1.0 100 -1.0 0 0 990.4 NA 0.0000 -SN 9999 260 0 0 0
2019/06/15 01:05:01 BASE 6.81 278 8.85 280 -1.0 100 -1.0 0 0 990.4 NA 0.0000 -SN 9999 300 0 0 0
2019/06/15 01:06:00 BASE 7.01 280 8.85 280 -1.0 100 -1.0 0 0 990.4 NA 0.0000 -SN 9999 260 0 0 0
2019/06/15 01:07:01 BASE 7.32 281 8.85 280 -1.0 100 -1.0 0 0 990.4 NA 0.0000 9999 260 0 0 0
2019/06/15 01:08:01 BASE 7.71 280 9.00 278 -1.0 100 -1.0 0 0 990.5 NA 0.0000 9999 260 0 0 0
2019/06/15 01:09:01 BASE 7.50 277 9.00 278 -1.0 100 -1.0 0 0 990.5 NA 0.0000 9999 300 0 0 0
2019/06/15 01:10:01 BASE 7.15 278 9.00 278 -1.0 100 -1.0 0 0 990.5 NA 0.0000 9999 300 0 0 0
2019/06/15 01:11:01 BASE 7.40 277 9.00 278 -1.0 100 -1.0 0 0 990.5 NA 0.0000 9999 260 0 0 0
2019/06/15 01:12:01 BASE 7.70 275 9.05 278 -1.0 100 -1.0 0 0 990.5 NA 0.0000 9999 300 0 0 0
2019/06/15 01:13:01 BASE 8.06 279 9.62 277 -1.0 100 -1.0 0 0 990.5 NA 0.0000 9999 260 0 0 0
2019/06/15 01:14:01 BASE 7.43 279 9.62 277 -1.0 100 -1.0 0 0 990.6 NA 0.0000 9000 260 0 0 0
2019/06/15 01:15:01 BASE 6.82 277 9.62 277 -1.0 100 -1.0 0 0 990.7 NA 0.0000 9000 0 0 0 1080
2019/06/15 01:16:01 BASE 7.11 280 9.62 277 -1.0 100 -1.0 0 0 990.7 NA 0.0000 8000 0 0 0 1310
2019/06/15 01:17:01 BASE 7.62 280 9.62 277 -1.0 100 -1.0 0 0 990.7 NA 0.0000 BR 7000 0 0 0 1210
2019/06/15 01:18:01 BASE 7.62 278 9.62 277 -1.0 100 -1.0 0 0 990.8 NA 0.0000 -SN BR 8000 230 0 0 0
2019/06/15 01:19:01 BASE 7.33 279 9.62 277 -1.0 100 -1.0 0 0 990.8 NA 0.0000 -SN BR 6000 0 0 0 1050
2019/06/15 01:20:01 BASE 7.41 275 9.62 277 -1.0 100 -1.0 0 0 990.8 NA 0.0000 -SN BR 5000 0 0 0 1050
2019/06/15 01:21:01 BASE 7.56 274 9.62 277 -1.0 100 -1.0 0 0 990.8 NA 0.0000 -SN BR 4600 0 0 0 1020
2019/06/15 01:22:01 BASE 7.54 278 9.62 277 -1.0 100 -1.0 0 0 990.9 NA 0.0000 -SN BR 4600 0 0 0 1180
2019/06/15 01:23:01 BASE 7.58 278 9.21 282 -1.0 100 -1.0 0 0 990.9 NA 0.0000 -SN BR 5000 0 0 0 1080
2019/06/15 01:24:01 BASE 7.42 276 9.21 282 -1.0 100 -1.0 0 0 990.9 NA 0.0000 -SN BR 4800 0 0 0 1250
2019/06/15 01:25:01 BASE 7.57 275 9.31 264 -1.0 100 -1.0 0 0 991.0 NA 0.0000 -SN BR 4900 0 0 0 1250
2019/06/15 01:26:01 BASE 8.11 274 9.62 274 -1.0 100 -1.0 0 0 991.0 NA 0.0000 -SN BR 6000 0 0 0 1050
2019/06/15 01:27:00 BASE 8.12 275 10.19 265 -1.0 100 -1.0 0 0 991.0 NA 0.0000 -SN BR 8000 0 0 0 980
2019/06/15 01:28:01 BASE 7.50 275 10.19 265 -1.0 100 -1.0 0 0 991.0 NA 0.0000 -SN BR 8000 0 0 0 1120
2019/06/15 01:29:00 BASE 7.24 272 10.19 265 -1.0 100 -1.0 0 0 991.0 NA 0.0000 -SN BR 7000 0 0 0 1080
2019/06/15 01:30:01 BASE 7.50 272 10.19 265 -1.0 100 -1.0 0 0 991.0 NA 0.0000 -SN BR 7000 0 0 0 950
2019/06/15 01:31:00 BASE 7.15 271 10.19 265 -1.0 100 -1.0 0 0 991.0 NA 0.0000 -SN BR 7000 0 0 0 1180
2019/06/15 01:32:01 BASE 7.25 272 10.19 265 -1.0 100 -1.0 0 0 991.0 NA 0.0000 -SN BR 7000 0 0 0 1310
2019/06/15 01:33:01 BASE 7.34 277 10.19 265 -1.0 100 -1.0 0 0 991.1 NA 0.0000 -SN BR 9000 0 0 0 1050
2019/06/15 01:34:00 BASE 7.26 277 10.19 265 -1.0 100 -1.0 0 0 991.1 NA 0.0000 -SN BR 9000 0 0 0 1180
2019/06/15 01:35:01 BASE 7.77 275 10.19 265 -1.0 100 -1.0 0 0 991.2 NA 0.2540 -SN BR 9999 0 0 0 1050
2019/06/15 01:36:00 BASE 8.27 276 10.19 265 -1.0 100 -1.0 0 0 991.2 NA 0.0000 -SN BR 9999 0 0 0 1120
2019/06/15 01:37:00 BASE 8.80 276 10.24 276 -1.0 100 -1.0 0 0 991.2 NA 0.0000 -SN BR 9999 260 0 0 0
2019/06/15 01:38:00 BASE 8.67 277 10.24 276 -1.0 100 -1.0 0 0 991.3 NA 0.0000 -SN BR 9999 0 0 0 1020
2019/06/15 01:39:00 BASE 8.10 277 10.24 276 -1.0 100 -1.0 0 0 991.3 NA 0.0000 -SN BR 9999 0 0 0 1020
2019/06/15 01:40:01 BASE 8.10 275 10.24 276 -1.0 100 -1.0 0 0 991.3 NA 0.0000 -SN BR 7000 0 0 0 980
2019/06/15 01:41:00 BASE 8.03 276 10.24 276 -1.0 100 -1.0 0 0 991.3 NA 0.0000 -SN BR 6000 0 0 0 1150
2019/06/15 01:42:00 BASE 8.14 274 10.34 274 -1.0 100 -1.0 0 0 991.4 NA 0.0000 -SN BR 6000 0 0 0 1080
2019/06/15 01:43:00 BASE 8.32 275 10.34 274 -1.0 100 -1.0 0 0 991.4 NA 0.0000 -SN BR 6000 0 0 0 1080
2019/06/15 01:44:01 BASE 8.16 273 10.34 274 -1.0 100 -1.0 0 0 991.4 NA 0.0000 -SN BR 5000 0 0 0 1080
2019/06/15 01:45:01 BASE 7.76 269 10.34 274 -1.0 100 -1.0 0 0 991.4 NA 0.0000 -SN BR 5000 0 0 0 1050
2019/06/15 01:46:00 BASE 7.59 269 10.34 274 -1.0 100 -1.0 0 0 991.4 NA 0.0000 -SN BR 5000 0 0 0 1150
2019/06/15 01:47:00 BASE 7.18 269 10.34 274 -1.0 100 -1.0 0 0 991.4 NA 0.0000 -SN BR 5000 0 0 0 1180
2019/06/15 01:48:00 BASE 6.62 269 10.34 274 -1.0 100 -1.0 0 0 991.4 NA 0.0000 -SN BR 6000 0 0 0 1310
2019/06/15 01:49:00 BASE 6.66 267 10.34 274 -1.0 100 -1.0 0 0 991.4 NA 0.0000 -SN BR 7000 0 0 0 1050
2019/06/15 01:50:01 BASE 6.69 271 10.34 274 -1.0 100 -1.0 0 0 991.4 NA 0.0000 -SN BR 6000 0 0 0 1150
2019/06/15 01:51:00 BASE 6.61 273 10.34 274 -1.0 100 -1.0 0 0 991.4 NA 0.0000 -SN BR 5000 0 0 0 950
2019/06/15 01:52:00 BASE 6.64 272 10.24 256 -1.0 100 -1.0 0 0 991.5 NA 0.0000 -SN BR 6000 0 0 0 1120
2019/06/15 01:53:00 BASE 7.11 269 10.24 256 -1.0 100 -1.0 0 0 991.5 NA 0.0000 -SN BR 5000 0 0 0 1020
2019/06/15 01:54:00 BASE 7.26 269 10.03 260 -1.0 100 -1.0 0 0 991.5 NA 0.0000 -SN BR 4600 0 0 0 980
2019/06/15 01:55:01 BASE 7.16 272 10.03 260 -1.1 100 -1.1 0 0 991.4 NA 0.0000 -SN BR 4300 0 0 0 1050
2019/06/15 01:56:00 BASE 7.06 271 9.11 258 -1.1 100 -1.1 0 0 991.4 NA 0.0000 -SN BR 5000 0 0 0 1080
2019/06/15 01:57:00 BASE 6.75 270 9.11 258 -1.1 100 -1.1 0 0 991.4 NA 0.0000 -SN BR 4900 0 0 0 1050
2019/06/15 01:58:00 BASE 7.06 267 9.11 258 -1.1 100 -1.1 0 0 991.5 NA 0.0000 -SN BR 5000 0 0 0 1050
2019/06/15 01:59:00 BASE 7.23 266 9.57 247 -1.1 100 -1.1 0 0 991.5 NA 0.0000 -SN BR 6000 0 0 0 1120
2019/06/15 02:00:00 BASE 7.38 267 9.57 247 -1.1 100 -1.1 0 0 991.6 NA 0.0000 -SN BR 6000 0 0 0 1080
2019/06/15 02:01:00 BASE 7.07 268 9.57 247 -1.1 100 -1.1 0 0 991.6 NA 0.0000 -SN BR 9999 260 0 0 0
2019/06/15 02:02:00 BASE 7.05 267 10.70 271 -1.1 100 -1.1 0 0 991.6 NA 0.0000 -SN BR 9999 260 0 0 0
2019/06/15 02:03:00 BASE 7.28 269 10.70 271 -1.1 100 -1.1 0 0 991.6 NA 0.0000 -SN BR 9999 330 0 0 0
2019/06/15 02:04:00 BASE 7.38 271 11.11 292 -1.1 100 -1.1 0 0 991.7 NA 0.0000 -SN BR 9999 300 0 0 0
2019/06/15 02:05:00 BASE 7.68 272 11.11 292 -1.1 100 -1.1 0 0 991.7 NA 0.0000 -SN BR 9999 360 0 0 0
2019/06/15 02:06:00 BASE 7.49 270 11.11 292 -1.1 100 -1.1 0 0 991.7 NA 0.0000 -SN BR 9999 330 0 0 0
2019/06/15 02:07:00 BASE 7.28 265 11.11 292 -1.1 100 -1.1 0 0 991.8 NA 0.0000 -SN BR 9999 360 0 0 0
2019/06/15 02:08:00 BASE 7.09 263 11.11 292 -1.1 100 -1.1 0 0 991.8 NA 0.0000 -SN BR 9999 360 0 0 0
2019/06/15 02:09:00 BASE 7.00 265 11.11 292 -1.1 100 -1.1 0 0 991.8 NA 0.0000 -SN 9999 360 0 0 0
2019/06/15 02:10:00 BASE 7.47 265 11.11 292 -1.1 100 -1.1 0 0 991.8 NA 0.0000 -SN 9999 360 0 0 0
2019/06/15 02:11:00 BASE 8.30 263 11.11 292 -1.1 100 -1.1 0 0 991.8 NA 0.0000 -SN 9999 330 0 0 0
2019/06/15 02:12:00 BASE 8.62 262 11.11 292 -1.1 100 -1.1 0 0 991.9 NA 0.0000 9999 300 0 0 0
2019/06/15 02:13:00 BASE 8.60 265 11.11 292 -1.1 100 -1.1 0 0 991.9 NA 0.0000 9999 300 0 0 0
2019/06/15 02:14:00 BASE 8.80 266 11.11 262 -1.1 100 -1.1 0 0 991.9 NA 0.0000 9999 300 0 0 0
2019/06/15 02:15:00 BASE 8.74 268 11.11 262 -1.1 100 -1.1 0 0 992.0 NA 0.0000 9999 260 0 0 0
2019/06/15 02:16:00 BASE 8.18 271 11.11 262 -1.1 100 -1.1 0 0 992.0 NA 0.0000 9999 260 0 0 0
2019/06/15 02:17:00 BASE 8.10 273 11.11 262 -1.1 100 -1.1 0 0 992.1 NA 0.0000 9999 0 0 0 950
2019/06/15 02:18:00 BASE 8.43 272 11.11 262 -1.1 100 -1.1 0 0 992.1 NA 0.0000 9999 0 0 0 1080
2019/06/15 02:19:00 BASE 8.53 269 11.57 257 -1.1 100 -1.1 0 0 992.1 NA 0.0000 9999 0 0 0 1050
2019/06/15 02:20:01 BASE 8.05 269 11.57 257 -1.0 100 -1.0 0 0 992.1 NA 0.0000 9000 0 0 0 1380
2019/06/15 02:21:00 BASE 7.39 269 11.57 257 -1.0 100 -1.0 0 0 992.1 NA 0.0000 9000 0 0 0 1020
2019/06/15 02:22:00 BASE 7.29 269 11.57 257 -1.0 100 -1.0 0 0 992.1 NA 0.0000 9000 0 0 0 1180
2019/06/15 02:23:00 BASE 7.23 270 11.57 257 -1.1 100 -1.1 0 0 992.1 NA 0.0000 BR 9000 0 0 0 1250
2019/06/15 02:24:00 BASE 6.56 271 11.57 257 -1.1 100 -1.1 0 0 992.1 NA 0.0000 BR 9000 0 0 0 1410
2019/06/15 02:25:00 BASE 6.25 269 11.57 257 -1.1 100 -1.1 0 0 992.1 NA 0.0000 BR 8000 0 0 0 1120
2019/06/15 02:26:00 BASE 6.49 269 11.57 257 -1.1 100 -1.1 0 0 992.1 NA 0.0000 BR 8000 0 0 0 1120
2019/06/15 02:27:01 BASE 7.01 269 11.57 257 -1.1 100 -1.1 0 0 992.1 NA 0.0000 BR 8000 0 0 0 1310
2019/06/15 02:28:00 BASE 7.54 270 11.57 257 -1.1 100 -1.1 0 0 992.2 NA 0.2540 BR 8000 0 0 0 1120
2019/06/15 02:29:00 BASE 7.22 271 9.57 268 -1.1 100 -1.1 0 0 992.2 NA 0.0000 BR 8000 0 0 0 1150
2019/06/15 02:30:00 BASE 7.07 271 9.36 267 -1.1 100 -1.1 0 0 992.2 NA 0.0000 BR 8000 0 0 0 1250
2019/06/15 02:31:00 BASE 7.05 270 9.36 267 -1.1 100 -1.1 0 0 992.2 NA 0.0000 BR 7000 0 0 0 1180
2019/06/15 02:32:00 BASE 6.88 268 9.36 267 -1.1 100 -1.1 0 0 992.2 NA 0.0000 BR 7000 0 0 0 1080
2019/06/15 02:33:00 BASE 6.88 268 9.36 267 -1.1 100 -1.1 0 0 992.2 NA 0.0000 BR 7000 0 0 0 1250
2019/06/15 02:34:00 BASE 6.64 268 9.36 267 -1.1 100 -1.1 0 0 992.2 NA 0.0000 BR 7000 0 0 0 1020
2019/06/15 02:35:00 BASE 6.27 269 9.36 267 -1.1 100 -1.1 0 0 992.2 NA 0.0000 BR 7000 0 0 0 1310
2019/06/15 02:36:00 BASE 6.20 269 9.36 267 -1.1 100 -1.1 0 0 992.2 NA 0.0000 BR 7000 0 0 0 1120
2019/06/15 02:37:00 BASE 6.17 269 9.36 267 -1.1 100 -1.1 0 0 992.2 NA 0.0000 BR 7000 0 0 0 1150
2019/06/15 02:38:00 BASE 6.81 272 9.41 271 -1.1 100 -1.1 0 0 992.2 NA 0.0000 BR 7000 0 0 0 950
2019/06/15 02:39:00 BASE 8.15 273 10.39 275 -1.1 100 -1.1 0 0 992.3 NA 0.0000 BR 7000 0 0 0 920
2019/06/15 02:40:00 BASE 7.93 273 10.39 275 -1.1 100 -1.1 0 0 992.3 NA 0.0000 BR 7000 0 0 0 980
2019/06/15 02:41:00 BASE 7.28 271 10.39 275 -1.1 100 -1.1 0 0 992.3 NA 0.0000 BR 6000 0 0 0 950
2019/06/15 02:42:00 BASE 7.23 271 10.39 275 -1.1 100 -1.1 0 0 992.3 NA 0.0000 BR 6000 200 0 0 0
2019/06/15 02:43:00 BASE 7.02 271 10.39 275 -1.1 100 -1.1 0 0 992.3 NA 0.0000 BR 6000 230 0 0 0
2019/06/15 02:44:00 BASE 7.47 268 10.39 275 -1.1 100 -1.1 0 0 992.3 NA 0.0000 BR 6000 230 0 0 0
2019/06/15 02:45:00 BASE 7.99 268 10.39 275 -1.1 100 -1.1 0 0 992.3 NA 0.0000 BR 6000 0 0 0 1150
2019/06/15 02:46:00 BASE 8.03 267 10.39 275 -1.1 100 -1.1 0 0 992.3 NA 0.0000 BR 7000 230 0 0 0
2019/06/15 02:47:00 BASE 8.14 267 10.39 275 -1.1 100 -1.1 0 0 992.3 NA 0.0000 BR 9999 230 0 0 0
2019/06/15 02:48:00 BASE 7.54 268 10.39 275 -1.1 100 -1.1 0 0 992.3 NA 0.0000 BR 9999 230 0 0 0
2019/06/15 02:49:00 BASE 7.18 264 9.77 261 -1.1 100 -1.1 0 0 992.3 NA 0.0000 BR 9999 260 0 0 0
2019/06/15 02:50:00 BASE 7.23 262 9.77 261 -1.1 100 -1.1 0 0 992.3 NA 0.0000 BR 9999 260 0 0 0
2019/06/15 02:51:00 BASE 6.90 263 9.77 261 -1.1 100 -1.1 0 0 992.3 NA 0.0000 BR 9999 230 0 0 0
2019/06/15 02:52:00 BASE 7.22 263 9.77 261 -1.1 100 -1.1 0 0 992.3 NA 0.0000 BR 9999 260 0 0 0
2019/06/15 02:53:00 BASE 7.88 265 10.49 270 -1.1 100 -1.1 0 0 992.3 NA 0.0000 BR 9999 260 0 0 0
2019/06/15 02:54:00 BASE 8.49 266 10.55 266 -1.1 100 -1.1 0 0 992.3 NA 0.0000 BR 9999 230 0 0 0
2019/06/15 02:55:00 BASE 8.19 262 10.55 266 -1.1 100 -1.1 0 0 992.4 NA 0.0000 BR 9999 230 0 0 0
2019/06/15 02:56:00 BASE 7.18 262 10.55 266 -1.1 100 -1.1 0 0 992.4 NA 0.0000 9999 260 0 0 0
2019/06/15 02:57:00 BASE 7.08 264 10.55 266 -1.1 100 -1.1 0 0 992.4 NA 0.0000 BR 9999 0 0 0 1280
2019/06/15 02:58:00 BASE 7.34 267 10.55 266 -1.1 100 -1.1 0 0 992.5 NA 0.0000 BR 9999 0 0 0 1250
2019/06/15 02:59:00 BASE 7.93 267 10.55 266 -1.1 100 -1.1 0 0 992.6 NA 0.2540 BR 9000 230 0 0 0
2019/06/15 03:00:00 BASE 8.23 270 10.55 266 -1.1 100 -1.1 0 0 992.6 NA 0.0000 BR 9000 0 0 0 1020
2019/06/15 03:01:00 BASE 7.91 272 10.55 266 -1.1 100 -1.1 0 0 992.6 NA 0.0000 BR 9000 0 0 0 1120
2019/06/15 03:02:00 BASE 7.76 270 10.55 266 -1.1 100 -1.1 0 0 992.6 NA 0.0000 BR 9000 0 0 0 980
2019/06/15 03:03:00 BASE 7.27 269 10.55 266 -1.1 100 -1.1 0 0 992.6 NA 0.0000 BR 9000 0 0 0 1310
2019/06/15 03:04:00 BASE 7.14 271 10.34 269 -1.1 100 -1.1 0 0 992.6 NA 0.0000 BR 9000 0 0 0 1840
2019/06/15 03:05:00 BASE 7.15 271 10.34 269 -1.1 100 -1.1 0 0 992.6 NA 0.0000 BR 9000 260 0 0 0
2019/06/15 03:06:00 BASE 6.76 270 10.34 269 -1.1 100 -1.1 0 0 992.6 NA 0.0000 BR 9000 230 0 0 0
2019/06/15 03:07:00 BASE 6.54 271 10.34 269 -1.1 100 -1.1 0 0 992.6 NA 0.0000 BR 9000 300 0 0 0
2019/06/15 03:08:00 BASE 6.32 271 10.34 269 -1.1 100 -1.1 0 0 992.6 NA 0.0000 BR 9000 300 0 0 0
2019/06/15 03:09:00 BASE 6.00 268 9.98 251 -1.1 100 -1.1 0 0 992.6 NA 0.0000 BR 9000 300 0 0 0
2019/06/15 03:10:00 BASE 6.03 267 9.26 269 -1.2 100 -1.2 0 0 992.7 NA 0.0000 BR 9000 360 0 0 0
2019/06/15 03:11:00 BASE 6.72 271 9.26 269 -1.2 100 -1.2 0 0 992.7 NA 0.0000 BR 9999 390 0 0 0
2019/06/15 03:12:00 BASE 6.98 271 9.26 269 -1.2 100 -1.2 0 0 992.8 NA 0.0000 BR 9999 390 0 0 0
2019/06/15 03:13:00 BASE 7.24 270 10.08 278 -1.2 100 -1.2 0 0 992.8 NA 0.0000 BR 9999 360 0 0 0
2019/06/15 03:14:00 BASE 7.36 269 10.08 278 -1.2 100 -1.2 0 0 992.8 NA 0.0000 BR 9999 390 0 0 0
2019/06/15 03:15:00 BASE 7.21 271 10.08 278 -1.2 100 -1.2 0 0 992.9 NA 0.0000 BR 9999 390 0 0 0
2019/06/15 03:16:00 BASE 7.47 273 10.08 278 -1.2 100 -1.2 0 0 992.9 NA 0.0000 9999 390 0 0 0
2019/06/15 03:17:00 BASE 6.80 274 10.08 278 -1.1 100 -1.1 0 0 992.9 NA 0.0000 9999 390 0 0 0
2019/06/15 03:18:00 BASE 6.90 278 10.08 278 -1.1 100 -1.1 0 0 992.9 NA 0.0000 9999 430 0 0 0
2019/06/15 03:19:00 BASE 7.35 272 10.08 278 -1.1 100 -1.1 0 0 992.9 NA 0.0000 9999 460 0 0 0
2019/06/15 03:20:00 BASE 7.25 269 10.08 278 -1.2 100 -1.2 0 0 992.8 NA 0.0000 9999 430 0 0 0
2019/06/15 03:21:00 BASE 7.69 268 10.08 278 -1.2 100 -1.2 0 0 992.9 NA 0.0000 9999 460 0 0 0
2019/06/15 03:22:00 BASE 7.92 266 10.08 278 -1.2 100 -1.2 0 0 992.9 NA 0.0000 9999 490 0 0 0
2019/06/15 03:23:00 BASE 8.43 264 10.49 270 -1.2 100 -1.2 0 0 992.8 NA 0.0000 9999 460 0 0 0
2019/06/15 03:24:00 BASE 9.01 262 10.49 270 -1.2 100 -1.2 0 0 992.8 NA 0.0000 9999 430 0 0 0
2019/06/15 03:25:00 BASE 8.74 264 10.49 270 -1.2 100 -1.2 0 0 992.8 NA 0.0000 9999 430 0 0 0
2019/06/15 03:26:00 BASE 8.35 265 10.80 272 -1.2 100 -1.2 0 0 992.8 NA 0.0000 9999 390 0 0 0
2019/06/15 03:27:00 BASE 8.60 260 10.80 272 -1.2 100 -1.2 0 0 992.8 NA 0.0000 9999 430 0 0 0
2019/06/15 03:28:00 BASE 9.66 255 11.94 265 -1.2 100 -1.2 0 0 992.8 NA 0.0000 9999 460 0 0 0
2019/06/15 03:29:00 BASE 10.01 254 11.94 265 -1.2 100 -1.2 0 0 992.8 NA 0.0000 9999 460 0 0 0
2019/06/15 03:30:00 BASE 9.13 256 12.81 254 -1.2 100 -1.2 0 0 992.9 NA 0.0000 9999 520 0 0 0
2019/06/15 03:31:00 BASE 9.29 257 12.81 254 -1.2 100 -1.2 0 0 992.9 NA 0.0000 9999 590 0 0 0
2019/06/15 03:32:00 BASE 10.13 255 12.81 254 -1.2 100 -1.2 0 0 992.9 NA 0.0000 9999 560 0 0 0
2019/06/15 03:33:00 BASE 10.59 254 12.81 254 -1.2 100 -1.2 0 0 992.9 NA 0.0000 9999 560 0 0 0
2019/06/15 03:34:00 BASE 11.13 254 13.53 251 -1.2 100 -1.2 0 0 992.8 NA 0.0000 9999 560 0 0 0
2019/06/15 03:35:01 BASE 11.97 255 13.58 251 -1.2 100 -1.2 0 0 992.8 NA 0.0000 9999 520 0 0 0
2019/06/15 03:36:00 BASE 11.62 254 13.58 251 -1.2 100 -1.2 0 0 992.9 NA 0.0000 9999 560 0 0 0
2019/06/15 03:37:00 BASE 10.60 253 13.58 251 -1.2 100 -1.2 0 0 992.9 NA 0.0000 9999 560 0 0 0
2019/06/15 03:38:00 BASE 10.32 254 13.58 251 -1.2 100 -1.2 0 0 992.9 NA 0.0000 9999 490 0 0 0
2019/06/15 03:39:00 BASE 9.12 259 13.58 251 -1.2 100 -1.2 0 0 993.0 NA 0.0000 9999 460 0 0 0
2019/06/15 03:40:00 BASE 8.20 259 13.58 251 -1.2 100 -1.2 0 0 993.0 NA 0.0000 9999 390 0 0 0
2019/06/15 03:41:00 BASE 8.48 259 13.58 251 -1.2 100 -1.2 0 0 993.0 NA 0.0000 9999 390 0 0 0
2019/06/15 03:42:00 BASE 8.85 262 13.58 251 -1.2 100 -1.2 0 0 993.1 NA 0.0000 9999 360 0 0 0
2019/06/15 03:43:00 BASE 9.25 260 13.58 251 -1.2 100 -1.2 0 0 993.2 NA 0.0000 9999 330 0 0 0
2019/06/15 03:44:00 BASE 9.66 259 13.58 251 -1.2 100 -1.2 0 0 993.2 NA 0.0000 9999 300 0 0 0
2019/06/15 03:45:00 BASE 10.42 258 12.66 249 -1.2 100 -1.2 0 0 993.1 NA 0.0000 9999 260 0 0 0
2019/06/15 03:46:00 BASE 9.90 257 12.66 249 -1.2 100 -1.2 0 0 993.2 NA 0.0000 9999 230 0 0 0
2019/06/15 03:47:00 BASE 9.77 257 12.66 249 -1.2 100 -1.2 0 0 993.1 NA 0.0000 9999 230 0 0 0
2019/06/15 03:48:00 BASE 10.26 260 12.76 251 -1.2 100 -1.2 0 0 993.2 NA 0.0000 9999 0 0 0 790
2019/06/15 03:49:00 BASE 9.59 266 12.76 251 -1.2 100 -1.2 0 0 993.2 NA 0.0000 9999 0 0 0 790
2019/06/15 03:50:00 BASE 9.14 264 12.76 251 -1.2 100 -1.2 0 0 993.2 NA 0.0000 9999 0 0 0 750
2019/06/15 03:51:00 BASE 8.66 263 12.76 251 -1.2 100 -1.2 0 0 993.2 NA 0.0000 9999 0 0 0 790
2019/06/15 03:52:00 BASE 8.11 266 12.76 251 -1.2 100 -1.2 0 0 993.3 NA 0.0000 9999 0 0 0 750
2019/06/15 03:53:00 BASE 8.58 264 12.76 251 -1.2 100 -1.2 0 0 993.3 NA 0.0000 9999 0 0 0 750
2019/06/15 03:54:00 BASE 7.85 266 12.76 251 -1.2 100 -1.2 0 0 993.3 NA 0.0000 9999 0 0 0 720
2019/06/15 03:55:00 BASE 6.59 272 12.76 251 -1.1 100 -1.1 0 0 993.3 NA 0.0000 9999 0 0 0 720
2019/06/15 03:56:00 BASE 8.09 268 12.76 251 -1.1 100 -1.1 0 0 993.3 NA 0.0000 9999 0 0 0 920
2019/06/15 03:57:00 BASE 8.74 264 12.76 251 -1.1 100 -1.1 0 0 993.3 NA 0.0000 9999 0 0 0 820
2019/06/15 03:58:00 BASE 8.81 263 12.35 252 -1.1 100 -1.1 0 0 993.3 NA 0.0000 9999 260 0 0 0
2019/06/15 03:59:00 BASE 9.99 262 12.35 252 -1.2 100 -1.2 0 0 993.3 NA 0.0000 9999 260 0 0 0
2019/06/15 04:00:00 BASE 10.31 262 12.35 252 -1.2 100 -1.2 0 0 993.3 NA 0.0000 9999 0 0 0 890
2019/06/15 04:01:00 BASE 9.78 260 12.35 252 -1.2 100 -1.2 0 0 993.3 NA 0.0000 9999 0 0 0 790
2019/06/15 04:02:00 BASE 9.86 261 12.35 252 -1.2 100 -1.2 0 0 993.3 NA 0.0000 9999 0 0 0 720
2019/06/15 04:03:00 BASE 10.75 261 12.35 252 -1.2 100 -1.2 0 0 993.3 NA 0.0000 9999 0 0 0 890
2019/06/15 04:04:00 BASE 8.97 262 12.35 252 -1.2 100 -1.2 0 0 993.4 NA 0.0000 9999 0 0 0 750
2019/06/15 04:05:00 BASE 7.01 263 12.35 252 -1.2 100 -1.2 0 0 993.4 NA 0.0000 9999 0 0 0 790
2019/06/15 04:06:00 BASE 6.88 265 12.30 263 -1.2 100 -1.2 0 0 993.4 NA 0.0000 9999 0 0 0 750
2019/06/15 04:07:00 BASE 7.30 266 12.30 263 -1.2 100 -1.2 0 0 993.4 NA 0.0000 9999 0 0 0 820
2019/06/15 04:08:00 BASE 7.01 270 12.30 263 -1.2 100 -1.2 0 0 993.5 NA 0.0000 9999 0 0 0 720
2019/06/15 04:09:00 BASE 6.86 271 12.30 263 -1.2 100 -1.2 0 0 993.5 NA 0.0000 9999 0 0 0 720
2019/06/15 04:10:00 BASE 7.35 270 12.30 263 -1.2 100 -1.2 0 0 993.5 NA 0.0000 9999 0 0 0 790
2019/06/15 04:11:00 BASE 6.97 275 12.30 263 -1.2 100 -1.2 0 0 993.5 NA 0.0000 9999 0 0 0 690
2019/06/15 04:12:00 BASE 6.23 275 12.04 261 -1.2 100 -1.2 0 0 993.5 NA 0.0000 9999 0 0 0 720
2019/06/15 04:13:00 BASE 6.65 268 10.13 260 -1.2 100 -1.2 0 0 993.5 NA 0.0000 9999 0 0 0 690
2019/06/15 04:14:00 BASE 7.41 269 10.13 260 -1.2 100 -1.2 0 0 993.5 NA 0.0000 9999 0 0 0 750
2019/06/15 04:15:00 BASE 7.35 276 10.13 260 -1.2 100 -1.2 0 0 993.5 NA 0.0000 9999 0 0 0 750
2019/06/15 04:16:00 BASE 7.23 275 10.13 260 -1.2 100 -1.2 0 0 993.5 NA 0.0000 9999 0 0 0 820
2019/06/15 04:17:00 BASE 6.84 270 10.08 295 -1.2 100 -1.2 0 0 993.5 NA 0.0000 9999 0 0 0 720
2019/06/15 04:18:00 BASE 6.22 267 10.08 295 -1.2 100 -1.2 0 0 993.6 NA 0.0000 9999 0 0 0 750
2019/06/15 04:19:00 BASE 6.55 265 10.08 295 -1.2 100 -1.2 0 0 993.6 NA 0.0000 9999 0 0 0 820
2019/06/15 04:20:00 BASE 6.97 268 10.08 295 -1.2 100 -1.2 0 0 993.5 NA 0.0000 9999 0 0 0 750
2019/06/15 04:21:00 BASE 6.86 275 10.08 295 -1.2 100 -1.2 0 0 993.5 NA 0.0000 9999 0 0 0 750
2019/06/15 04:22:00 BASE 6.73 273 10.08 295 -1.2 100 -1.2 0 0 993.5 NA 0.0000 9999 200 0 0 0
2019/06/15 04:23:00 BASE 6.47 271 10.08 295 -1.2 100 -1.2 0 0 993.5 NA 0.0000 9999 260 0 0 0
2019/06/15 04:24:00 BASE 7.10 264 10.65 252 -1.2 100 -1.2 0 0 993.5 NA 0.0000 9999 300 0 0 0
2019/06/15 04:25:00 BASE 7.06 261 10.65 252 -1.2 100 -1.2 0 0 993.5 NA 0.0000 9999 260 0 0 0
2019/06/15 04:26:00 BASE 6.06 263 10.65 252 -1.2 100 -1.2 0 0 993.5 NA 0.0000 9999 300 0 0 0
2019/06/15 04:27:00 BASE 6.57 260 10.65 252 -1.2 100 -1.2 0 0 993.5 NA 0.0000 9999 300 0 0 0
2019/06/15 04:28:00 BASE 6.20 259 10.65 252 -1.2 100 -1.2 0 0 993.5 NA 0.0000 9999 330 0 0 0
2019/06/15 04:29:00 BASE 5.71 258 10.65 252 -1.2 100 -1.2 0 0 993.5 NA 0.0000 9999 330 0 0 0
2019/06/15 04:30:00 BASE 5.94 255 10.65 252 -1.2 100 -1.2 0 0 993.5 NA 0.0000 9999 300 0 0 0
2019/06/15 04:31:00 BASE 5.55 258 10.65 252 -1.2 100 -1.2 0 0 993.5 NA 0.0000 9999 330 0 0 0
2019/06/15 04:32:00 BASE 5.64 261 10.65 252 -1.2 100 -1.2 0 0 993.5 NA 0.0000 9999 360 0 0 0
2019/06/15 04:33:00 BASE 5.87 260 10.65 252 -1.2 100 -1.2 0 0 993.5 NA 0.0000 9999 360 0 0 0
2019/06/15 04:34:00 BASE 5.35 266 8.39 257 -1.2 100 -1.2 0 0 993.6 NA 0.0000 9999 330 0 0 0
2019/06/15 04:35:00 BASE 5.56 275 8.39 257 -1.2 100 -1.2 0 0 993.6 NA 0.0000 9999 330 0 0 0
2019/06/15 04:36:00 BASE 6.11 276 8.23 257 -1.2 100 -1.2 0 0 993.6 NA 0.0000 9999 330 0 0 0
2019/06/15 04:37:00 BASE 5.21 278 7.87 266 -1.2 100 -1.2 0 0 993.6 NA 0.0000 9999 330 0 0 0
2019/06/15 04:38:00 BASE 4.61 280 7.87 266 -1.2 100 -1.2 0 0 993.6 NA 0.0000 9999 260 0 0 0
2019/06/15 04:39:00 BASE 5.63 279 7.87 266 -1.2 100 -1.2 0 0 993.6 NA 0.0000 9999 330 0 0 0
2019/06/15 04:40:00 BASE 6.33 276 7.87 266 -1.2 100 -1.2 0 0 993.6 NA 0.0000 9999 300 0 0 0
2019/06/15 04:41:00 BASE 5.85 275 7.87 266 -1.2 100 -1.2 0 0 993.6 NA 0.0000 9999 330 0 0 0
2019/06/15 04:42:00 BASE 5.41 271 7.87 266 -1.2 100 -1.2 0 0 993.6 NA 0.0000 9999 300 0 0 0
2019/06/15 04:43:00 BASE 5.59 265 8.39 260 -1.2 100 -1.2 0 0 993.6 NA 0.0000 9999 330 0 0 0
2019/06/15 04:44:00 BASE 6.89 260 8.39 260 -1.2 100 -1.2 0 0 993.5 NA 0.0000 9999 360 0 0 0
2019/06/15 04:45:00 BASE 6.93 258 8.39 260 -1.2 100 -1.2 0 0 993.5 NA 0.0000 9999 360 0 0 0
2019/06/15 04:46:00 BASE 6.67 256 8.39 260 -1.2 100 -1.2 0 0 993.5 NA 0.0000 9999 330 0 0 0
2019/06/15 04:47:00 BASE 6.58 258 8.39 260 -1.2 100 -1.2 0 0 993.5 NA 0.0000 9999 360 0 0 0
2019/06/15 04:48:00 BASE 6.92 255 9.16 243 -1.2 100 -1.2 0 0 993.5 NA 0.0000 9999 330 0 0 0
2019/06/15 04:49:00 BASE 7.86 253 9.21 250 -1.2 100 -1.2 0 0 993.5 NA 0.0000 9999 360 0 0 0
2019/06/15 04:50:00 BASE 8.02 252 9.41 252 -1.2 100 -1.2 0 0 993.5 NA 0.0000 9999 360 0 0 0
2019/06/15 04:51:00 BASE 8.33 252 10.65 257 -1.2 100 -1.2 0 0 993.5 NA 0.0000 9999 360 0 0 0
2019/06/15 04:52:00 BASE 7.90 253 10.65 257 -1.2 100 -1.2 0 0 993.5 NA 0.0000 9999 330 0 0 0
2019/06/15 04:53:00 BASE 7.85 254 10.65 257 -1.2 100 -1.2 0 0 993.5 NA 0.0000 9999 330 0 0 0
2019/06/15 04:54:00 BASE 8.32 254 10.65 257 -1.2 100 -1.2 0 0 993.5 NA 0.0000 9999 360 0 0 0
2019/06/15 04:55:00 BASE 8.18 253 10.65 257 -1.2 100 -1.2 0 0 993.6 NA 0.0000 9999 360 0 0 0
2019/06/15 04:56:00 BASE 7.87 254 10.65 257 -1.2 100 -1.2 0 0 993.5 NA 0.0000 9999 360 0 0 0
2019/06/15 04:57:00 BASE 7.83 255 10.65 257 -1.2 100 -1.2 0 0 993.5 NA 0.0000 9999 360 0 0 0
2019/06/15 04:58:00 BASE 8.22 256 10.65 257 -1.2 100 -1.2 0 0 993.5 NA 0.0000 9999 360 0 0 0
2019/06/15 04:59:00 BASE 8.38 256 10.65 257 -1.2 100 -1.2 0 0 993.5 NA 0.0000 9999 330 0 0 0
2019/06/15 05:00:00 BASE 8.22 257 10.65 257 -1.2 100 -1.2 0 0 993.5 NA 0.0000 9999 330 0 0 0
2019/06/15 05:01:00 BASE 8.15 256 10.19 257 -1.2 100 -1.2 0 0 993.6 NA 0.0000 9999 330 0 0 0
2019/06/15 05:02:00 BASE 7.69 261 10.19 257 -1.2 100 -1.2 0 0 993.6 NA 0.0000 9999 330 0 0 0
2019/06/15 05:03:00 BASE 7.52 266 10.19 257 -1.2 100 -1.2 0 0 993.6 NA 0.0000 9999 330 0 0 0
2019/06/15 05:04:00 BASE 7.03 270 10.19 257 -1.2 100 -1.2 0 0 993.7 NA 0.0000 9999 330 0 0 0
2019/06/15 05:05:00 BASE 6.87 269 10.19 257 -1.2 100 -1.2 0 0 993.7 NA 0.0000 9999 330 0 0 0
2019/06/15 05:06:00 BASE 7.42 263 10.19 257 -1.2 100 -1.2 0 0 993.7 NA 0.0000 9999 330 0 0 0
2019/06/15 05:07:00 BASE 7.10 265 10.19 257 -1.2 100 -1.2 0 0 993.7 NA 0.0000 9999 360 0 0 0
2019/06/15 05:08:00 BASE 7.37 268 10.19 257 -1.2 100 -1.2 0 0 993.8 NA 0.0000 9999 300 0 0 0
2019/06/15 05:09:00 BASE 7.65 266 10.19 257 -1.2 100 -1.2 0 0 993.9 NA 0.0000 9999 330 0 0 0
2019/06/15 05:10:00 BASE 6.57 265 9.52 270 -1.2 100 -1.2 0 0 993.9 NA 0.0000 9999 260 0 0 0
2019/06/15 05:11:00 BASE 6.10 266 9.52 270 -1.2 100 -1.2 0 0 993.9 NA 0.0000 9999 230 0 0 0
2019/06/15 05:12:00 BASE 6.61 272 9.52 270 -1.2 100 -1.2 0 0 993.9 NA 0.0000 9999 0 0 0 820
2019/06/15 05:13:00 BASE 7.46 274 10.34 273 -1.2 100 -1.2 0 0 993.9 NA 0.0000 9999 0 0 0 720
2019/06/15 05:14:00 BASE 8.24 272 10.34 273 -1.2 100 -1.2 0 0 993.9 NA 0.0000 9999 0 0 0 750
2019/06/15 05:15:00 BASE 8.31 277 10.34 273 -1.2 100 -1.2 0 0 993.9 NA 0.0000 9999 0 0 0 690
2019/06/15 05:16:00 BASE 8.46 278 10.34 275 -1.2 100 -1.2 0 0 993.9 NA 0.0000 9000 0 0 0 820
2019/06/15 05:17:00 BASE 8.61 282 10.65 278 -1.2 100 -1.2 0 0 994.0 NA 0.0000 8000 0 0 0 750
2019/06/15 05:18:00 BASE 9.43 283 11.37 274 -1.1 100 -1.1 0 0 994.0 NA 0.0000 7000 0 0 0 820
2019/06/15 05:19:00 BASE 9.81 282 11.37 274 -1.1 100 -1.1 0 0 994.0 NA 0.0000 7000 0 0 0 820
2019/06/15 05:20:00 BASE 9.70 281 11.88 278 -1.1 100 -1.1 0 0 993.9 NA 0.0000 BR 5000 0 0 0 1310
2019/06/15 05:21:00 BASE 9.81 277 11.88 278 -1.1 100 -1.1 0 0 994.0 NA 0.0000 BR 4900 0 0 0 1120
2019/06/15 05:22:00 BASE 9.67 274 11.88 278 -1.1 100 -1.1 0 0 993.9 NA 0.0000 BR 5000 0 0 0 1380
2019/06/15 05:23:00 BASE 9.33 274 11.88 278 -1.1 100 -1.1 0 0 994.0 NA 0.0000 BR 6000 0 0 0 1350
2019/06/15 05:24:00 BASE 9.04 276 11.88 278 -1.1 100 -1.1 0 0 994.0 NA 0.0000 BR 6000 0 0 0 950
2019/06/15 05:25:00 BASE 8.97 276 11.88 278 -1.1 100 -1.1 0 0 994.0 NA 0.0000 BR 7000 0 0 0 1250
2019/06/15 05:26:00 BASE 8.68 278 11.88 278 -1.1 100 -1.1 0 0 993.9 NA 0.0000 BR 8000 0 0 0 920
2019/06/15 05:27:00 BASE 8.45 277 11.88 278 -1.1 100 -1.1 0 0 993.9 NA 0.0000 BR 7000 0 0 0 1280
2019/06/15 05:28:00 BASE 8.25 274 11.88 278 -1.1 100 -1.1 0 0 993.9 NA 0.0000 BR 8000 0 0 0 1510
2019/06/15 05:29:00 BASE 8.61 276 11.88 278 -1.1 100 -1.1 0 0 994.0 NA 0.0000 BR 8000 0 0 0 1280
2019/06/15 05:30:00 BASE 8.94 277 11.63 269 -1.1 100 -1.1 0 0 993.9 NA 0.0000 BR 9000 0 0 0 1280
2019/06/15 05:31:00 BASE 8.49 278 11.63 269 -1.1 100 -1.1 0 0 994.0 NA 0.0000 BR 9000 0 0 0 1180
2019/06/15 05:32:00 BASE 8.63 277 11.11 283 -1.1 100 -1.1 0 0 993.9 NA 0.0000 BR 8000 0 0 0 1020
2019/06/15 05:33:00 BASE 8.89 277 11.11 283 -1.1 100 -1.1 0 0 994.0 NA 0.0000 BR 9000 0 0 0 890
2019/06/15 05:34:00 BASE 9.10 279 11.01 279 -1.1 100 -1.1 0 0 994.0 NA 0.0000 BR 8000 0 0 0 920
2019/06/15 05:35:00 BASE 9.07 279 10.96 268 -1.1 100 -1.1 0 0 994.0 NA 0.0000 BR 8000 0 0 0 1380
2019/06/15 05:36:00 BASE 8.71 282 10.96 268 -1.1 100 -1.1 0 0 994.1 NA 0.0000 BR 9000 0 0 0 1380
2019/06/15 05:37:00 BASE 8.59 283 10.96 268 -1.1 100 -1.1 0 0 994.1 NA 0.0000 BR 8000 0 0 0 1250
2019/06/15 05:38:00 BASE 8.28 283 10.96 268 -1.1 100 -1.1 0 0 994.1 NA 0.0000 BR 7000 0 0 0 1280
2019/06/15 05:39:00 BASE 8.50 285 10.96 268 -1.1 100 -1.1 0 0 994.1 NA 0.0000 BR 7000 0 0 0 1540
2019/06/15 05:40:00 BASE 8.88 284 10.96 268 -1.1 100 -1.1 0 0 994.1 NA 0.0000 BR 8000 0 0 0 1770
2019/06/15 05:41:00 BASE 8.37 285 10.96 268 -1.1 100 -1.1 0 0 994.1 NA 0.0000 BR 8000 0 0 0 2100
2019/06/15 05:42:00 BASE 7.76 284 10.49 277 -1.1 100 -1.1 0 0 994.1 NA 0.0000 BR 8000 0 0 0 2100
2019/06/15 05:43:00 BASE 7.42 285 10.49 277 -1.1 100 -1.1 0 0 994.2 NA 0.0000 BR 8000 0 0 0 1610
2019/06/15 05:44:00 BASE 7.30 287 10.29 285 -1.1 100 -1.1 0 0 994.2 NA 0.0000 BR 8000 0 0 0 1350
2019/06/15 05:45:00 BASE 7.18 289 10.29 285 -1.1 100 -1.1 0 0 994.2 NA 0.0000 BR 7000 0 0 0 1410
2019/06/15 05:46:00 BASE 6.88 292 10.29 285 -1.1 100 -1.1 0 0 994.2 NA 0.0000 BR 7000 0 0 0 1020
2019/06/15 05:47:00 BASE 6.68 291 10.29 285 -1.1 100 -1.1 0 0 994.3 NA 0.0000 BR 5000 0 0 0 750
2019/06/15 05:48:00 BASE 6.55 291 10.29 285 -1.1 100 -1.1 0 0 994.3 NA 0.0000 BR 6000 0 0 0 850
2019/06/15 05:49:00 BASE 6.61 295 9.62 289 -1.1 100 -1.1 0 0 994.3 NA 0.0000 BR 8000 0 0 0 790
2019/06/15 05:50:00 BASE 6.65 297 9.52 284 -1.1 100 -1.1 0 0 994.4 NA 0.0000 BR 9999 0 0 0 750
2019/06/15 05:51:00 BASE 6.60 294 9.52 284 -1.1 100 -1.1 0 0 994.3 NA 0.0000 BR 9999 0 0 0 820
2019/06/15 05:52:00 BASE 6.46 292 8.95 289 -1.1 100 -1.1 0 0 994.3 NA 0.0000 BR 9999 0 0 0 850
2019/06/15 05:53:00 BASE 6.61 294 8.95 289 -1.1 100 -1.1 0 0 994.2 NA 0.2540 BR 9999 0 0 0 950
2019/06/15 05:54:00 BASE 6.48 295 8.13 278 -1.1 100 -1.1 0 0 994.2 NA 0.0000 BR 9000 0 0 0 720
2019/06/15 05:55:00 BASE 5.99 294 8.13 278 -1.1 100 -1.1 0 0 994.2 NA 0.0000 BR 6000 0 0 0 920
2019/06/15 05:56:00 BASE 6.02 293 8.13 278 -1.1 100 -1.1 0 0 994.2 NA 0.0000 BR 5000 0 0 0 890
2019/06/15 05:57:00 BASE 6.16 291 8.13 278 -1.1 100 -1.1 0 0 994.3 NA 0.0000 BR 5000 0 0 0 790
2019/06/15 05:58:00 BASE 6.45 289 8.13 278 -1.1 100 -1.1 0 0 994.3 NA 0.0000 BR 6000 0 0 0 790
2019/06/15 05:59:00 BASE 6.51 288 8.13 278 -1.1 100 -1.1 0 0 994.4 NA 0.0000 BR 7000 0 0 0 820
2019/06/15 06:00:00 BASE 6.52 289 8.13 278 -1.1 100 -1.1 0 0 994.4 NA 0.0000 BR 8000 0 0 0 920
2019/06/15 06:01:00 BASE 6.52 292 8.13 278 -1.1 100 -1.1 0 0 994.5 NA 0.0000 BR 8000 0 0 0 1150
2019/06/15 06:02:00 BASE 6.75 291 8.13 291 -1.1 100 -1.1 0 0 994.5 NA 0.0000 BR 9000 0 0 0 850
2019/06/15 06:03:00 BASE 7.32 286 8.13 291 -1.1 100 -1.1 0 0 994.6 NA 0.0000 BR 8000 0 0 0 1050
2019/06/15 06:04:00 BASE 6.93 285 8.13 291 -1.1 100 -1.1 0 0 994.6 NA 0.0000 BR 8000 0 0 0 850
2019/06/15 06:05:00 BASE 6.45 287 8.13 291 -1.0 100 -1.0 0 0 994.7 NA 0.0000 BR 7000 0 0 0 890
2019/06/15 06:06:00 BASE 6.76 286 8.33 280 -1.0 100 -1.0 0 0 994.7 NA 0.0000 BR 7000 0 0 0 850
2019/06/15 06:07:01 BASE 7.43 283 9.16 288 -1.0 100 -1.0 0 0 994.7 NA 0.0000 BR 7000 0 0 0 1020
2019/06/15 06:08:00 BASE 7.49 281 9.16 288 -1.0 100 -1.0 0 0 994.8 NA 0.0000 BR 8000 0 0 0 950
2019/06/15 06:09:01 BASE 7.06 281 9.16 288 -1.0 100 -1.0 0 0 994.8 NA 0.0000 BR 9000 0 0 0 920
2019/06/15 06:10:00 BASE 6.94 278 9.16 288 -1.0 100 -1.0 0 0 994.9 NA 0.0000 BR 9999 0 0 0 890
2019/06/15 06:11:00 BASE 7.26 275 9.21 269 -1.0 100 -1.0 0 0 994.9 NA 0.0000 BR 9999 0 0 0 950
2019/06/15 06:12:00 BASE 7.03 273 9.21 269 -1.0 100 -1.0 0 0 994.9 NA 0.0000 BR 9000 0 0 0 920
2019/06/15 06:13:00 BASE 6.32 275 9.21 269 -1.0 100 -1.0 0 0 995.0 NA 0.0000 BR 9000 0 0 0 980
2019/06/15 06:14:01 BASE 6.03 273 9.21 269 -1.0 100 -1.0 0 0 994.9 NA 0.0000 BR 9000 0 0 0 1150
2019/06/15 06:15:00 BASE 6.09 270 9.21 269 -1.0 100 -1.0 0 0 994.9 NA 0.0000 BR 9999 0 0 0 1080
2019/06/15 06:16:00 BASE 6.24 267 9.21 269 -1.0 100 -1.0 0 0 994.9 NA 0.0000 BR 9999 0 0 0 950
2019/06/15 06:17:01 BASE 5.74 267 9.21 269 -1.1 100 -1.1 0 0 994.8 NA 0.0000 BR 9999 0 0 0 1080
2019/06/15 06:18:00 BASE 5.28 270 9.21 269 -1.1 100 -1.1 0 0 994.8 NA 0.0000 BR 9999 0 0 0 1440
2019/06/15 06:19:00 BASE 5.02 266 9.21 269 -1.1 100 -1.1 0 0 994.8 NA 0.0000 9999 0 0 0 1120
2019/06/15 06:20:00 BASE 4.83 270 9.21 269 -1.1 100 -1.1 0 0 994.8 NA 0.0000 9999 0 0 0 1180
2019/06/15 06:21:00 BASE 5.38 272 8.39 262 -1.1 100 -1.1 0 0 994.7 NA 0.0000 9999 0 0 0 1210
2019/06/15 06:22:00 BASE 5.19 271 8.39 262 -1.1 100 -1.1 0 0 994.7 NA 0.0000 9999 0 0 0 1210
2019/06/15 06:23:00 BASE 4.78 272 8.39 262 -1.1 100 -1.1 0 0 994.7 NA 0.0000 9999 0 0 0 1250
2019/06/15 06:24:00 BASE 4.52 267 8.39 262 -1.1 100 -1.1 0 0 994.7 NA 0.0000 9999 260 0 0 0
2019/06/15 06:25:00 BASE 4.49 264 8.39 262 -1.1 100 -1.1 0 0 994.7 NA 0.0000 9999 260 0 0 0
2019/06/15 06:26:00 BASE 4.68 267 6.69 273 -1.2 100 -1.2 0 0 994.8 NA 0.0000 9999 260 0 0 0
2019/06/15 06:27:01 BASE 4.77 266 6.69 273 -1.2 100 -1.2 0 0 994.8 NA 0.0000 9999 300 0 0 0
2019/06/15 06:28:01 BASE 5.48 262 6.48 255 -1.2 100 -1.2 0 0 994.7 NA 0.0000 9999 300 0 0 0
2019/06/15 06:29:01 BASE 5.44 262 6.48 255 -1.2 100 -1.2 0 0 994.7 NA 0.0000 9999 330 0 0 0
2019/06/15 06:30:01 BASE 5.02 262 6.48 255 -1.2 100 -1.2 0 0 994.7 NA 0.0000 9999 330 0 0 0
2019/06/15 06:31:00 BASE 5.21 261 6.48 255 -1.2 100 -1.2 0 0 994.7 NA 0.0000 9999 330 0 0 0
2019/06/15 06:32:00 BASE 5.49 257 6.69 257 -1.2 100 -1.2 0 0 994.7 NA 0.0000 9999 360 0 0 0
2019/06/15 06:33:00 BASE 5.87 254 7.25 254 -1.3 100 -1.3 0 0 994.7 NA 0.0000 9999 430 1540 0 0
2019/06/15 06:34:00 BASE 6.66 251 7.87 250 -1.3 100 -1.3 0 0 994.7 NA 0.0000 9999 430 1440 0 0
2019/06/15 06:35:00 BASE 7.06 251 7.97 252 -1.3 100 -1.3 0 0 994.7 NA 0.0000 9999 660 0 0 0
2019/06/15 06:36:00 BASE 6.61 251 7.97 252 -1.4 100 -1.4 0 0 994.7 NA 0.0000 9999 890 0 0 0
2019/06/15 06:37:00 BASE 5.81 250 7.97 252 -1.4 100 -1.4 0 0 994.8 NA 0.0000 9999 850 1870 0 0
2019/06/15 06:38:00 BASE 5.32 249 7.97 252 -1.4 100 -1.4 0 0 994.8 NA 0.0000 9999 690 0 0 0
2019/06/15 06:39:00 BASE 5.06 249 7.97 252 -1.4 100 -1.4 0 0 994.9 NA 0.0000 9999 820 0 0 0
2019/06/15 06:40:00 BASE 5.10 251 7.97 252 -1.4 100 -1.4 0 0 994.9 NA 0.0000 9999 720 0 0 0
2019/06/15 06:41:00 BASE 5.25 254 7.97 252 -1.4 100 -1.4 0 0 995.0 NA 0.0000 9999 790 0 0 0
2019/06/15 06:42:00 BASE 5.01 257 7.97 252 -1.4 100 -1.4 0 0 995.0 NA 0.0000 9999 750 0 0 0
2019/06/15 06:43:00 BASE 4.54 260 7.97 252 -1.4 100 -1.4 0 0 995.1 NA 0.0000 9999 920 0 0 0
2019/06/15 06:44:00 BASE 4.01 265 7.97 252 -1.4 100 -1.4 0 0 995.2 NA 0.0000 9999 890 0 0 0
2019/06/15 06:45:00 BASE 4.02 268 7.31 248 -1.4 100 -1.4 0 0 995.2 NA 0.0000 9999 820 0 0 0
2019/06/15 06:46:00 BASE 4.57 271 6.28 265 -1.3 100 -1.3 0 0 995.2 NA 0.0000 9999 690 0 0 0
2019/06/15 06:47:00 BASE 5.45 268 7.10 261 -1.3 100 -1.3 0 0 995.2 NA 0.0000 9999 560 0 0 0
2019/06/15 06:48:00 BASE 5.92 267 7.10 261 -1.3 100 -1.3 0 0 995.2 NA 0.0000 9999 390 0 0 0
2019/06/15 06:49:00 BASE 5.72 266 7.15 257 -1.3 100 -1.3 0 0 995.2 NA 0.0000 9999 390 0 0 0
2019/06/15 06:50:00 BASE 4.98 265 7.15 257 -1.3 100 -1.3 0 0 995.2 NA 0.0000 9999 330 0 0 0
2019/06/15 06:51:00 BASE 5.00 268 7.15 257 -1.3 100 -1.3 0 0 995.2 NA 0.0000 9999 330 0 0 0
2019/06/15 06:52:01 BASE 5.39 264 7.15 257 -1.3 100 -1.3 0 0 995.2 NA 0.0000 9999 330 0 0 0
2019/06/15 06:53:00 BASE 5.53 264 7.15 257 -1.3 100 -1.3 0 0 995.2 NA 0.0000 9999 330 0 0 0
2019/06/15 06:54:00 BASE 5.25 267 7.15 257 -1.3 100 -1.3 0 0 995.3 NA 0.0000 9999 330 0 0 0
2019/06/15 06:55:00 BASE 4.60 268 7.15 257 -1.3 100 -1.3 0 0 995.3 NA 0.0000 9999 330 0 0 0
2019/06/15 06:56:00 BASE 4.70 267 7.15 257 -1.3 100 -1.3 0 0 995.3 NA 0.0000 9999 330 0 0 0
2019/06/15 06:57:00 BASE 4.60 267 7.15 257 -1.3 100 -1.3 0 0 995.3 NA 0.0000 9999 330 0 0 0
2019/06/15 06:58:00 BASE 4.43 271 7.15 257 -1.2 100 -1.2 0 0 995.4 NA 0.0000 9999 360 0 0 0
2019/06/15 06:59:00 BASE 4.88 277 6.74 276 -1.2 100 -1.2 0 0 995.4 NA 0.0000 9999 360 0 0 0
2019/06/15 07:00:00 BASE 5.33 276 6.74 276 -1.3 100 -1.3 0 0 995.3 NA 0.0000 9999 360 0 0 0
2019/06/15 07:01:00 BASE 5.69 273 7.56 270 -1.3 100 -1.3 0 0 995.4 NA 0.0000 9999 360 0 0 0
2019/06/15 07:02:00 BASE 5.64 271 7.56 270 -1.3 100 -1.3 0 0 995.3 NA 0.0000 9999 390 0 0 0
2019/06/15 07:03:00 BASE 5.44 270 7.56 270 -1.3 100 -1.3 0 0 995.4 NA 0.0000 9999 430 0 0 0
2019/06/15 07:04:00 BASE 5.96 266 7.56 270 -1.3 100 -1.3 0 0 995.4 NA 0.0000 9999 430 0 0 0
2019/06/15 07:05:00 BASE 5.95 262 7.56 270 -1.3 100 -1.3 0 0 995.4 NA 0.0000 9999 430 0 0 0
2019/06/15 07:06:00 BASE 5.12 265 7.56 270 -1.3 100 -1.3 0 0 995.4 NA 0.0000 9999 460 0 0 0
2019/06/15 07:07:00 BASE 4.97 266 7.56 270 -1.3 100 -1.3 0 0 995.4 NA 0.0000 9999 750 0 0 0
2019/06/15 07:08:00 BASE 5.04 264 7.56 270 -1.3 100 -1.3 0 0 995.4 NA 0.0000 9999 590 0 0 0
2019/06/15 07:09:00 BASE 4.86 269 7.56 270 -1.4 100 -1.4 0 0 995.4 NA 0.0000 9999 1050 0 0 0
2019/06/15 07:10:00 BASE 5.54 269 7.56 270 -1.4 100 -1.4 0 0 995.4 NA 0.0000 9999 590 0 0 0
2019/06/15 07:11:00 BASE 5.60 264 7.20 268 -1.4 100 -1.4 0 0 995.5 NA 0.0000 9999 890 0 0 0
2019/06/15 07:12:00 BASE 4.66 263 7.20 268 -1.4 100 -1.4 0 0 995.5 NA 0.0000 9999 1150 0 0 0
2019/06/15 07:13:00 BASE 4.83 262 7.51 257 -1.4 100 -1.4 0 0 995.5 NA 0.0000 9999 1250 0 0 0
2019/06/15 07:14:00 BASE 5.17 265 7.51 257 -1.4 100 -1.4 0 0 995.5 NA 0.0000 9999 1210 1970 0 0
2019/06/15 07:15:00 BASE 5.50 265 7.51 257 -1.4 100 -1.4 0 0 995.5 NA 0.0000 9999 1150 0 0 0
2019/06/15 07:16:00 BASE 5.43 262 7.51 257 -1.4 100 -1.4 0 0 995.6 NA 0.0000 9999 1210 0 0 0
2019/06/15 07:17:00 BASE 4.85 263 7.51 257 -1.4 100 -1.4 0 0 995.7 NA 0.0000 9999 1250 0 0 0
2019/06/15 07:18:00 BASE 4.49 264 7.51 257 -1.4 100 -1.4 0 0 995.7 NA 0.0000 9999 1180 0 0 0
2019/06/15 07:19:00 BASE 4.49 265 7.51 257 -1.4 100 -1.4 0 0 995.7 NA 0.0000 9999 1250 0 0 0
2019/06/15 07:20:00 BASE 5.09 265 7.51 257 -1.4 100 -1.4 0 0 995.7 NA 0.0000 9999 1210 1900 0 0
2019/06/15 07:21:00 BASE 5.51 263 7.51 257 -1.4 100 -1.4 0 0 995.7 NA 0.0000 9999 1210 0 0 0
2019/06/15 07:22:00 BASE 5.79 265 7.51 257 -1.4 100 -1.4 0 0 995.7 NA 0.0000 9999 1210 0 0 0
2019/06/15 07:23:00 BASE 5.65 263 6.84 261 -1.4 100 -1.4 0 0 995.7 NA 0.0000 9999 1250 0 0 0
2019/06/15 07:24:00 BASE 5.37 264 6.84 261 -1.4 100 -1.4 0 0 995.7 NA 0.0000 9999 1150 0 0 0
2019/06/15 07:25:00 BASE 5.15 267 6.84 261 -1.4 100 -1.4 0 0 995.7 NA 0.0000 9999 1050 0 0 0
2019/06/15 07:26:00 BASE 5.19 264 6.84 261 -1.4 100 -1.4 0 0 995.7 NA 0.0000 9999 1150 0 0 0
2019/06/15 07:27:00 BASE 5.42 260 6.84 261 -1.4 100 -1.4 0 0 995.6 NA 0.0000 9999 1180 0 0 0
2019/06/15 07:28:00 BASE 5.35 260 6.84 261 -1.4 100 -1.4 0 0 995.6 NA 0.0000 9999 1250 0 0 0
2019/06/15 07:29:00 BASE 4.82 261 6.84 261 -1.4 100 -1.4 0 0 995.6 NA 0.0000 9999 1280 2300 0 0
2019/06/15 07:30:00 BASE 4.50 266 6.84 261 -1.5 100 -1.5 0 0 995.6 NA 0.0000 9999 1210 2760 0 0
2019/06/15 07:31:00 BASE 4.66 268 6.84 261 -1.5 100 -1.5 0 0 995.6 NA 0.0000 9999 2530 0 0 0
2019/06/15 07:32:00 BASE 4.98 266 6.53 267 -1.5 100 -1.5 0 0 995.6 NA 0.0000 9999 2560 2990 0 0
2019/06/15 07:33:00 BASE 4.84 266 6.53 267 -1.5 100 -1.5 0 0 995.6 NA 0.0000 9999 1210 2490 3050 0
2019/06/15 07:34:00 BASE 4.45 267 6.53 267 -1.5 100 -1.5 0 0 995.5 NA 0.0000 9999 1280 2400 3080 0
2019/06/15 07:35:00 BASE 4.49 269 6.53 267 -1.5 100 -1.5 0 0 995.6 NA 0.0000 9999 1150 2400 0 0
2019/06/15 07:36:00 BASE 4.49 275 6.53 267 -1.5 100 -1.5 0 0 995.6 NA 0.0000 9999 2400 2950 0 0
2019/06/15 07:37:00 BASE 4.28 272 6.53 267 -1.5 100 -1.5 0 0 995.6 NA 0.0000 9999 2360 3020 0 0
2019/06/15 07:38:00 BASE 4.41 270 6.53 267 -1.5 100 -1.5 0 0 995.5 NA 0.0000 9999 2330 3050 0 0
2019/06/15 07:39:00 BASE 4.62 272 6.53 267 -1.5 100 -1.5 0 0 995.5 NA 0.0000 9999 2400 2990 0 0
2019/06/15 07:40:00 BASE 4.41 267 6.53 267 -1.5 100 -1.5 0 0 995.5 NA 0.0000 9999 2030 0 0 0
2019/06/15 07:41:00 BASE 4.46 267 6.53 267 -1.5 100 -1.5 0 0 995.5 NA 0.0000 9999 2000 0 0 0
2019/06/15 07:42:00 BASE 4.70 270 5.97 260 -1.5 100 -1.5 0 0 995.4 NA 0.0000 9999 2130 0 0 0
2019/06/15 07:43:00 BASE 4.29 272 5.97 260 -1.5 100 -1.5 0 0 995.4 NA 0.0000 9999 2100 0 0 0
2019/06/15 07:44:00 BASE 3.88 267 5.61 268 -1.5 100 -1.5 0 0 995.4 NA 0.0000 9999 2170 0 0 0
2019/06/15 07:45:00 BASE 3.89 266 5.61 268 -1.5 100 -1.5 0 0 995.4 NA 0.0000 9999 2430 0 0 0
2019/06/15 07:46:00 BASE 3.73 269 5.61 268 -1.5 100 -1.5 0 0 995.4 NA 0.0000 9999 2620 0 0 0
2019/06/15 07:47:00 BASE 4.05 268 5.66 265 -1.5 100 -1.5 0 0 995.4 NA 0.0000 9999 2330 0 0 0
2019/06/15 07:48:00 BASE 4.41 271 5.66 265 -1.5 100 -1.5 0 0 995.4 NA 0.0000 9999 2460 0 0 0
2019/06/15 07:49:00 BASE 4.76 270 6.12 265 -1.5 100 -1.5 0 0 995.4 NA 0.0000 9999 2360 0 0 0
2019/06/15 07:50:00 BASE 4.94 266 6.28 268 -1.5 100 -1.5 0 0 995.4 NA 0.0000 UP 9999 2360 0 0 0
2019/06/15 07:51:00 BASE 4.84 264 6.28 268 -1.6 100 -1.6 0 0 995.4 NA 0.0000 UP 9999 2400 0 0 0
2019/06/15 07:52:00 BASE 4.41 267 6.28 268 -1.6 100 -1.6 0 0 995.4 NA 0.0000 UP 9999 2460 0 0 0
2019/06/15 07:53:00 BASE 3.90 269 6.28 268 -1.6 100 -1.6 0 0 995.4 NA 0.0000 UP 9999 2560 0 0 0
2019/06/15 07:54:00 BASE 3.40 269 6.28 268 -1.6 100 -1.6 0 0 995.4 NA 0.0000 UP 9999 2590 0 0 0
2019/06/15 07:55:00 BASE 3.05 270 6.28 268 -1.6 100 -1.6 0 0 995.4 NA 0.0000 UP 9999 2560 3120 0 0
2019/06/15 07:56:00 BASE 3.44 270 6.28 268 -1.6 100 -1.6 0 0 995.4 NA 0.0000 UP 9999 2760 0 0 0
2019/06/15 07:57:00 BASE 3.52 271 6.28 268 -1.6 100 -1.6 0 0 995.4 NA 0.0000 UP 9999 2400 3380 0 0
2019/06/15 07:58:00 BASE 3.32 272 6.28 268 -1.6 100 -1.6 0 0 995.4 NA 0.0000 UP 9999 2330 0 0 0
2019/06/15 07:59:00 BASE 3.30 279 6.28 268 -1.6 100 -1.6 0 0 995.4 NA 0.0000 UP 9999 2400 0 0 0
2019/06/15 08:00:00 BASE 3.41 279 5.81 260 -1.6 100 -1.6 0 0 995.4 NA 0.0000 UP 9999 2430 0 0 0
2019/06/15 08:01:00 BASE 3.65 274 5.25 283 -1.6 100 -1.6 0 0 995.3 NA 0.0000 9999 2330 0 0 0
2019/06/15 08:02:00 BASE 3.98 275 4.89 278 -1.5 100 -1.5 0 0 995.3 NA 0.0000 9999 2260 0 0 0
2019/06/15 08:03:00 BASE 3.83 278 4.89 278 -1.5 100 -1.5 0 0 995.3 NA 0.0000 9999 2260 0 0 0
2019/06/15 08:04:00 BASE 3.51 278 4.89 278 -1.5 100 -1.5 0 0 995.2 NA 0.0000 9999 2300 0 0 0
2019/06/15 08:05:00 BASE 3.50 279 4.89 278 -1.5 100 -1.5 0 0 995.2 NA 0.0000 9999 2460 0 0 0
2019/06/15 08:06:00 BASE 3.35 279 4.89 278 -1.5 100 -1.5 0 0 995.2 NA 0.0000 9999 2560 0 0 0
2019/06/15 08:07:00 BASE 3.30 275 4.89 278 -1.5 100 -1.5 0 0 995.1 NA 0.0000 9999 2590 0 0 0
2019/06/15 08:08:00 BASE 3.45 277 4.89 278 -1.5 100 -1.5 0 0 995.1 NA 0.0000 9999 2690 0 0 0
2019/06/15 08:09:00 BASE 3.41 282 4.89 278 -1.5 100 -1.5 0 0 995.1 NA 0.0000 9999 0 0 0 490
2019/06/15 08:10:00 BASE 3.36 281 4.89 278 -1.5 100 -1.5 0 0 995.1 NA 0.0000 9999 0 0 0 460
2019/06/15 08:11:00 BASE 3.15 274 4.89 278 -1.5 100 -1.5 0 0 995.1 NA 0.0000 9999 0 0 0 690
2019/06/15 08:12:00 BASE 2.92 273 4.17 280 -1.5 100 -1.5 0 0 995.1 NA 0.0000 9999 0 0 0 590
2019/06/15 08:13:00 BASE 3.18 277 4.17 280 -1.5 100 -1.5 0 0 995.1 NA 0.0000 9999 0 0 0 560
2019/06/15 08:14:00 BASE 3.12 274 4.17 280 -1.5 100 -1.5 0 0 995.1 NA 0.0000 9999 0 0 0 590
2019/06/15 08:15:00 BASE 2.71 275 4.17 280 -1.5 100 -1.5 0 0 995.1 NA 0.0000 9999 0 0 0 560
2019/06/15 08:16:00 BASE 2.72 277 4.17 280 -1.5 100 -1.5 0 0 995.1 NA 0.0000 9999 0 0 0 560
2019/06/15 08:17:00 BASE 2.68 276 4.17 280 -1.5 100 -1.5 0 0 995.1 NA 0.0000 9999 0 0 0 560
2019/06/15 08:18:00 BASE 2.24 277 4.17 280 -1.5 100 -1.5 0 0 995.0 NA 0.0000 9999 0 0 0 490
2019/06/15 08:19:00 BASE 1.96 271 4.17 280 -1.5 100 -1.5 0 0 995.0 NA 0.0000 9999 0 0 0 460
2019/06/15 08:20:00 BASE 2.03 271 4.01 280 -1.5 100 -1.5 0 0 995.0 NA 0.0000 9999 0 0 0 490
2019/06/15 08:21:00 BASE 2.48 278 4.01 280 -1.5 100 -1.5 0 0 994.9 NA 0.0000 9999 6730 0 0 0
2019/06/15 08:22:00 BASE 2.62 274 4.01 280 -1.5 100 -1.5 0 0 995.0 NA 0.0000 9999 0 0 0 520
2019/06/15 08:23:00 BASE 2.22 272 3.45 273 -1.5 100 -1.5 0 0 995.0 NA 0.0000 9999 6660 0 0 0
2019/06/15 08:24:00 BASE 2.16 278 3.45 273 -1.5 100 -1.5 0 0 995.0 NA 0.0000 9999 0 0 0 490
2019/06/15 08:25:00 BASE 2.37 284 3.45 273 -1.5 100 -1.5 0 0 995.0 NA 0.0000 9999 0 0 0 490
2019/06/15 08:26:00 BASE 2.48 284 3.34 267 -1.5 100 -1.5 0 0 994.9 NA 0.0000 9999 0 0 0 460
2019/06/15 08:27:00 BASE 2.42 287 3.34 267 -1.4 100 -1.4 0 0 995.0 NA 0.0000 9999 0 0 0 520
2019/06/15 08:28:00 BASE 2.44 292 3.34 267 -1.4 100 -1.4 0 0 995.0 NA 0.0000 9999 0 0 0 560
2019/06/15 08:29:00 BASE 2.39 292 3.34 267 -1.4 100 -1.4 0 0 995.0 NA 0.0000 9999 0 0 0 490
2019/06/15 08:30:00 BASE 2.34 290 3.34 267 -1.4 100 -1.4 0 0 995.0 NA 0.0000 9999 6690 0 0 0
2019/06/15 08:31:00 BASE 2.56 292 3.09 292 -1.4 100 -1.4 0 0 995.0 NA 0.0000 9999 6590 0 0 0
2019/06/15 08:32:00 BASE 2.51 296 3.09 292 -1.4 100 -1.4 0 0 995.0 NA 0.0000 9999 6730 0 0 0
2019/06/15 08:33:00 BASE 2.54 297 3.09 290 -1.4 100 -1.4 0 0 995.0 NA 0.0000 9999 6990 0 0 0
2019/06/15 08:34:00 BASE 2.64 301 3.09 290 -1.4 100 -1.4 0 0 995.0 NA 0.0000 9999 5710 0 0 0
2019/06/15 08:35:01 BASE 2.46 308 3.09 290 -1.4 100 -1.4 0 0 994.9 NA 0.0000 9999 5610 0 0 0
2019/06/15 08:36:00 BASE 2.36 314 3.09 290 -1.4 100 -1.4 0 0 994.9 NA 0.0000 9999 0 0 0 520
2019/06/15 08:37:00 BASE 2.38 317 3.09 290 -1.4 100 -1.4 0 0 994.9 NA 0.0000 9999 5910 0 0 0
2019/06/15 08:38:00 BASE 2.50 319 3.09 290 -1.4 100 -1.4 0 0 994.8 NA 0.0000 9999 6920 0 0 0
2019/06/15 08:39:00 BASE 2.56 324 3.09 290 -1.4 100 -1.4 0 0 994.8 NA 0.0000 9999 0 0 0 520
2019/06/15 08:40:00 BASE 2.43 327 3.09 290 -1.4 100 -1.4 0 0 994.8 NA 0.0000 9999 0 0 0 560
2019/06/15 08:41:00 BASE 2.41 328 3.09 290 -1.4 100 -1.4 0 0 994.7 NA 0.0000 9999 0 0 0 560
2019/06/15 08:42:00 BASE 2.72 326 3.19 319 -1.4 100 -1.4 0 0 994.7 NA 0.0000 9999 0 0 0 620
2019/06/15 08:43:00 BASE 2.89 325 3.19 319 -1.4 100 -1.4 0 0 994.7 NA 0.0000 9999 0 0 0 720
2019/06/15 08:44:00 BASE 3.01 325 3.65 324 -1.4 100 -1.4 0 0 994.7 NA 0.0000 9999 0 0 0 790
2019/06/15 08:45:00 BASE 3.25 322 3.65 324 -1.4 100 -1.4 0 0 994.7 NA 0.0000 9999 0 0 0 820
2019/06/15 08:46:00 BASE 3.31 320 3.65 324 -1.4 100 -1.4 0 0 994.7 NA 0.0000 9999 0 0 0 720
2019/06/15 08:47:01 BASE 3.31 321 3.65 324 -1.4 100 -1.4 0 0 994.7 NA 0.0000 9999 4890 0 0 0
2019/06/15 08:48:00 BASE 3.24 321 3.65 324 -1.4 100 -1.4 0 0 994.7 NA 0.0000 9999 4760 0 0 0
2019/06/15 08:49:00 BASE 3.25 319 3.65 324 -1.4 100 -1.4 0 0 994.7 NA 0.0000 9999 4690 0 0 0
2019/06/15 08:50:00 BASE 3.38 318 3.70 307 -1.4 100 -1.4 0 0 994.8 NA 0.0000 9999 0 0 0 890
2019/06/15 08:51:00 BASE 3.55 317 3.81 316 -1.4 100 -1.4 0 0 994.7 NA 0.0000 9999 0 0 0 890
2019/06/15 08:52:00 BASE 3.54 319 3.81 316 -1.4 100 -1.4 0 0 994.7 NA 0.0000 9999 0 0 0 1150
2019/06/15 08:53:00 BASE 3.42 321 3.81 316 -1.4 100 -1.4 0 0 994.7 NA 0.0000 9999 0 0 0 1410
2019/06/15 08:54:00 BASE 3.42 321 3.81 316 -1.4 100 -1.4 0 0 994.7 NA 0.0000 9999 0 0 0 1540
2019/06/15 08:55:00 BASE 3.49 321 3.81 316 -1.4 100 -1.4 0 0 994.7 NA 0.0000 9999 0 0 0 8960
2019/06/15 08:56:00 BASE 3.66 322 4.06 318 -1.4 100 -1.4 0 0 994.6 NA 0.0000 9999 0 0 0 8920
2019/06/15 08:57:00 BASE 3.66 324 4.06 318 -1.4 100 -1.4 0 0 994.6 NA 0.0000 9999 0 0 0 3280
2019/06/15 08:58:00 BASE 3.62 326 4.06 318 -1.4 100 -1.4 0 0 994.5 NA 0.0000 9999 0 0 0 2720
2019/06/15 08:59:00 BASE 3.73 328 4.06 318 -1.4 100 -1.4 0 0 994.5 NA 0.0000 9999 0 0 0 2360
2019/06/15 09:00:00 BASE 3.91 328 4.22 328 -1.4 100 -1.4 0 0 994.5 NA 0.0000 9999 0 0 0 2170
2019/06/15 09:01:00 BASE 4.07 328 4.58 321 -1.4 100 -1.4 0 0 994.4 NA 0.0000 9999 0 0 0 1940
2019/06/15 09:02:00 BASE 4.21 326 4.58 321 -1.4 100 -1.4 0 0 994.4 NA 0.0000 9999 0 0 0 1800
2019/06/15 09:03:00 BASE 4.34 326 4.58 331 -1.4 100 -1.4 0 0 994.4 NA 0.0000 9999 0 0 0 1670
2019/06/15 09:04:00 BASE 4.52 327 4.99 329 -1.4 100 -1.4 0 0 994.3 NA 0.0000 9999 0 0 0 1540
2019/06/15 09:05:00 BASE 4.65 326 4.99 329 -1.4 100 -1.4 0 0 994.3 NA 0.0000 9999 0 0 0 1410
2019/06/15 09:06:00 BASE 4.46 325 4.99 329 -1.4 100 -1.4 0 0 994.3 NA 0.0000 9999 0 0 0 1280
2019/06/15 09:07:00 BASE 4.40 324 4.99 329 -1.4 100 -1.4 0 0 994.4 NA 0.0000 9999 7450 0 0 0
2019/06/15 09:08:00 BASE 4.55 322 5.25 320 -1.4 100 -1.4 0 0 994.4 NA 0.0000 9999 7450 0 0 0
2019/06/15 09:09:00 BASE 4.62 321 5.25 320 -1.4 100 -1.4 0 0 994.4 NA 0.0000 9999 7420 0 0 0
2019/06/15 09:10:00 BASE 4.75 319 5.25 320 -1.4 100 -1.4 0 0 994.4 NA 0.0000 9999 8270 0 0 0
2019/06/15 09:11:00 BASE 4.87 319 5.30 309 -1.4 100 -1.4 0 0 994.3 NA 0.0000 9999 7380 0 0 0
2019/06/15 09:12:00 BASE 4.76 318 5.30 314 -1.4 100 -1.4 0 0 994.3 NA 0.0000 9999 8400 0 0 0
2019/06/15 09:13:00 BASE 4.80 317 5.71 312 -1.4 100 -1.4 0 0 994.3 NA 0.0000 9999 9420 0 0 0
2019/06/15 09:14:00 BASE 4.79 317 5.71 312 -1.4 100 -1.4 0 0 994.3 NA 0.0000 9999 8600 0 0 0
2019/06/15 09:15:00 BASE 4.64 317 5.71 312 -1.4 100 -1.4 0 0 994.2 NA 0.0000 9999 9450 0 0 0
2019/06/15 09:16:00 BASE 4.64 316 5.71 312 -1.4 100 -1.4 0 0 994.3 NA 0.0000 9999 8170 9420 0 0
2019/06/15 09:17:00 BASE 4.42 314 5.71 312 -1.4 100 -1.4 0 0 994.3 NA 0.0000 9999 8860 0 0 0
2019/06/15 09:18:00 BASE 4.52 314 5.71 312 -1.4 100 -1.4 0 0 994.2 NA 0.0000 9999 8860 0 0 0
2019/06/15 09:19:00 BASE 4.72 314 5.71 312 -1.4 100 -1.4 0 0 994.3 NA 0.0000 9999 8430 0 0 0
2019/06/15 09:20:00 BASE 4.77 314 5.71 312 -1.4 100 -1.4 0 0 994.2 NA 0.0000 9999 8560 0 0 0
2019/06/15 09:21:00 BASE 5.17 314 6.02 311 -1.4 100 -1.4 0 0 994.2 NA 0.0000 9999 9090 0 0 0
2019/06/15 09:22:00 BASE 5.61 309 6.12 306 -1.4 100 -1.4 0 0 994.2 NA 0.0000 9999 920 9190 0 0
2019/06/15 09:23:00 BASE 5.85 307 6.28 308 -1.3 100 -1.3 0 0 994.2 NA 0.0000 9999 890 0 0 0
2019/06/15 09:24:00 BASE 5.94 304 6.58 298 -1.3 100 -1.3 0 0 994.2 NA 0.0000 9999 1050 0 0 0
2019/06/15 09:25:00 BASE 5.98 300 6.58 298 -1.4 100 -1.4 0 0 994.2 NA 0.0000 9999 1080 0 0 0
2019/06/15 09:26:00 BASE 5.64 301 6.58 298 -1.4 100 -1.4 0 0 994.2 NA 0.0000 9999 9350 0 0 0
2019/06/15 09:27:00 BASE 5.22 303 6.58 298 -1.4 100 -1.4 0 0 994.3 NA 0.0000 9999 8630 0 0 0
2019/06/15 09:28:00 BASE 5.15 304 6.58 298 -1.5 100 -1.5 0 0 994.3 NA 0.0000 9999 1280 0 0 0
2019/06/15 09:29:00 BASE 5.11 304 6.58 298 -1.5 100 -1.5 0 0 994.3 NA 0.0000 9999 1480 0 0 0
2019/06/15 09:30:00 BASE 5.04 304 6.58 298 -1.5 100 -1.5 0 0 994.3 NA 0.0000 9999 1800 8660 0 0
2019/06/15 09:31:00 BASE 5.01 306 6.58 298 -1.5 100 -1.5 0 0 994.3 NA 0.0000 9999 720 1540 0 0
2019/06/15 09:32:00 BASE 5.31 308 6.58 298 -1.5 100 -1.5 0 0 994.3 NA 0.0000 9999 690 1510 0 0
2019/06/15 09:33:00 BASE 5.56 311 6.58 298 -1.5 100 -1.5 0 0 994.3 NA 0.0000 9999 660 1770 0 0
2019/06/15 09:34:00 BASE 5.64 310 6.43 297 -1.5 100 -1.5 0 0 994.3 NA 0.0000 9999 560 0 0 0
2019/06/15 09:35:00 BASE 5.79 308 6.12 310 -1.5 100 -1.5 0 0 994.3 NA 0.0000 9999 750 1610 0 0
2019/06/15 09:36:00 BASE 5.44 305 6.12 310 -1.5 100 -1.5 0 0 994.4 NA 0.0000 9999 720 1770 0 0
2019/06/15 09:37:00 BASE 4.89 303 6.12 310 -1.5 100 -1.5 0 0 994.4 NA 0.0000 9999 720 1740 0 0
2019/06/15 09:38:00 BASE 4.84 304 6.12 310 -1.5 100 -1.5 0 0 994.4 NA 0.0000 9999 8560 0 0 0
2019/06/15 09:39:00 BASE 4.96 306 6.12 310 -1.5 100 -1.5 0 0 994.4 NA 0.0000 9999 1970 8460 0 0
2019/06/15 09:40:00 BASE 4.97 306 6.12 310 -1.5 100 -1.5 0 0 994.4 NA 0.0000 9999 8560 0 0 0
2019/06/15 09:41:00 BASE 4.93 305 6.12 310 -1.5 100 -1.5 0 0 994.4 NA 0.0000 9999 8530 0 0 0
2019/06/15 09:42:00 BASE 4.91 306 6.12 310 -1.5 100 -1.5 0 0 994.4 NA 0.0000 9999 8500 0 0 0
2019/06/15 09:43:00 BASE 4.75 305 6.12 310 -1.5 100 -1.5 0 0 994.4 NA 0.0000 9999 8430 0 0 0
2019/06/15 09:44:00 BASE 4.49 305 6.07 305 -1.5 100 -1.5 0 0 994.4 NA 0.0000 9999 1710 9090 0 0
2019/06/15 09:45:00 BASE 4.29 307 5.86 297 -1.5 100 -1.5 0 0 994.4 NA 0.0000 9999 1670 9220 0 0
2019/06/15 09:46:00 BASE 4.34 308 5.45 305 -1.5 100 -1.5 0 0 994.3 NA 0.0000 9999 8370 0 0 0
2019/06/15 09:47:00 BASE 4.38 304 5.45 305 -1.5 100 -1.5 0 0 994.3 NA 0.0000 9999 8400 0 0 0
2019/06/15 09:48:00 BASE 4.29 304 5.45 305 -1.5 100 -1.5 0 0 994.3 NA 0.0000 9999 9190 0 0 0
2019/06/15 09:49:00 BASE 4.11 307 5.45 305 -1.5 100 -1.5 0 0 994.3 NA 0.0000 9999 9250 0 0 0
2019/06/15 09:50:00 BASE 4.25 305 5.45 305 -1.5 100 -1.5 0 0 994.2 NA 0.0000 9999 9220 0 0 0
2019/06/15 09:51:00 BASE 4.46 303 5.45 305 -1.6 100 -1.6 0 0 994.1 NA 0.0000 9999 8330 0 0 0
2019/06/15 09:52:00 BASE 4.28 304 5.25 299 -1.6 100 -1.6 0 0 994.0 NA 0.0000 9999 8240 0 0 0
2019/06/15 09:53:00 BASE 4.11 303 5.25 299 -1.6 100 -1.6 0 0 994.0 NA 0.0000 9999 8170 9190 0 0
2019/06/15 09:54:00 BASE 4.07 301 5.25 299 -1.6 100 -1.6 0 0 994.0 NA 0.0000 9999 8140 0 0 0
2019/06/15 09:55:00 BASE 4.31 301 5.25 299 -1.6 100 -1.6 0 0 993.9 NA 0.0000 9999 8170 0 0 0
2019/06/15 09:56:00 BASE 4.30 301 5.25 299 -1.6 100 -1.6 0 0 993.9 NA 0.0000 9999 9420 0 0 0
2019/06/15 09:57:00 BASE 4.34 302 5.25 299 -1.6 100 -1.6 0 0 993.9 NA 0.0000 9999 8140 0 0 0
2019/06/15 09:58:00 BASE 4.40 303 5.25 299 -1.6 100 -1.6 0 0 993.8 NA 0.0000 9999 8140 0 0 0
2019/06/15 09:59:00 BASE 4.30 303 5.25 299 -1.6 100 -1.6 0 0 993.8 NA 0.0000 9999 8960 0 0 0
2019/06/15 10:00:00 BASE 4.08 303 5.09 303 -1.6 100 -1.6 0 0 993.7 NA 0.0000 9999 8240 0 0 0
2019/06/15 10:01:00 BASE 4.14 303 5.09 303 -1.6 100 -1.6 0 0 993.7 NA 0.0000 9999 8860 0 0 0
2019/06/15 10:02:00 BASE 4.14 303 5.09 303 -1.6 100 -1.6 0 0 993.6 NA 0.0000 9999 8460 0 0 0
2019/06/15 10:03:00 BASE 3.83 304 5.09 303 -1.6 100 -1.6 0 0 993.6 NA 0.0000 9999 8040 0 0 0
2019/06/15 10:04:00 BASE 3.81 303 5.09 303 -1.6 100 -1.6 0 0 993.6 NA 0.0000 9999 8100 0 0 0
2019/06/15 10:05:00 BASE 3.65 303 4.99 298 -1.6 100 -1.6 0 0 993.6 NA 0.0000 9999 8170 0 0 0
2019/06/15 10:06:00 BASE 3.71 302 4.99 298 -1.6 100 -1.6 0 0 993.6 NA 0.0000 9999 8240 0 0 0
2019/06/15 10:07:00 BASE 3.68 305 4.99 298 -1.6 100 -1.6 0 0 993.6 NA 0.0000 9999 9320 0 0 0
2019/06/15 10:08:00 BASE 3.52 308 4.99 298 -1.6 100 -1.6 0 0 993.5 NA 0.0000 9999 3220 8990 0 0
2019/06/15 10:09:00 BASE 3.69 308 4.84 303 -1.6 100 -1.6 0 0 993.5 NA 0.0000 9999 3180 9020 0 0
2019/06/15 10:10:00 BASE 3.77 309 4.89 311 -1.6 100 -1.6 0 0 993.5 NA 0.0000 9999 3180 0 0 0
2019/06/15 10:11:00 BASE 3.74 306 4.89 311 -1.6 100 -1.6 0 0 993.5 NA 0.0000 9999 3180 0 0 0
2019/06/15 10:12:00 BASE 3.60 305 4.89 311 -1.6 100 -1.6 0 0 993.5 NA 0.0000 9999 3050 0 0 0
2019/06/15 10:13:00 BASE 3.48 305 4.89 311 -1.6 100 -1.6 0 0 993.5 NA 0.0000 9999 2990 0 0 0
2019/06/15 10:14:00 BASE 3.33 305 4.89 311 -1.6 100 -1.6 0 0 993.5 NA 0.0000 9999 2990 0 0 0
2019/06/15 10:15:00 BASE 3.31 302 4.89 311 -1.6 100 -1.6 0 0 993.5 NA 0.0000 9999 3050 0 0 0
2019/06/15 10:16:00 BASE 3.09 302 4.89 311 -1.6 100 -1.6 0 0 993.5 NA 0.0000 9999 3120 0 0 0
2019/06/15 10:17:00 BASE 2.87 303 4.89 311 -1.6 100 -1.6 0 0 993.5 NA 0.0000 9999 3080 0 0 0
2019/06/15 10:18:00 BASE 2.78 301 4.89 311 -1.6 100 -1.6 0 0 993.5 NA 0.0000 9999 3050 0 0 0
2019/06/15 10:19:00 BASE 3.10 298 4.89 311 -1.6 100 -1.6 0 0 993.5 NA 0.0000 9999 2990 0 0 0
2019/06/15 10:20:00 BASE 3.50 298 4.42 306 -1.5 100 -1.5 0 0 993.5 NA 0.0000 9999 2990 0 0 0
2019/06/15 10:21:00 BASE 3.33 301 4.12 307 -1.5 100 -1.5 0 0 993.5 NA 0.0000 9999 2950 0 0 0
2019/06/15 10:22:00 BASE 3.22 303 3.96 298 -1.5 100 -1.5 0 0 993.5 NA 0.0000 9999 2990 0 0 0
2019/06/15 10:23:00 BASE 3.19 304 3.96 298 -1.5 100 -1.5 0 0 993.5 NA 0.0000 9999 2990 0 0 0
2019/06/15 10:24:00 BASE 3.07 305 3.96 298 -1.5 100 -1.5 0 0 993.5 NA 0.0000 9999 3020 0 0 0
2019/06/15 10:25:00 BASE 3.24 306 4.01 308 -1.5 100 -1.5 0 0 993.5 NA 0.0000 9999 2950 0 0 0
2019/06/15 10:26:00 BASE 3.49 309 4.01 308 -1.5 100 -1.5 0 0 993.5 NA 0.0000 9999 2720 0 0 0
2019/06/15 10:27:00 BASE 3.53 313 4.01 308 -1.5 100 -1.5 0 0 993.5 NA 0.0000 9999 2850 0 0 0
2019/06/15 10:28:00 BASE 3.65 313 4.32 311 -1.5 100 -1.5 0 0 993.5 NA 0.0000 9999 2920 0 0 0
2019/06/15 10:29:00 BASE 3.66 312 4.32 311 -1.5 100 -1.5 0 0 993.5 NA 0.0000 9999 2620 0 0 0
2019/06/15 10:30:00 BASE 3.63 311 4.32 311 -1.5 100 -1.5 0 0 993.4 NA 0.0000 9999 2460 0 0 0
2019/06/15 10:31:00 BASE 3.65 310 4.32 311 -1.5 100 -1.5 0 0 993.3 NA 0.0000 9999 2460 0 0 0
2019/06/15 10:32:00 BASE 3.76 311 4.32 311 -1.5 100 -1.5 0 0 993.3 NA 0.0000 9999 2460 0 0 0
2019/06/15 10:33:00 BASE 3.77 313 4.32 311 -1.5 100 -1.5 0 0 993.2 NA 0.0000 9999 2460 0 0 0
2019/06/15 10:34:00 BASE 4.01 311 4.37 304 -1.5 100 -1.5 0 0 993.3 NA 0.0000 9999 2460 0 0 0
2019/06/15 10:35:00 BASE 4.16 310 4.48 308 -1.5 100 -1.5 0 0 993.2 NA 0.0000 9999 2460 0 0 0
2019/06/15 10:36:00 BASE 4.04 310 4.48 312 -1.5 100 -1.5 0 0 993.2 NA 0.0000 9999 2430 0 0 0
2019/06/15 10:37:00 BASE 4.08 307 4.48 302 -1.5 100 -1.5 0 0 993.1 NA 0.0000 9999 2400 0 0 0
2019/06/15 10:38:00 BASE 4.25 306 4.68 312 -1.5 100 -1.5 0 0 993.0 NA 0.0000 9999 2430 0 0 0
2019/06/15 10:39:00 BASE 4.58 307 4.89 312 -1.5 100 -1.5 0 0 993.0 NA 0.0000 9999 2430 0 0 0
2019/06/15 10:40:00 BASE 4.54 307 4.89 312 -1.5 100 -1.5 0 0 992.9 NA 0.0000 9999 2490 0 0 0
2019/06/15 10:41:00 BASE 4.26 308 4.89 312 -1.5 100 -1.5 0 0 992.9 NA 0.0000 9999 2560 0 0 0
2019/06/15 10:42:00 BASE 4.28 308 4.89 312 -1.4 100 -1.4 0 0 992.8 NA 0.0000 9999 2690 0 0 0
2019/06/15 10:43:00 BASE 4.46 306 5.04 304 -1.4 100 -1.4 0 0 992.8 NA 0.0000 9999 2590 0 0 0
2019/06/15 10:44:00 BASE 4.78 307 5.14 310 -1.4 100 -1.4 0 0 992.8 NA 0.0000 9999 2620 0 0 0
2019/06/15 10:45:00 BASE 4.98 307 5.35 306 -1.4 100 -1.4 0 0 992.7 NA 0.0000 9999 2850 0 0 0
2019/06/15 10:46:00 BASE 4.92 306 5.35 306 -1.4 100 -1.4 0 0 992.7 NA 0.0000 9999 2890 0 0 0
2019/06/15 10:47:00 BASE 4.95 305 5.35 308 -1.4 100 -1.4 0 0 992.6 NA 0.0000 9999 2560 0 0 0
2019/06/15 10:48:00 BASE 5.06 306 5.35 308 -1.5 100 -1.5 0 0 992.5 NA 0.0000 9999 10010 0 0 0
2019/06/15 10:49:00 BASE 4.91 307 5.35 308 -1.5 100 -1.5 0 0 992.5 NA 0.0000 9999 10040 0 0 0
2019/06/15 10:50:00 BASE 4.88 307 5.35 308 -1.5 100 -1.5 0 0 992.4 NA 0.0000 9999 10010 0 0 0
2019/06/15 10:51:00 BASE 5.00 305 5.35 308 -1.5 100 -1.5 0 0 992.4 NA 0.0000 9999 10140 0 0 0
2019/06/15 10:52:00 BASE 4.87 304 5.35 308 -1.5 100 -1.5 0 0 992.4 NA 0.0000 9999 10110 0 0 0
2019/06/15 10:53:00 BASE 4.81 305 5.35 308 -1.5 100 -1.5 0 0 992.4 NA 0.0000 9999 10170 0 0 0
2019/06/15 10:54:00 BASE 4.69 307 5.35 308 -1.5 100 -1.5 0 0 992.4 NA 0.0000 9999 0 0 0 2490
2019/06/15 10:55:00 BASE 4.55 308 5.35 308 -1.5 100 -1.5 0 0 992.4 NA 0.0000 9999 10430 0 0 0
2019/06/15 10:56:00 BASE 4.50 310 5.35 308 -1.5 100 -1.5 0 0 992.3 NA 0.0000 9999 0 0 0 2430
2019/06/15 10:57:00 BASE 4.35 311 5.30 307 -1.5 100 -1.5 0 0 992.3 NA 0.0000 9999 10560 0 0 0
2019/06/15 10:58:00 BASE 4.41 311 5.30 307 -1.5 100 -1.5 0 0 992.3 NA 0.0000 9999 0 0 0 2430
2019/06/15 10:59:00 BASE 4.18 310 5.30 307 -1.5 100 -1.5 0 0 992.3 NA 0.0000 9999 0 0 0 2400
2019/06/15 11:00:00 BASE 4.00 312 5.25 304 -1.5 100 -1.5 0 0 992.3 NA 0.0000 9999 0 0 0 2430
2019/06/15 11:01:00 BASE 4.41 312 5.14 311 -1.5 100 -1.5 0 0 992.3 NA 0.0000 9999 0 0 0 2490
2019/06/15 11:02:00 BASE 4.48 315 5.14 311 -1.5 100 -1.5 0 0 992.3 NA 0.0000 9999 0 0 0 2530
2019/06/15 11:03:00 BASE 4.24 317 5.14 311 -1.5 100 -1.5 0 0 992.3 NA 0.0000 9999 0 0 0 2620
2019/06/15 11:04:00 BASE 4.21 316 5.14 311 -1.5 100 -1.5 0 0 992.3 NA 0.0000 9999 2530 0 0 0
2019/06/15 11:05:00 BASE 4.22 320 4.94 312 -1.5 100 -1.5 0 0 992.3 NA 0.0000 9999 2560 0 0 0
2019/06/15 11:06:00 BASE 4.25 323 4.94 312 -1.5 100 -1.5 0 0 992.3 NA 0.0000 9999 2560 0 0 0
2019/06/15 11:07:00 BASE 4.19 322 4.94 312 -1.5 100 -1.5 0 0 992.2 NA 0.0000 9999 2560 0 0 0
2019/06/15 11:08:00 BASE 3.97 324 4.94 312 -1.5 100 -1.5 0 0 992.2 NA 0.0000 9999 2590 0 0 0
2019/06/15 11:09:00 BASE 3.85 327 4.94 312 -1.5 100 -1.5 0 0 992.2 NA 0.0000 9999 2620 0 0 0
2019/06/15 11:10:00 BASE 3.61 331 4.94 312 -1.5 100 -1.5 0 0 992.2 NA 0.0000 9999 2760 0 0 0
2019/06/15 11:11:00 BASE 3.48 331 4.73 325 -1.5 100 -1.5 0 0 992.2 NA 0.0000 9999 2660 0 0 0
2019/06/15 11:12:00 BASE 3.62 330 4.73 325 -1.6 100 -1.6 0 0 992.1 NA 0.0000 9999 2620 0 0 0
2019/06/15 11:13:00 BASE 3.64 332 4.73 325 -1.6 100 -1.6 0 0 992.1 NA 0.0000 9999 2590 0 0 0
2019/06/15 11:14:00 BASE 3.78 333 4.73 325 -1.6 100 -1.6 0 0 992.0 NA 0.0000 9999 2590 0 0 0
2019/06/15 11:15:00 BASE 3.89 332 4.73 325 -1.6 100 -1.6 0 0 992.0 NA 0.0000 9999 2620 0 0 0
2019/06/15 11:16:00 BASE 3.88 333 4.73 325 -1.6 100 -1.6 0 0 992.0 NA 0.0000 9999 2620 0 0 0
2019/06/15 11:17:00 BASE 3.89 334 4.37 329 -1.6 100 -1.6 0 0 992.0 NA 0.0000 9999 2590 0 0 0
2019/06/15 11:18:00 BASE 3.85 336 4.37 329 -1.6 100 -1.6 0 0 991.9 NA 0.0000 9999 2560 0 0 0
2019/06/15 11:19:00 BASE 3.71 339 4.37 329 -1.6 100 -1.6 0 0 991.8 NA 0.0000 9999 2590 0 0 0
2019/06/15 11:20:00 BASE 3.60 336 4.37 329 -1.6 100 -1.6 0 0 991.8 NA 0.0000 9999 2620 0 0 0
2019/06/15 11:21:00 BASE 3.57 332 4.37 329 -1.6 100 -1.6 0 0 991.8 NA 0.0000 9999 2660 0 0 0
2019/06/15 11:22:00 BASE 3.62 331 4.37 329 -1.6 100 -1.6 0 0 991.8 NA 0.0000 9999 2690 0 0 0
2019/06/15 11:23:00 BASE 3.79 331 4.37 329 -1.6 100 -1.6 0 0 991.7 NA 0.0000 9999 2690 0 0 0
2019/06/15 11:24:00 BASE 3.91 330 4.37 329 -1.6 100 -1.6 0 0 991.7 NA 0.0000 9999 2690 0 0 0
2019/06/15 11:25:00 BASE 3.87 331 4.37 329 -1.6 100 -1.6 0 0 991.6 NA 0.0000 9999 2720 0 0 0
2019/06/15 11:26:00 BASE 3.89 330 4.37 329 -1.6 100 -1.6 0 0 991.6 NA 0.0000 9999 0 0 0 3180
2019/06/15 11:27:00 BASE 3.98 328 4.22 329 -1.6 100 -1.6 0 0 991.6 NA 0.0000 9999 0 0 0 3120
2019/06/15 11:28:00 BASE 4.05 328 4.32 323 -1.6 100 -1.6 0 0 991.6 NA 0.0000 9999 0 0 0 3050
2019/06/15 11:29:00 BASE 4.27 326 4.53 328 -1.6 100 -1.6 0 0 991.6 NA 0.0000 9999 0 0 0 3120
2019/06/15 11:30:00 BASE 4.38 328 4.53 328 -1.6 100 -1.6 0 0 991.6 NA 0.0000 9999 0 0 0 3120
2019/06/15 11:31:00 BASE 4.32 330 4.53 335 -1.6 100 -1.6 0 0 991.5 NA 0.0000 9999 0 0 0 3020
2019/06/15 11:32:00 BASE 4.29 331 4.53 335 -1.6 100 -1.6 0 0 991.6 NA 0.0000 9999 2920 0 0 0
2019/06/15 11:33:00 BASE 4.33 331 4.58 326 -1.6 100 -1.6 0 0 991.5 NA 0.0000 9999 2920 0 0 0
2019/06/15 11:34:00 BASE 4.19 333 4.58 326 -1.6 100 -1.6 0 0 991.5 NA 0.0000 9999 2920 0 0 0
2019/06/15 11:35:00 BASE 3.83 335 4.58 326 -1.6 100 -1.6 0 0 991.5 NA 0.0000 9999 2890 0 0 0
2019/06/15 11:36:00 BASE 3.60 335 4.58 326 -1.6 100 -1.6 0 0 991.5 NA 0.0000 9999 2820 0 0 0
2019/06/15 11:37:00 BASE 3.57 336 4.58 326 -1.6 100 -1.6 0 0 991.5 NA 0.0000 9999 2820 0 0 0
2019/06/15 11:38:00 BASE 3.43 338 4.58 326 -1.6 100 -1.6 0 0 991.6 NA 0.0000 9999 2790 0 0 0
2019/06/15 11:39:00 BASE 3.17 343 4.58 326 -1.7 100 -1.7 0 0 991.6 NA 0.0000 9999 2460 0 0 0
2019/06/15 11:40:00 BASE 3.00 347 4.58 326 -1.7 100 -1.7 0 0 991.6 NA 0.0000 9999 2400 0 0 0
2019/06/15 11:41:00 BASE 2.92 347 4.58 326 -1.7 100 -1.7 0 0 991.6 NA 0.0000 9999 2360 0 0 0
2019/06/15 11:42:00 BASE 2.84 349 4.58 326 -1.7 100 -1.7 0 0 991.6 NA 0.0000 9999 2360 0 0 0
2019/06/15 11:43:00 BASE 2.88 351 4.32 331 -1.7 100 -1.7 0 0 991.6 NA 0.0000 9999 2360 0 0 0
2019/06/15 11:44:00 BASE 2.86 353 3.86 335 -1.7 100 -1.7 0 0 991.6 NA 0.0000 9999 2360 0 0 0
2019/06/15 11:45:00 BASE 2.58 357 3.86 335 -1.7 100 -1.7 0 0 991.6 NA 0.0000 9999 2360 0 0 0
2019/06/15 11:46:00 BASE 2.48 1 3.70 338 -1.7 100 -1.7 0 0 991.6 NA 0.0000 9999 2360 0 0 0
2019/06/15 11:47:00 BASE 2.52 1 3.70 338 -1.7 100 -1.7 0 0 991.6 NA 0.0000 9999 2360 0 0 0
2019/06/15 11:48:00 BASE 2.53 360 3.24 335 -1.7 100 -1.7 0 0 991.7 NA 0.0000 9999 2400 0 0 0
2019/06/15 11:49:00 BASE 2.57 3 3.24 335 -1.7 100 -1.7 0 0 991.6 NA 0.0000 9999 2400 0 0 0
2019/06/15 11:50:00 BASE 2.62 7 3.24 335 -1.7 100 -1.7 0 0 991.6 NA 0.0000 9999 2400 0 0 0
2019/06/15 11:51:00 BASE 2.61 7 3.19 346 -1.7 100 -1.7 0 0 991.6 NA 0.0000 9999 2400 0 0 0
2019/06/15 11:52:00 BASE 2.56 6 3.19 346 -1.7 100 -1.7 0 0 991.6 NA 0.0000 9999 2360 0 0 0
2019/06/15 11:53:00 BASE 2.65 7 3.04 6 -1.7 100 -1.7 0 0 991.6 NA 0.0000 9999 2400 0 0 0
2019/06/15 11:54:00 BASE 2.74 5 3.09 5 -1.7 100 -1.7 0 0 991.5 NA 0.0000 9999 2430 0 0 0
2019/06/15 11:55:00 BASE 2.77 4 3.09 5 -1.7 100 -1.7 0 0 991.5 NA 0.0000 9999 2430 0 0 0
2019/06/15 11:56:00 BASE 2.70 1 3.09 5 -1.7 100 -1.7 0 0 991.4 NA 0.0000 9999 2400 0 0 0
2019/06/15 11:57:00 BASE 2.69 1 3.09 5 -1.7 100 -1.7 0 0 991.3 NA 0.0000 9999 2400 0 0 0
2019/06/15 11:58:00 BASE 2.67 3 3.09 5 -1.7 100 -1.7 0 0 991.4 NA 0.0000 9999 2400 0 0 0
2019/06/15 11:59:00 BASE 2.52 4 3.09 5 -1.8 100 -1.8 0 0 991.4 NA 0.0000 9999 2490 0 0 0
2019/06/15 12:00:00 BASE 2.51 5 3.09 5 -1.8 100 -1.8 0 0 991.4 NA 0.0000 9999 2490 0 0 0
2019/06/15 12:01:00 BASE 2.56 9 3.09 5 -1.8 100 -1.8 0 0 991.3 NA 0.0000 9999 2490 0 0 0
2019/06/15 12:02:00 BASE 2.62 11 3.09 5 -1.8 100 -1.8 0 0 991.4 NA 0.0000 9999 2430 0 0 0
2019/06/15 12:03:00 BASE 2.62 14 3.09 5 -1.8 100 -1.8 0 0 991.4 NA 0.0000 9999 2430 0 0 0
2019/06/15 12:04:00 BASE 2.61 22 2.93 3 -1.8 100 -1.8 0 0 991.4 NA 0.0000 9999 2430 0 0 0
2019/06/15 12:05:00 BASE 2.72 26 2.93 29 -1.8 100 -1.8 0 0 991.5 NA 0.0000 9999 2430 0 0 0
2019/06/15 12:06:00 BASE 2.88 27 3.24 24 -1.8 100 -1.8 0 0 991.4 NA 0.0000 9999 2430 0 0 0
2019/06/15 12:07:00 BASE 3.01 28 3.24 33 -1.8 100 -1.8 0 0 991.4 NA 0.0000 9999 2430 0 0 0
2019/06/15 12:08:00 BASE 3.03 33 3.34 32 -1.8 100 -1.8 0 0 991.4 NA 0.0000 9999 1050 2070 0 0
2019/06/15 12:09:00 BASE 3.10 38 3.34 39 -1.8 100 -1.8 0 0 991.4 NA 0.0000 9999 1970 0 0 0
2019/06/15 12:10:00 BASE 3.33 39 3.70 38 -1.8 100 -1.8 0 0 991.4 NA 0.0000 9999 1210 0 0 0
2019/06/15 12:11:00 BASE 3.46 39 3.81 41 -1.9 100 -1.9 0 0 991.4 NA 0.0000 9999 1380 0 0 0
2019/06/15 12:12:00 BASE 3.59 40 3.91 39 -1.9 100 -1.9 0 0 991.3 NA 0.0000 9999 1410 0 0 0
2019/06/15 12:13:00 BASE 3.67 40 3.91 39 -2.0 100 -2.0 0 0 991.2 NA 0.0000 9999 1940 0 0 0
2019/06/15 12:14:00 BASE 3.48 40 3.91 39 -2.0 100 -2.0 0 0 991.2 NA 0.0000 9999 1970 0 0 0
2019/06/15 12:15:00 BASE 3.28 38 3.91 39 -2.0 100 -2.0 0 0 991.1 NA 0.0000 9999 2000 0 0 0
2019/06/15 12:16:00 BASE 3.24 33 3.91 39 -2.0 100 -2.0 0 0 991.1 NA 0.0000 9999 2400 0 0 0
2019/06/15 12:17:00 BASE 3.22 30 3.91 39 -2.0 100 -2.0 0 0 991.1 NA 0.0000 9999 2400 0 0 0
2019/06/15 12:18:00 BASE 3.09 28 3.91 39 -1.9 100 -1.9 0 0 991.1 NA 0.0000 9999 2400 0 0 0
2019/06/15 12:19:00 BASE 2.91 27 3.91 39 -1.9 100 -1.9 0 0 991.0 NA 0.0000 9999 2330 0 0 0
2019/06/15 12:20:00 BASE 2.77 24 3.91 39 -1.9 100 -1.9 0 0 991.0 NA 0.0000 9999 2330 0 0 0
2019/06/15 12:21:00 BASE 2.76 22 3.91 39 -1.9 100 -1.9 0 0 991.0 NA 0.0000 9999 2300 0 0 0
2019/06/15 12:22:00 BASE 2.87 23 3.81 42 -1.9 100 -1.9 0 0 990.9 NA 0.0000 9999 2260 0 0 0
2019/06/15 12:23:00 BASE 2.97 24 3.65 46 -1.9 100 -1.9 0 0 990.8 NA 0.0000 9999 2300 0 0 0
2019/06/15 12:24:00 BASE 3.02 27 3.55 21 -1.9 100 -1.9 0 0 990.8 NA 0.0000 9999 2170 0 0 0
2019/06/15 12:25:00 BASE 3.18 28 3.55 29 -1.9 100 -1.9 0 0 990.7 NA 0.0000 9999 2130 0 0 0
2019/06/15 12:26:00 BASE 3.14 29 3.55 29 -1.9 100 -1.9 0 0 990.8 NA 0.0000 9999 2030 0 0 0
2019/06/15 12:27:00 BASE 2.88 30 3.55 29 -1.9 100 -1.9 0 0 990.7 NA 0.0000 9999 1940 0 0 0
2019/06/15 12:28:00 BASE 2.79 30 3.55 29 -1.9 100 -1.9 0 0 990.8 NA 0.0000 9999 1940 0 0 0
2019/06/15 12:29:00 BASE 2.84 34 3.55 29 -1.9 100 -1.9 0 0 990.7 NA 0.0000 9999 1940 0 0 0
2019/06/15 12:30:00 BASE 2.85 40 3.55 29 -1.9 100 -1.9 0 0 990.7 NA 0.0000 9999 1970 0 0 0
2019/06/15 12:31:00 BASE 2.83 43 3.55 29 -1.9 100 -1.9 0 0 990.7 NA 0.0000 9999 2000 0 0 0
2019/06/15 12:32:00 BASE 2.93 44 3.55 29 -1.9 100 -1.9 0 0 990.6 NA 0.0000 9999 1940 2660 0 0
2019/06/15 12:33:00 BASE 3.07 44 3.55 29 -1.9 100 -1.9 0 0 990.5 NA 0.0000 9999 1970 2530 0 0
2019/06/15 12:34:00 BASE 3.08 44 3.55 29 -1.9 100 -1.9 0 0 990.5 NA 0.0000 9999 2490 0 0 0
2019/06/15 12:35:00 BASE 2.80 47 3.34 42 -1.9 100 -1.9 0 0 990.5 NA 0.0000 9999 2430 0 0 0
2019/06/15 12:36:00 BASE 2.57 50 3.34 42 -1.9 100 -1.9 0 0 990.5 NA 0.0000 9999 1940 2430 0 0
2019/06/15 12:37:00 BASE 2.61 52 3.34 42 -1.9 100 -1.9 0 0 990.5 NA 0.0000 9999 1900 0 0 0
2019/06/15 12:38:00 BASE 2.67 51 3.34 42 -1.9 100 -1.9 0 0 990.5 NA 0.0000 9999 1900 0 0 0
2019/06/15 12:39:00 BASE 2.78 49 3.34 42 -1.9 100 -1.9 0 0 990.5 NA 0.0000 9999 1900 0 0 0
2019/06/15 12:40:00 BASE 2.91 48 3.34 42 -2.0 100 -2.0 0 0 990.5 NA 0.0000 9999 1900 0 0 0
2019/06/15 12:41:00 BASE 2.92 48 3.34 42 -2.0 100 -2.0 0 0 990.4 NA 0.0000 9999 2360 0 0 0
2019/06/15 12:42:00 BASE 3.01 47 3.34 41 -1.9 100 -1.9 0 0 990.4 NA 0.0000 9999 2360 0 0 0
2019/06/15 12:43:00 BASE 3.03 47 3.34 41 -1.9 100 -1.9 0 0 990.3 NA 0.0000 9999 2430 0 0 0
2019/06/15 12:44:00 BASE 2.92 48 3.34 41 -1.9 100 -1.9 0 0 990.3 NA 0.0000 9999 2430 0 0 0
2019/06/15 12:45:00 BASE 2.90 47 3.34 41 -1.9 100 -1.9 0 0 990.4 NA 0.0000 9999 2400 0 0 0
2019/06/15 12:46:00 BASE 2.87 47 3.34 41 -1.9 100 -1.9 0 0 990.3 NA 0.0000 9999 2400 0 0 0
2019/06/15 12:47:00 BASE 2.81 46 3.34 41 -1.9 100 -1.9 0 0 990.3 NA 0.0000 9999 2300 0 0 0
2019/06/15 12:48:00 BASE 2.94 46 3.34 41 -1.9 100 -1.9 0 0 990.3 NA 0.0000 9999 2230 0 0 0
2019/06/15 12:49:00 BASE 3.12 47 3.34 41 -1.9 100 -1.9 0 0 990.2 NA 0.0000 9999 2300 0 0 0
2019/06/15 12:50:00 BASE 3.11 47 3.34 41 -1.9 100 -1.9 0 0 990.2 NA 0.0000 9999 2230 0 0 0
2019/06/15 12:51:00 BASE 3.17 47 3.34 45 -1.9 100 -1.9 0 0 990.2 NA 0.0000 9999 2300 0 0 0
2019/06/15 12:52:00 BASE 3.24 48 3.34 45 -1.9 100 -1.9 0 0 990.2 NA 0.0000 9999 2230 0 0 0
2019/06/15 12:53:00 BASE 3.19 48 3.34 45 -1.9 100 -1.9 0 0 990.1 NA 0.0000 9999 2230 0 0 0
2019/06/15 12:54:00 BASE 3.17 46 3.40 39 -1.9 100 -1.9 0 0 990.1 NA 0.0000 9999 2260 0 0 0
2019/06/15 12:55:00 BASE 3.30 44 3.65 39 -1.9 100 -1.9 0 0 990.1 NA 0.0000 9999 2330 0 0 0
2019/06/15 12:56:00 BASE 3.37 40 3.65 39 -1.9 100 -1.9 0 0 990.0 NA 0.0000 9999 2130 0 0 0
2019/06/15 12:57:00 BASE 3.42 37 3.81 38 -1.9 100 -1.9 0 0 989.9 NA 0.0000 9999 2170 0 0 0
2019/06/15 12:58:00 BASE 3.55 37 3.86 36 -1.9 100 -1.9 0 0 989.8 NA 0.0000 9999 2170 0 0 0
2019/06/15 12:59:00 BASE 3.52 36 3.86 36 -1.8 100 -1.8 0 0 989.8 NA 0.0000 9999 2200 0 0 0
2019/06/15 13:00:00 BASE 3.37 35 3.86 36 -1.8 100 -1.8 0 0 989.7 NA 0.0000 9999 2000 0 0 0
2019/06/15 13:01:00 BASE 3.34 33 3.86 36 -1.8 100 -1.8 0 0 989.6 NA 0.0000 9999 2030 0 0 0
2019/06/15 13:02:00 BASE 3.45 29 3.86 36 -1.8 100 -1.8 0 0 989.6 NA 0.0000 9999 2030 0 0 0
2019/06/15 13:03:00 BASE 3.53 24 3.86 36 -1.8 100 -1.8 0 0 989.5 NA 0.0000 9999 1940 0 0 0
2019/06/15 13:04:00 BASE 3.52 21 3.86 36 -1.8 100 -1.8 0 0 989.4 NA 0.0000 9999 0 0 0 560
2019/06/15 13:05:00 BASE 3.54 16 3.91 15 -1.8 100 -1.8 0 0 989.3 NA 0.0000 9999 0 0 0 620
2019/06/15 13:06:00 BASE 3.78 14 4.06 12 -1.8 100 -1.8 0 0 989.2 NA 0.0000 9999 0 0 0 1540
2019/06/15 13:07:00 BASE 3.99 13 4.12 12 -1.8 100 -1.8 0 0 989.1 NA 0.0000 9999 0 0 0 1510
2019/06/15 13:08:00 BASE 3.95 10 4.12 12 -1.8 100 -1.8 0 0 989.1 NA 0.0000 9999 0 0 0 1640
2019/06/15 13:09:00 BASE 3.68 8 4.12 12 -1.8 100 -1.8 0 0 989.1 NA 0.0000 9999 0 0 0 1410
2019/06/15 13:10:00 BASE 3.30 6 4.12 12 -1.8 100 -1.8 0 0 989.1 NA 0.0000 9999 0 0 0 520
2019/06/15 13:11:00 BASE 2.95 9 4.12 12 -1.8 100 -1.8 0 0 989.1 NA 0.0000 9999 8860 0 0 0
2019/06/15 13:12:00 BASE 2.62 16 4.12 12 -1.8 100 -1.8 0 0 989.1 NA 0.0000 9999 9580 0 0 0
2019/06/15 13:13:00 BASE 2.32 18 4.12 12 -1.8 100 -1.8 0 0 989.1 NA 0.0000 9999 9480 0 0 0
2019/06/15 13:14:00 BASE 1.98 9 4.12 12 -1.8 100 -1.8 0 0 989.0 NA 0.0000 9999 8630 0 0 0
2019/06/15 13:15:00 BASE 1.73 358 4.12 12 -1.8 100 -1.8 0 0 989.0 NA 0.0000 9999 8600 0 0 0
2019/06/15 13:16:00 BASE 1.62 352 4.12 12 -1.8 100 -1.8 0 0 989.0 NA 0.0000 9999 0 0 0 850
2019/06/15 13:17:00 BASE 1.53 359 4.06 9 -1.7 100 -1.7 0 0 989.0 NA 0.0000 9999 0 0 0 750
2019/06/15 13:18:00 BASE 1.46 11 3.70 9 -1.7 100 -1.7 0 0 989.0 NA 0.0000 9999 0 0 0 1350
2019/06/15 13:19:00 BASE 1.30 24 3.40 4 -1.7 100 -1.7 0 0 989.0 NA 0.0000 9999 0 0 0 1440
2019/06/15 13:20:00 BASE 1.24 38 3.09 9 -1.7 100 -1.7 0 0 989.1 NA 0.0000 9999 0 0 0 1410
2019/06/15 13:21:00 BASE 1.43 48 2.52 19 -1.8 100 -1.8 0 0 989.0 NA 0.0000 9999 9740 0 0 0
2019/06/15 13:22:00 BASE 1.93 65 2.62 77 -1.8 100 -1.8 0 0 989.0 NA 0.0000 9999 10040 0 0 0
2019/06/15 13:23:00 BASE 2.50 77 3.09 85 -1.9 100 -1.9 0 0 988.9 NA 0.0000 9999 0 0 0 560
2019/06/15 13:24:00 BASE 2.80 80 3.09 76 -1.9 100 -1.9 0 0 988.9 NA 0.0000 9999 8460 0 0 0
2019/06/15 13:25:00 BASE 2.72 74 3.09 76 -2.0 100 -2.0 0 0 988.9 NA 0.0000 9999 8530 0 0 0
2019/06/15 13:26:00 BASE 2.42 61 3.09 76 -2.1 100 -2.1 0 0 988.8 NA 0.0000 9999 8530 0 0 0
2019/06/15 13:27:00 BASE 2.45 45 3.09 76 -2.1 100 -2.1 0 0 988.7 NA 0.0000 9999 8400 0 0 0
2019/06/15 13:28:00 BASE 2.74 35 3.09 33 -2.1 100 -2.1 0 0 988.6 NA 0.0000 9999 8300 0 0 0
2019/06/15 13:29:00 BASE 2.92 33 3.09 36 -2.1 100 -2.1 0 0 988.5 NA 0.0000 9999 8270 0 0 0
2019/06/15 13:30:00 BASE 3.08 32 3.34 31 -2.1 100 -2.1 0 0 988.5 NA 0.0000 9999 8370 0 0 0
2019/06/15 13:31:00 BASE 3.22 29 3.34 28 -2.1 100 -2.1 0 0 988.5 NA 0.0000 9999 0 0 0 1180
2019/06/15 13:32:00 BASE 3.16 25 3.34 28 -2.1 100 -2.1 0 0 988.5 NA 0.0000 9999 0 0 0 1280
2019/06/15 13:33:00 BASE 3.23 22 3.76 21 -2.0 100 -2.0 0 0 988.5 NA 0.0000 9999 7970 0 0 0
2019/06/15 13:34:00 BASE 3.44 23 3.76 22 -2.0 100 -2.0 0 0 988.5 NA 0.0000 9999 8010 0 0 0
2019/06/15 13:35:00 BASE 3.50 22 3.76 22 -2.0 100 -2.0 0 0 988.4 NA 0.0000 9999 9550 0 0 0
2019/06/15 13:36:00 BASE 3.41 22 3.76 22 -2.0 100 -2.0 0 0 988.4 NA 0.0000 9999 9550 0 0 0
2019/06/15 13:37:00 BASE 3.20 26 3.76 22 -2.0 100 -2.0 0 0 988.4 NA 0.0000 9999 8690 0 0 0
2019/06/15 13:38:00 BASE 3.07 32 3.76 22 -2.0 100 -2.0 0 0 988.3 NA 0.0000 9999 8560 0 0 0
2019/06/15 13:39:00 BASE 3.04 34 3.76 22 -2.1 100 -2.1 0 0 988.2 NA 0.0000 9999 9580 0 0 0
2019/06/15 13:40:00 BASE 3.07 32 3.76 22 -2.1 100 -2.1 0 0 988.3 NA 0.0000 9999 9610 0 0 0
2019/06/15 13:41:00 BASE 3.02 32 3.76 22 -2.2 100 -2.2 0 0 988.3 NA 0.0000 9999 8430 0 0 0
2019/06/15 13:42:00 BASE 2.83 33 3.76 22 -2.2 100 -2.2 0 0 988.2 NA 0.0000 9999 8330 0 0 0
2019/06/15 13:43:00 BASE 2.79 32 3.76 22 -2.2 100 -2.2 0 0 988.2 NA 0.0000 9999 8200 0 0 0
2019/06/15 13:44:00 BASE 2.77 35 3.70 20 -2.2 100 -2.2 0 0 988.2 NA 0.0000 9999 9580 0 0 0
2019/06/15 13:45:00 BASE 2.77 37 3.65 19 -2.2 100 -2.2 0 0 988.2 NA 0.0000 9999 9450 0 0 0
2019/06/15 13:46:00 BASE 2.84 38 3.34 34 -2.2 100 -2.2 0 0 988.2 NA 0.0000 9999 9320 0 0 0
2019/06/15 13:47:00 BASE 2.82 40 3.34 34 -2.2 100 -2.2 0 0 988.2 NA 0.0000 9999 9550 0 0 0
2019/06/15 13:48:00 BASE 2.86 44 3.34 34 -2.2 100 -2.2 0 0 988.1 NA 0.0000 9999 9610 0 0 0
2019/06/15 13:49:00 BASE 2.89 48 3.34 34 -2.2 100 -2.2 0 0 988.0 NA 0.0000 9999 9480 0 0 0
2019/06/15 13:50:00 BASE 2.86 45 3.40 42 -2.2 100 -2.2 0 0 988.0 NA 0.0000 9999 9220 0 0 0
2019/06/15 13:51:00 BASE 2.87 45 3.40 42 -2.3 100 -2.3 0 0 987.9 NA 0.0000 9999 8630 0 0 0
2019/06/15 13:52:00 BASE 2.60 44 3.40 42 -2.3 100 -2.3 0 0 987.9 NA 0.0000 9999 9020 0 0 0
2019/06/15 13:53:00 BASE 2.55 42 3.40 42 -2.3 100 -2.3 0 0 987.9 NA 0.0000 9999 8790 0 0 0
2019/06/15 13:54:00 BASE 2.61 36 3.40 42 -2.3 100 -2.3 0 0 987.8 NA 0.0000 9999 8860 0 0 0
2019/06/15 13:55:00 BASE 2.44 31 3.40 42 -2.3 100 -2.3 0 0 987.8 NA 0.0000 9999 8990 0 0 0
2019/06/15 13:56:00 BASE 2.26 28 3.40 42 -2.3 100 -2.3 0 0 987.7 NA 0.0000 9999 9020 0 0 0
2019/06/15 13:57:00 BASE 2.01 27 3.40 42 -2.3 100 -2.3 0 0 987.7 NA 0.0000 9999 8920 0 0 0
2019/06/15 13:58:00 BASE 1.95 24 3.40 42 -2.3 99 -2.3 0 0 987.7 NA 0.0000 9999 8730 0 0 0
2019/06/15 13:59:00 BASE 1.84 21 3.40 42 -2.3 99 -2.4 0 0 987.6 NA 0.0000 9999 8730 0 0 0
2019/06/15 14:00:00 BASE 1.63 17 3.29 45 -2.3 99 -2.4 0 0 987.6 NA 0.0000 9999 8560 0 0 0
2019/06/15 14:01:00 BASE 1.46 13 3.14 35 -2.3 99 -2.4 0 0 987.6 NA 0.0000 9999 8460 0 0 0
2019/06/15 14:02:00 BASE 1.30 9 3.14 35 -2.3 99 -2.4 0 0 987.6 NA 0.0000 9999 8630 0 0 0
2019/06/15 14:03:00 BASE 1.13 7 2.98 39 -2.2 99 -2.4 0 0 987.6 NA 0.0000 9999 8240 0 0 0
2019/06/15 14:04:00 BASE 0.69 11 2.73 27 -2.2 99 -2.4 0 0 987.5 NA 0.0000 9999 7610 0 0 0
2019/06/15 14:05:00 BASE 0.36 12 2.42 29 -2.2 99 -2.4 0 0 987.4 NA 0.0000 9999 9020 0 0 0
2019/06/15 14:06:00 BASE 0.18 6 2.11 35 -2.2 98 -2.4 0 0 987.4 NA 0.0000 9999 8830 0 0 0
2019/06/15 14:07:00 BASE 0.00 1 2.06 10 -2.2 98 -2.4 0 0 987.4 NA 0.0000 9999 8560 0 0 0
2019/06/15 14:08:00 BASE 0.00 1 1.85 23 -2.2 98 -2.5 1 0 987.3 NA 0.0000 9999 8790 0 0 0
2019/06/15 14:09:00 BASE 0.00 5 1.70 10 -2.2 98 -2.5 1 0 987.3 NA 0.0000 9999 8460 0 0 0
2019/06/15 14:10:00 BASE 0.00 57 1.49 11 -2.2 98 -2.5 1 0 987.2 NA 0.0000 9999 8530 0 0 0
2019/06/15 14:11:00 BASE 0.00 113 1.44 1 -2.2 97 -2.6 1 0 987.2 NA 0.0000 9999 8460 0 0 0
2019/06/15 14:12:00 BASE 0.00 127 1.39 6 -2.2 97 -2.7 1 0 987.2 NA 0.0000 9999 7380 0 0 0
2019/06/15 14:13:00 BASE 0.00 140 1.13 16 -2.2 96 -2.7 1 0 987.1 NA 0.0000 9999 7220 0 0 0
2019/06/15 14:14:00 BASE 0.00 146 1.13 16 -2.2 95 -2.8 1 0 987.1 NA 0.0000 9999 7610 0 0 0
2019/06/15 14:15:00 BASE 0.29 142 1.29 129 -2.2 94 -3.0 1 0 987.1 NA 0.0000 9999 8330 0 0 0
2019/06/15 14:16:00 BASE 0.93 134 1.44 132 -2.3 94 -3.1 1 0 987.0 NA 0.0000 9999 7780 0 0 0
2019/06/15 14:17:00 BASE 1.32 135 1.44 137 -2.3 94 -3.2 1 0 987.0 NA 0.0000 9999 7710 0 0 0
2019/06/15 14:18:00 BASE 1.32 141 1.44 137 -2.4 94 -3.3 1 0 987.0 NA 0.0000 9999 7550 0 0 0
2019/06/15 14:19:00 BASE 1.48 142 1.95 137 -2.5 94 -3.3 1 0 987.0 NA 0.0000 9999 7510 0 0 0
2019/06/15 14:20:00 BASE 1.62 146 1.95 137 -2.5 94 -3.2 1 0 987.0 NA 0.0000 9999 7780 0 0 0
2019/06/15 14:21:00 BASE 1.65 149 1.95 145 -2.5 95 -3.2 1 0 986.9 NA 0.0000 9999 7610 0 0 0
2019/06/15 14:22:00 BASE 1.67 144 1.95 145 -2.5 95 -3.2 1 0 986.9 NA 0.0000 9999 6860 0 0 0
2019/06/15 14:23:00 BASE 1.55 138 1.95 145 -2.5 95 -3.2 1 0 986.8 NA 0.0000 9999 6660 0 0 0
2019/06/15 14:24:00 BASE 1.47 125 1.95 145 -2.6 96 -3.2 1 0 986.9 NA 0.0000 9999 6370 0 0 0
2019/06/15 14:25:00 BASE 1.40 115 1.95 145 -2.6 96 -3.1 1 0 987.0 NA 0.0000 9999 6860 0 0 0
2019/06/15 14:26:00 BASE 1.48 116 1.95 145 -2.5 96 -3.0 1 0 986.9 NA 0.0000 9999 6660 0 0 0
2019/06/15 14:27:00 BASE 1.61 121 1.95 145 -2.5 97 -3.0 1 0 986.9 NA 0.0000 9999 6230 0 0 0
2019/06/15 14:28:00 BASE 1.81 128 2.11 129 -2.5 97 -2.9 1 0 986.8 NA 0.0000 9999 5510 0 0 0
2019/06/15 14:29:00 BASE 1.79 132 2.11 129 -2.5 97 -2.8 1 0 986.8 NA 0.0000 9999 5940 0 0 0
2019/06/15 14:30:00 BASE 1.47 129 2.11 129 -2.4 98 -2.8 1 0 986.8 NA 0.0000 9999 5480 0 0 0
2019/06/15 14:31:00 BASE 1.37 127 2.11 129 -2.4 98 -2.7 1 0 986.8 NA 0.0000 9999 6170 0 0 0
2019/06/15 14:32:00 BASE 1.15 128 2.11 129 -2.3 98 -2.6 1 0 986.7 NA 0.0000 9999 7280 0 0 0
2019/06/15 14:33:00 BASE 0.58 125 2.11 129 -2.3 98 -2.6 1 0 986.7 NA 0.0000 9999 6040 0 0 0
2019/06/15 14:34:00 BASE 0.26 126 2.11 129 -2.2 98 -2.6 1 0 986.6 NA 0.0000 9999 5910 0 0 0
2019/06/15 14:35:00 BASE 0.13 133 2.11 129 -2.3 97 -2.6 1 0 986.6 NA 0.0000 9999 5940 0 0 0
2019/06/15 14:36:00 BASE 0.00 125 2.11 129 -2.2 97 -2.7 1 0 986.6 NA 0.0000 9999 5540 0 0 0
2019/06/15 14:37:00 BASE 0.00 92 2.11 129 -2.3 97 -2.7 1 0 986.5 NA 0.0000 9999 5050 0 0 0
2019/06/15 14:38:00 BASE 0.29 58 1.75 132 -2.3 96 -2.8 1 0 986.4 NA 0.0000 9999 5940 0 0 0
2019/06/15 14:39:00 BASE 0.99 40 1.54 127 -2.3 96 -2.8 1 0 986.4 NA 0.0000 9999 5910 0 0 0
2019/06/15 14:40:00 BASE 1.41 31 1.54 127 -2.3 96 -2.8 1 0 986.4 NA 0.0000 9999 6040 0 0 0
2019/06/15 14:41:00 BASE 1.41 25 1.49 25 -2.3 96 -2.9 1 0 986.3 NA 0.0000 9999 5410 0 0 0
2019/06/15 14:42:00 BASE 1.28 13 1.49 25 -2.4 96 -3.0 1 0 986.3 NA 0.0000 9999 5510 0 0 0
2019/06/15 14:43:00 BASE 1.21 359 1.49 25 -2.4 96 -3.0 1 0 986.2 NA 0.0000 9999 5180 0 0 0
2019/06/15 14:44:00 BASE 1.40 352 1.75 354 -2.5 96 -3.0 1 0 986.2 NA 0.0000 9999 4660 0 0 0
2019/06/15 14:45:00 BASE 1.70 351 2.01 355 -2.5 96 -3.0 1 0 986.2 NA 0.0000 9999 4720 0 0 0
2019/06/15 14:46:00 BASE 1.91 353 2.06 354 -2.5 97 -2.9 1 0 986.1 NA 0.0000 9999 4890 0 0 0
2019/06/15 14:47:00 BASE 2.00 359 2.31 360 -2.5 98 -2.8 1 0 986.0 NA 0.0000 9999 4760 0 0 0
2019/06/15 14:48:00 BASE 2.15 356 2.42 354 -2.5 99 -2.6 1 0 986.0 NA 0.0000 9999 4460 0 0 0
2019/06/15 14:49:00 BASE 2.25 350 2.42 346 -2.4 99 -2.5 1 0 986.0 NA 0.0000 9999 4530 0 0 0
2019/06/15 14:50:00 BASE 2.41 350 2.78 350 -2.4 100 -2.4 2 0 986.0 NA 0.0000 9999 4490 0 0 0
2019/06/15 14:51:00 BASE 2.48 352 2.88 347 -2.3 100 -2.3 2 0 986.0 NA 0.0000 9999 4660 0 0 0
2019/06/15 14:52:00 BASE 2.37 349 2.88 347 -2.3 100 -2.3 2 0 986.0 NA 0.0000 9999 4400 0 0 0
2019/06/15 14:53:00 BASE 2.38 347 2.88 347 -2.3 100 -2.3 2 0 985.9 NA 0.0000 9999 4070 0 0 0
2019/06/15 14:54:00 BASE 2.08 351 2.88 347 -2.2 100 -2.2 2 0 985.9 NA 0.0000 9999 4270 0 0 0
2019/06/15 14:55:00 BASE 1.81 347 2.88 347 -2.2 100 -2.2 2 0 985.8 NA 0.0000 9999 4490 0 0 0
2019/06/15 14:56:00 BASE 1.63 347 2.88 347 -2.2 100 -2.2 2 0 985.8 NA 0.0000 9999 4360 0 0 0
2019/06/15 14:57:00 BASE 1.45 12 2.88 347 -2.1 99 -2.2 2 0 985.8 NA 0.0000 9999 4430 0 0 0
2019/06/15 14:58:00 BASE 1.82 39 2.88 347 -2.1 99 -2.2 2 0 985.7 NA 0.0000 9999 4560 0 0 0
2019/06/15 14:59:00 BASE 1.85 44 2.88 347 -2.0 99 -2.2 2 0 985.7 NA 0.0000 9999 4490 0 0 0
2019/06/15 15:00:00 BASE 1.09 27 2.88 347 -2.0 98 -2.2 2 0 985.7 NA 0.0000 9999 4820 0 0 0
2019/06/15 15:01:00 BASE 0.75 353 2.78 347 -1.9 98 -2.2 2 0 985.6 NA 0.0000 9999 5090 0 0 0
2019/06/15 15:02:00 BASE 1.14 326 2.57 354 -1.8 97 -2.2 2 0 985.6 NA 0.0000 9999 0 0 0 1710
2019/06/15 15:03:00 BASE 1.40 317 2.31 44 -1.8 96 -2.3 2 0 985.6 NA 0.0000 9999 0 0 0 1770
2019/06/15 15:04:00 BASE 1.53 315 2.31 44 -1.7 96 -2.3 2 0 985.6 NA 0.0000 9999 0 0 0 790
2019/06/15 15:05:00 BASE 1.83 308 2.31 44 -1.7 95 -2.4 2 0 985.4 NA 0.0000 9999 0 0 0 790
2019/06/15 15:06:00 BASE 2.09 295 2.47 279 -1.7 94 -2.6 3 0 985.4 NA 0.0000 9999 0 0 0 790
2019/06/15 15:07:00 BASE 2.04 288 2.47 279 -1.7 93 -2.7 3 0 985.4 NA 0.0000 9999 0 0 0 560
2019/06/15 15:08:00 BASE 1.77 291 2.47 279 -1.7 93 -2.7 3 0 985.4 NA 0.0000 9999 6560 0 0 0
2019/06/15 15:09:00 BASE 1.70 289 2.47 279 -1.8 93 -2.8 3 0 985.3 NA 0.0000 9999 6630 0 0 0
2019/06/15 15:10:00 BASE 2.16 287 4.78 328 -1.8 93 -2.8 3 0 985.2 NA 0.0000 9999 6170 0 0 0
2019/06/15 15:11:00 BASE 3.36 312 5.04 339 -1.8 93 -2.8 3 0 985.1 NA 0.0000 9999 6460 0 0 0
2019/06/15 15:12:00 BASE 3.08 353 5.04 339 -1.8 94 -2.7 3 0 985.0 NA 0.0000 9999 6170 0 0 0
2019/06/15 15:13:00 BASE 2.54 59 5.04 339 -1.8 94 -2.6 4 0 985.2 NA 0.0000 9999 6660 0 0 0
2019/06/15 15:14:00 BASE 4.26 75 8.59 55 -1.8 94 -2.6 4 0 985.0 NA 0.0000 9999 5940 0 0 0
2019/06/15 15:15:00 BASE 6.55 41 8.59 55 -1.7 94 -2.6 4 0 984.8 NA 0.0000 9999 5580 0 0 0
2019/06/15 15:16:00 BASE 6.36 17 8.69 22 -1.7 95 -2.4 4 0 984.7 NA 0.0000 9999 5710 0 0 0
2019/06/15 15:17:00 BASE 3.95 11 8.69 22 -1.5 95 -2.3 3 0 984.7 NA 0.0000 9999 5770 0 0 0
2019/06/15 15:18:00 BASE 1.76 351 8.69 22 -1.3 94 -2.2 3 0 984.8 NA 0.0000 9999 5480 0 0 0
2019/06/15 15:19:00 BASE 1.53 16 8.69 22 -1.1 93 -2.1 3 0 984.7 NA 0.0000 9999 1940 0 0 0
2019/06/15 15:20:00 BASE 2.15 51 8.69 22 -0.9 90 -2.3 3 0 984.7 NA 0.0000 9999 2030 0 0 0
2019/06/15 15:21:00 BASE 1.20 46 8.69 22 -0.7 88 -2.6 3 0 984.7 NA 0.0000 9999 2070 0 0 0
2019/06/15 15:22:00 BASE 1.48 83 8.69 22 -0.7 85 -3.0 3 0 984.6 NA 0.0000 9999 2100 0 0 0
2019/06/15 15:23:00 BASE 3.47 102 8.69 22 -0.8 83 -3.4 3 0 984.6 NA 0.0000 9999 1770 0 0 0
2019/06/15 15:24:00 BASE 4.54 93 8.69 22 -0.8 81 -3.7 3 0 984.5 NA 0.0000 9999 1800 0 0 0
2019/06/15 15:25:00 BASE 4.48 92 8.69 22 -0.9 81 -3.9 3 0 984.5 NA 0.0000 9999 1800 0 0 0
2019/06/15 15:26:00 BASE 4.39 101 5.92 122 -1.1 81 -4.0 3 0 984.5 NA 0.0000 9999 2030 0 0 0
2019/06/15 15:27:00 BASE 4.57 102 6.02 105 -1.2 81 -4.0 3 0 984.4 NA 0.0000 9999 2030 4820 0 0
2019/06/15 15:28:00 BASE 5.61 90 8.54 91 -1.3 82 -4.0 3 0 984.3 NA 0.0000 9999 3740 0 0 0
2019/06/15 15:29:00 BASE 6.32 94 8.54 91 -1.4 83 -3.9 3 0 984.5 NA 0.0000 9999 3970 0 0 0
2019/06/15 15:30:00 BASE 5.22 100 8.54 91 -1.4 84 -3.8 3 0 984.3 NA 0.0000 9999 5410 0 0 0
2019/06/15 15:31:00 BASE 3.65 91 8.54 91 -1.5 85 -3.7 3 0 984.3 NA 0.0000 9999 4300 0 0 0
2019/06/15 15:32:00 BASE 4.25 62 8.54 91 -1.4 86 -3.5 3 0 984.1 NA 0.0000 9999 4130 0 0 0
2019/06/15 15:33:00 BASE 5.85 39 8.54 91 -1.4 86 -3.4 3 0 984.0 NA 0.0000 9999 4070 0 0 0
2019/06/15 15:34:00 BASE 7.26 41 9.62 45 -1.4 87 -3.3 3 0 983.9 NA 0.0000 9999 5450 0 0 0
2019/06/15 15:35:00 BASE 8.42 44 9.62 45 -1.3 88 -3.1 3 0 983.7 NA 0.0000 9999 5410 0 0 0
2019/06/15 15:36:00 BASE 9.22 44 10.80 41 -1.3 88 -3.0 3 0 983.6 NA 0.0000 9999 5090 0 0 0
2019/06/15 15:37:00 BASE 9.84 45 11.42 44 -1.3 89 -2.9 3 0 983.5 NA 0.0000 9999 4430 0 0 0
2019/06/15 15:38:00 BASE 9.57 46 11.42 44 -1.3 89 -2.9 3 0 983.4 NA 0.0000 9999 4230 0 0 0
2019/06/15 15:39:00 BASE 10.03 43 11.94 49 -1.3 90 -2.8 3 0 983.3 NA 0.0000 9999 5350 0 0 0
2019/06/15 15:40:00 BASE 10.43 44 11.94 49 -1.3 90 -2.8 3 0 983.2 NA 0.0000 9999 5480 0 0 0
2019/06/15 15:41:00 BASE 10.45 47 11.94 49 -1.3 90 -2.7 3 0 983.2 NA 0.0000 9999 5320 0 0 0
2019/06/15 15:42:00 BASE 10.73 46 11.94 49 -1.2 90 -2.7 3 0 983.1 NA 0.0000 9999 5150 0 0 0
2019/06/15 15:43:00 BASE 10.79 45 12.71 44 -1.2 90 -2.6 3 0 983.1 NA 0.0000 9999 0 0 0 5580
2019/06/15 15:44:00 BASE 10.78 47 12.71 44 -1.1 90 -2.5 3 0 983.1 NA 0.0000 UP 9999 0 0 0 5540
2019/06/15 15:45:02 BASE 10.55 48 12.71 44 -1.0 90 -2.5 3 0 983.0 NA 0.0000 UP 9999 0 0 0 5280
2019/06/15 15:46:00 BASE 10.53 47 12.71 44 -0.9 90 -2.4 3 0 983.0 NA 0.0000 UP 9999 0 0 0 5250
2019/06/15 15:47:00 BASE 10.82 45 12.71 44 -0.9 89 -2.4 3 0 983.0 NA 0.0000 UP 9999 0 0 0 5090
2019/06/15 15:48:00 BASE 11.13 45 12.71 44 -0.8 89 -2.4 3 0 982.9 NA 0.0000 UP 9999 0 0 0 5090
2019/06/15 15:49:00 BASE 11.77 46 13.48 45 -0.8 88 -2.5 3 0 982.8 NA 0.0000 UP 9999 0 0 0 4860
2019/06/15 15:50:00 BASE 12.01 47 13.48 45 -0.8 88 -2.5 3 0 982.8 NA 0.0000 UP 9000 0 0 0 5050
2019/06/15 15:51:00 BASE 11.28 47 13.48 45 -0.8 88 -2.6 3 0 982.8 NA 0.0000 UP 9000 0 0 0 5150
2019/06/15 15:52:00 BASE 11.25 49 13.48 45 -0.8 88 -2.6 3 0 982.8 NA 0.0000 UP BR 9000 0 0 0 5350
2019/06/15 15:53:00 BASE 11.59 50 13.48 45 -0.8 88 -2.6 3 0 982.8 NA 0.0000 UP BR 9000 0 0 0 5220
2019/06/15 15:54:00 BASE 11.74 51 13.48 45 -0.8 88 -2.6 3 0 982.8 NA 0.0000 UP BR 9999 0 0 0 5410
2019/06/15 15:55:00 BASE 11.88 50 13.48 45 -0.8 88 -2.6 3 0 982.8 NA 0.0000 UP BR 9000 0 0 0 5180
2019/06/15 15:56:00 BASE 11.21 51 13.48 45 -0.8 88 -2.5 3 0 982.8 NA 0.0000 UP BR 9000 0 0 0 3770
2019/06/15 15:57:00 BASE 12.90 51 17.85 52 -0.8 89 -2.5 3 0 982.7 NA 0.0000 UP BR 9000 0 0 0 3310
2019/06/15 15:58:00 BASE 15.50 51 17.85 52 -0.8 89 -2.4 3 0 982.7 NA 0.0000 UP BR 8000 0 0 0 3610
2019/06/15 15:59:00 BASE 15.86 51 17.85 52 -0.8 89 -2.3 3 0 982.7 NA 0.0000 UP BR 5000 0 0 0 3450
2019/06/15 16:00:00 BASE 16.09 52 20.53 51 -0.7 89 -2.3 3 0 982.6 NA 0.0000 UP BR 4100 0 0 0 3180
2019/06/15 16:01:00 BASE 18.67 52 22.12 50 -0.7 89 -2.3 3 0 982.6 NA 0.0000 UP BR 3500 0 0 0 3020
2019/06/15 16:02:00 BASE 20.85 52 22.17 55 -0.7 89 -2.3 3 0 982.6 NA 0.0000 UP BR 3500 0 0 0 2990
2019/06/15 16:03:00 BASE 20.10 53 22.17 55 -0.7 89 -2.2 3 0 982.5 NA 0.0000 UP BR 3200 0 0 0 3180
2019/06/15 16:04:00 BASE 19.38 53 22.17 55 -0.6 89 -2.2 3 0 982.4 NA 0.0000 UP BR 3000 0 0 0 3050
2019/06/15 16:05:00 BASE 19.87 55 22.17 55 -0.7 90 -2.2 3 0 982.4 NA 0.0000 UP BR 3200 0 0 0 3080
2019/06/15 16:06:00 BASE 19.97 56 22.17 55 -0.7 90 -2.1 3 0 982.3 NA 0.0000 UP BR 3400 0 0 0 3120
2019/06/15 16:07:00 BASE 19.88 55 22.17 55 -0.7 90 -2.0 3 0 982.3 NA 0.0000 UP BR 3400 0 0 0 3050
2019/06/15 16:08:00 BASE 18.97 56 22.17 55 -0.7 91 -2.0 3 0 982.2 NA 0.0000 UP BR 3400 0 0 0 2920
2019/06/15 16:09:00 BASE 18.57 55 22.17 55 -0.7 91 -2.0 3 0 982.2 NA 0.0000 UP BR 3700 0 0 0 2890
2019/06/15 16:10:00 BASE 19.19 55 22.17 55 -0.7 91 -2.0 3 0 982.1 NA 0.0000 UP BR 4000 0 0 0 2920
2019/06/15 16:11:00 BASE 18.78 57 22.17 55 -0.7 91 -1.9 3 0 982.1 NA 0.0000 UP BR 4400 0 0 0 3150
2019/06/15 16:12:00 BASE 19.03 57 21.97 53 -0.7 92 -1.9 3 0 982.0 NA 0.0000 UP BR 5000 0 0 0 3510
2019/06/15 16:13:00 BASE 19.08 57 21.97 53 -0.7 92 -1.8 3 0 982.0 NA 0.0000 UP BR 5000 0 0 0 3640
2019/06/15 16:14:00 BASE 19.05 58 21.97 53 -0.6 92 -1.8 3 0 981.9 NA 0.0000 UP BR 4800 0 0 0 3410
2019/06/15 16:15:00 BASE 19.36 60 21.97 53 -0.6 92 -1.8 3 0 981.9 NA 0.0000 UP BR 4900 0 0 0 3350
2019/06/15 16:16:00 BASE 18.93 62 21.97 53 -0.6 92 -1.7 3 0 981.9 NA 0.0000 UP BR 5000 0 0 0 3450
2019/06/15 16:17:00 BASE 18.51 65 21.40 58 -0.6 92 -1.7 3 0 981.9 NA 0.0000 UP BR 6000 0 0 0 3280
2019/06/15 16:18:00 BASE 18.64 67 21.40 58 -0.6 92 -1.7 3 0 981.8 NA 0.0000 UP BR 5000 0 0 0 3180
2019/06/15 16:19:00 BASE 18.20 68 20.83 65 -0.5 92 -1.7 3 0 981.8 NA 0.0000 UP BR 5000 0 0 0 3350
2019/06/15 16:20:00 BASE 18.09 70 20.63 61 -0.5 91 -1.7 3 0 981.8 NA 0.0000 UP BR 5000 0 0 0 3350
2019/06/15 16:21:00 BASE 18.15 75 20.63 61 -0.5 91 -1.8 3 0 981.8 NA 0.0000 UP BR 6000 0 0 0 3350
2019/06/15 16:22:00 BASE 17.33 78 20.63 61 -0.5 91 -1.8 3 0 981.8 NA 0.0000 UP BR 6000 0 0 0 3870
2019/06/15 16:23:00 BASE 16.09 81 20.63 61 -0.5 91 -1.8 3 0 981.8 NA 0.0000 UP BR 7000 0 0 0 3580
2019/06/15 16:24:00 BASE 15.63 87 20.53 76 -0.5 91 -1.8 3 0 981.8 NA 0.0000 UP BR 7000 0 0 0 4000
2019/06/15 16:25:01 BASE 14.80 91 20.53 76 -0.5 91 -1.8 3 0 981.8 NA 0.0000 UP BR 8000 0 0 0 4460
2019/06/15 16:26:00 BASE 13.29 94 20.53 76 -0.6 91 -1.8 3 0 981.8 NA 0.0000 UP BR 8000 0 0 0 4560
2019/06/15 16:27:00 BASE 12.20 101 20.53 76 -0.6 91 -1.8 3 0 981.8 NA 0.0000 UP BR 7000 0 0 0 4460
2019/06/15 16:28:00 BASE 11.34 111 20.53 76 -0.7 91 -2.0 3 0 981.4 NA 0.0000 UP BR 8000 0 0 0 4400
2019/06/15 16:29:00 BASE 11.38 113 20.53 76 -0.9 92 -2.1 3 0 981.6 NA 0.0000 UP BR 8000 0 0 0 4170
2019/06/15 16:30:00 BASE 11.53 109 19.03 76 -1.0 92 -2.1 3 0 981.6 NA 0.0000 UP BR 8000 0 0 0 3940
2019/06/15 16:31:00 BASE 11.45 113 19.03 76 -1.2 92 -2.3 3 0 981.6 NA 0.0000 UP BR 8000 0 0 0 3840
2019/06/15 16:32:00 BASE 11.39 117 17.65 88 -1.4 93 -2.4 3 0 981.4 NA 0.0000 UP BR 8000 0 0 0 4130
2019/06/15 16:33:00 BASE 11.78 120 17.65 88 -1.5 93 -2.4 3 0 981.4 NA 0.0000 UP BR 8000 0 0 0 3840
2019/06/15 16:34:00 BASE 12.53 120 15.28 90 -1.6 94 -2.4 3 0 981.6 NA 0.0000 UP BR 8000 0 0 0 3900
2019/06/15 16:35:00 BASE 12.62 121 14.66 96 -1.8 94 -2.5 3 0 981.4 NA 0.0000 UP BR 8000 0 0 0 4100
2019/06/15 16:36:00 BASE 11.80 121 14.10 113 -1.8 95 -2.5 3 0 981.3 NA 0.0000 UP BR 8000 0 0 0 3670
2019/06/15 16:37:00 BASE 11.80 122 14.10 113 -1.9 96 -2.5 3 0 981.3 NA 0.0000 UP BR 8000 0 0 0 3740
2019/06/15 16:38:00 BASE 12.37 126 14.10 113 -1.9 96 -2.4 3 0 981.2 NA 0.0000 BR 8000 0 0 0 3810
2019/06/15 16:39:00 BASE 12.07 125 14.10 113 -1.9 97 -2.4 3 0 981.0 NA 0.0000 BR 8000 0 0 0 3540
2019/06/15 16:40:00 BASE 12.05 124 14.10 113 -2.0 97 -2.3 3 0 981.0 NA 0.0000 BR 8000 0 0 0 3580
2019/06/15 16:41:00 BASE 12.50 123 14.10 113 -2.0 98 -2.3 3 0 981.2 NA 0.0000 BR 8000 0 0 0 3350
2019/06/15 16:42:00 BASE 12.38 125 14.10 113 -2.0 98 -2.2 3 0 981.1 NA 0.0000 BR 8000 0 0 0 3180
2019/06/15 16:43:00 BASE 12.18 126 14.10 113 -2.0 99 -2.1 3 0 981.0 NA 0.0000 BR 8000 0 0 0 2760
2019/06/15 16:44:00 BASE 12.17 126 13.74 128 -2.0 99 -2.1 3 0 981.0 NA 0.0000 BR 8000 0 0 0 2620
2019/06/15 16:45:00 BASE 11.86 129 13.74 128 -2.0 100 -2.0 3 0 980.8 NA 0.0000 BR 8000 0 0 0 2460
2019/06/15 16:46:00 BASE 12.16 131 13.94 127 -2.0 100 -2.0 3 0 980.9 NA 0.0000 BR 8000 0 0 0 2300
2019/06/15 16:47:00 BASE 12.59 127 13.94 127 -2.0 100 -2.0 3 0 980.8 NA 0.0000 BR 8000 0 0 0 2530
2019/06/15 16:48:00 BASE 11.74 124 13.94 127 -2.0 100 -2.0 3 0 980.7 NA 0.0000 BR 8000 0 0 0 2950
2019/06/15 16:49:00 BASE 11.41 126 13.94 127 -2.0 100 -2.0 3 0 980.6 NA 0.0000 BR 8000 0 0 0 3350
2019/06/15 16:50:00 BASE 11.56 128 13.94 127 -2.0 100 -2.0 3 0 980.5 NA 0.0000 BR 8000 0 0 0 5870
2019/06/15 16:51:00 BASE 11.95 129 13.94 127 -2.0 100 -2.0 3 0 980.4 NA 0.0000 BR 8000 0 0 0 3870
2019/06/15 16:52:00 BASE 12.80 133 13.94 127 -2.0 100 -2.0 3 0 980.3 NA 0.0000 BR 8000 0 0 0 5740
2019/06/15 16:53:00 BASE 12.67 129 13.94 127 -2.0 100 -2.0 3 0 980.3 NA 0.0000 BR 8000 0 0 0 4100
2019/06/15 16:54:00 BASE 12.49 124 13.94 127 -2.0 100 -2.0 3 0 980.2 NA 0.0000 BR 8000 0 0 0 4270
2019/06/15 16:55:00 BASE 12.77 127 13.94 127 -1.9 100 -1.9 3 0 980.1 NA 0.0000 BR 8000 0 0 0 3870
2019/06/15 16:56:00 BASE 12.96 129 14.10 132 -1.9 100 -1.9 3 0 980.1 NA 0.0000 BR 8000 0 0 0 4330
2019/06/15 16:57:00 BASE 12.85 127 14.10 132 -1.9 100 -1.9 3 0 980.0 NA 0.0000 BR 8000 0 0 0 3710
2019/06/15 16:58:00 BASE 12.61 125 14.10 132 -1.8 100 -1.8 3 0 980.1 NA 0.0000 BR 8000 0 0 0 3810
2019/06/15 16:59:00 BASE 12.43 126 14.10 132 -1.8 100 -1.8 3 0 979.9 NA 0.0000 BR 8000 2920 0 0 0
2019/06/15 17:00:00 BASE 12.45 127 14.15 128 -1.8 100 -1.8 3 0 980.0 NA 0.0000 BR 8000 0 0 0 3670
2019/06/15 17:01:00 BASE 12.88 124 14.51 126 -1.8 100 -1.8 3 0 979.9 NA 0.0000 BR 8000 0 0 0 3710
2019/06/15 17:02:00 BASE 12.50 124 14.51 126 -1.8 100 -1.8 3 0 979.8 NA 0.0000 BR 8000 0 0 0 3670
2019/06/15 17:03:00 BASE 12.34 124 14.51 126 -1.8 100 -1.8 3 0 979.8 NA 0.0000 BR 8000 0 0 0 3580
2019/06/15 17:04:00 BASE 12.73 122 14.51 126 -1.8 100 -1.8 3 0 979.8 NA 0.0000 BR 8000 0 0 0 3670
2019/06/15 17:05:00 BASE 12.72 118 14.51 126 -1.8 100 -1.8 3 0 979.8 NA 0.0000 BR 8000 0 0 0 3740
2019/06/15 17:06:00 BASE 12.24 119 14.51 126 -1.8 100 -1.8 4 0 979.7 NA 0.0000 BR 8000 0 0 0 3900
2019/06/15 17:07:00 BASE 11.35 121 14.51 126 -1.8 100 -1.8 4 0 979.7 NA 0.0000 BR 8000 0 0 0 4100
2019/06/15 17:08:00 BASE 11.33 121 14.51 126 -1.8 100 -1.8 4 0 979.7 NA 0.0000 BR 8000 0 0 0 4040
2019/06/15 17:09:00 BASE 11.12 124 14.51 126 -1.7 100 -1.7 4 0 979.5 NA 0.0000 BR 8000 0 0 0 3840
2019/06/15 17:10:00 BASE 10.14 128 14.51 126 -1.7 100 -1.7 4 0 979.4 NA 0.0000 UP BR 8000 0 0 0 3870
2019/06/15 17:11:00 BASE 9.61 127 14.04 126 -1.7 100 -1.7 4 0 979.4 NA 0.0000 UP BR 8000 0 0 0 3710
2019/06/15 17:12:00 BASE 9.31 125 14.04 126 -1.7 100 -1.7 4 0 979.3 NA 0.0000 UP BR 8000 0 0 0 3710
2019/06/15 17:13:00 BASE 9.97 125 13.68 124 -1.7 100 -1.7 3 0 979.3 NA 0.0000 UP BR 9000 0 0 0 3540
2019/06/15 17:14:00 BASE 11.19 124 13.63 128 -1.7 100 -1.7 3 0 979.3 NA 0.0000 UP BR 9000 0 0 0 3280
2019/06/15 17:15:00 BASE 12.42 122 13.89 121 -1.6 100 -1.6 3 0 979.2 NA 0.0000 UP BR 9000 0 0 0 3410
2019/06/15 17:16:00 BASE 13.27 117 13.89 121 -1.6 100 -1.6 3 0 979.2 NA 0.0000 UP BR 9000 0 0 0 3310
2019/06/15 17:17:00 BASE 13.01 115 13.89 121 -1.5 100 -1.5 3 0 979.1 NA 0.0000 UP BR 9999 0 0 0 3350
2019/06/15 17:18:00 BASE 12.94 112 14.10 107 -1.4 100 -1.4 3 0 979.1 NA 0.0000 UP BR 9999 0 0 0 3220
2019/06/15 17:19:00 BASE 13.68 109 15.64 108 -1.3 100 -1.3 3 0 979.0 NA 0.0000 UP BR 9000 0 0 0 3150
2019/06/15 17:20:00 BASE 14.18 113 15.64 108 -1.2 100 -1.2 3 0 979.0 NA 0.0000 UP BR 9000 0 0 0 3180
2019/06/15 17:21:00 BASE 13.21 124 15.64 108 -1.1 99 -1.2 3 0 978.7 NA 0.0000 UP BR 9000 0 0 0 2990
2019/06/15 17:22:00 BASE 11.74 134 15.64 108 -1.0 98 -1.2 3 0 978.8 NA 0.0000 UP BR 9000 0 0 0 3020
2019/06/15 17:23:00 BASE 11.68 133 15.64 108 -1.0 98 -1.4 2 0 978.7 NA 0.0000 UP BR 9000 0 0 0 3180
2019/06/15 17:24:00 BASE 12.04 132 15.64 108 -1.1 97 -1.5 2 0 978.6 NA 0.0000 UP BR 9000 0 0 0 3080
2019/06/15 17:25:00 BASE 11.12 131 15.64 108 -1.1 96 -1.7 2 0 978.5 NA 0.0000 UP BR 9000 0 0 0 3150
2019/06/15 17:26:00 BASE 10.20 125 15.64 108 -1.3 96 -1.8 2 0 978.6 NA 0.0000 UP BR 9999 0 0 0 3310
2019/06/15 17:27:00 BASE 10.71 118 15.64 108 -1.3 96 -1.9 2 0 978.6 NA 0.0000 UP BR 9000 0 0 0 3220
2019/06/15 17:28:00 BASE 11.15 124 15.64 108 -1.4 96 -1.9 2 0 978.4 NA 0.0000 UP BR 9000 0 0 0 3380
2019/06/15 17:29:00 BASE 11.24 129 15.59 109 -1.4 97 -1.8 2 0 978.4 NA 0.0000 UP BR 9000 0 0 0 3280
2019/06/15 17:30:00 BASE 11.39 127 13.38 133 -1.3 97 -1.8 2 0 978.3 NA 0.0000 UP BR 8000 0 0 0 3220
2019/06/15 17:31:00 BASE 11.53 122 13.22 132 -1.3 97 -1.7 2 0 978.3 NA 0.0000 UP BR 7000 0 0 0 3350
2019/06/15 17:32:00 BASE 11.14 119 13.17 125 -1.2 97 -1.7 2 0 978.2 NA 0.0000 UP BR 9999 0 0 0 3450
2019/06/15 17:33:00 BASE 11.88 119 15.07 100 -1.2 97 -1.6 2 0 978.2 NA 0.0000 UP BR 9999 0 0 0 3640
2019/06/15 17:34:00 BASE 11.87 113 15.07 100 -1.1 97 -1.5 2 0 978.0 NA 0.0000 UP BR 9999 0 0 0 3540
2019/06/15 17:35:00 BASE 10.91 111 15.07 100 -0.9 97 -1.4 2 0 978.1 NA 0.0000 UP BR 9999 0 0 0 3280
2019/06/15 17:36:00 BASE 11.53 113 15.07 100 -0.8 96 -1.3 2 0 978.0 NA 0.0000 UP BR 9999 0 0 0 6590
2019/06/15 17:37:00 BASE 13.05 111 16.46 92 -0.6 96 -1.1 2 0 978.0 NA 0.0000 UP BR 9999 0 0 0 6500
2019/06/15 17:38:00 BASE 13.35 116 16.46 92 -0.3 95 -1.0 2 0 977.9 NA 0.0000 UP BR 9999 0 0 0 4460
2019/06/15 17:39:00 BASE 12.73 120 16.46 92 -0.1 93 -1.1 2 0 977.9 NA 0.0000 UP BR 9999 0 0 0 5020
2019/06/15 17:40:00 BASE 13.04 125 16.46 92 0.0 92 -1.2 2 0 977.8 NA 0.0000 UP 9999 0 0 0 4330
2019/06/15 17:41:00 BASE 13.12 135 16.46 92 0.1 90 -1.4 2 0 977.6 NA 0.0000 UP 9999 0 0 0 4270
2019/06/15 17:42:00 BASE 13.28 138 17.54 130 0.0 89 -1.6 2 0 977.4 NA 0.0000 UP 9999 0 0 0 4170
2019/06/15 17:43:00 BASE 15.08 131 20.42 137 -0.1 87 -1.9 2 0 977.5 NA 0.0000 UP 8000 0 0 0 5050
2019/06/15 17:44:00 BASE 16.10 134 20.42 137 -0.1 87 -2.0 2 0 977.5 NA 0.0000 UP BR 6000 0 0 0 4920
2019/06/15 17:45:00 BASE 15.23 139 20.42 137 -0.2 87 -2.2 2 0 977.5 NA 0.0000 UP BR 7000 0 0 0 4860
2019/06/15 17:46:00 BASE 14.78 136 20.42 137 -0.2 87 -2.2 2 0 977.5 NA 0.0000 UP BR 6000 0 0 0 5090
2019/06/15 17:47:00 BASE 13.85 134 20.42 137 -0.2 86 -2.2 2 0 977.3 NA 0.0000 UP BR 8000 0 0 0 4760
2019/06/15 17:48:00 BASE 14.13 129 20.42 137 -0.2 86 -2.2 2 0 977.4 NA 0.0000 UP BR 8000 0 0 0 4460
2019/06/15 17:49:00 BASE 15.26 127 20.42 137 -0.3 86 -2.3 2 0 977.4 NA 0.0000 UP BR 8000 0 0 0 4230
2019/06/15 17:50:00 BASE 14.76 124 20.42 137 -0.4 86 -2.4 2 0 977.3 NA 0.0000 UP BR 9999 0 0 0 4040
2019/06/15 17:51:00 BASE 14.02 117 20.42 137 -0.4 86 -2.4 2 0 977.3 NA 0.0000 UP BR 9999 0 0 0 4170
2019/06/15 17:52:00 BASE 14.03 115 20.42 137 -0.5 87 -2.4 2 0 977.3 NA 0.0000 UP BR 9999 0 0 0 4300
2019/06/15 17:53:00 BASE 14.22 123 18.11 129 -0.6 87 -2.4 2 0 977.2 NA 0.0000 UP BR 9999 0 0 0 3900
2019/06/15 17:54:00 BASE 14.16 127 18.11 129 -0.6 88 -2.4 2 0 977.2 NA 0.0000 UP BR 9999 0 0 0 3840
2019/06/15 17:55:00 BASE 13.71 129 18.11 129 -0.6 88 -2.4 2 0 977.1 NA 0.0000 UP 9999 0 0 0 3740
2019/06/15 17:56:00 BASE 12.14 126 18.11 129 -0.6 89 -2.3 2 0 977.0 NA 0.0000 UP 9999 0 0 0 3510
2019/06/15 17:57:00 BASE 10.29 118 17.85 121 -0.6 89 -2.2 2 0 976.8 NA 0.0000 UP 9999 0 0 0 3450
2019/06/15 17:58:00 BASE 11.45 114 17.13 133 -0.6 90 -2.0 2 0 976.8 NA 0.0000 UP 9999 0 0 0 3310
2019/06/15 17:59:00 BASE 14.03 110 17.13 133 -0.4 90 -1.9 2 0 976.9 NA 0.0000 UP 9999 0 0 0 3150
2019/06/15 18:00:00 BASE 15.04 107 17.13 133 -0.3 90 -1.7 1 0 976.8 NA 0.0000 UP 9000 0 0 0 2850
2019/06/15 18:01:00 BASE 14.94 108 17.13 133 -0.1 90 -1.5 1 0 976.8 NA 0.0000 UP 9000 0 0 0 2820
2019/06/15 18:02:00 BASE 15.09 108 17.13 133 0.0 90 -1.4 1 0 976.7 NA 0.0000 UP 8000 0 0 0 2720
2019/06/15 18:03:00 BASE 15.86 104 17.54 86 0.1 90 -1.4 1 0 976.7 NA 0.0000 UP 8000 0 0 0 2720
2019/06/15 18:04:00 BASE 15.83 100 17.54 86 0.1 90 -1.4 1 0 976.7 NA 0.0000 UP BR 8000 0 0 0 2490
2019/06/15 18:05:00 BASE 15.07 100 17.54 86 0.1 90 -1.4 1 0 976.6 NA 0.0000 UP BR 7000 0 0 0 2360
2019/06/15 18:06:00 BASE 14.57 102 17.54 86 0.0 90 -1.4 1 0 976.6 NA 0.0000 UP BR 8000 0 0 0 2300
2019/06/15 18:07:00 BASE 14.08 103 17.54 86 -0.0 90 -1.4 1 0 976.6 NA 0.0000 UP BR 8000 0 0 0 2170
2019/06/15 18:08:00 BASE 13.11 101 17.54 86 -0.1 91 -1.4 1 0 976.5 NA 0.0000 UP BR 6000 0 0 0 2200
2019/06/15 18:09:00 BASE 12.34 91 17.54 86 -0.1 92 -1.3 1 0 976.4 NA 0.0000 UP BR 4900 0 0 0 2070
2019/06/15 18:10:00 BASE 14.02 80 18.88 79 -0.2 93 -1.2 1 0 976.3 NA 0.0000 UP BR 4700 0 0 0 2000
2019/06/15 18:11:00 BASE 17.94 76 23.51 72 -0.1 94 -1.0 1 0 976.2 NA 0.0000 UP BR 3600 0 0 0 1800
2019/06/15 18:12:00 BASE 20.79 74 25.00 70 -0.1 95 -0.8 1 0 976.1 NA 0.0000 -SN BR 3100 0 0 0 1770
2019/06/15 18:13:00 BASE 22.35 68 25.00 70 0.1 95 -0.6 1 0 976.0 NA 0.0000 -SN BR 3000 0 0 0 1800
2019/06/15 18:14:00 BASE 23.02 64 25.10 65 0.2 96 -0.4 1 0 975.9 NA 0.0000 -SN BR 4000 0 0 0 1740
2019/06/15 18:15:00 BASE 23.72 63 25.77 68 0.3 96 -0.3 1 0 975.8 NA 0.0000 -SN BR 3900 0 0 0 1770
2019/06/15 18:16:00 BASE 24.30 61 27.01 57 0.3 96 -0.3 1 0 975.7 NA 0.0000 -SN BR 3700 0 0 0 1970
2019/06/15 18:17:00 BASE 24.62 60 28.04 56 0.3 96 -0.2 1 0 975.6 NA 0.0000 -SN BR 3500 0 0 0 1840
2019/06/15 18:18:00 BASE 24.26 59 28.04 56 0.4 96 -0.2 1 0 975.6 NA 0.0000 -SN BR 3700 0 0 0 1870
2019/06/15 18:19:00 BASE 23.72 60 28.04 56 0.4 96 -0.2 1 0 975.6 NA 0.0000 -SN BR 4000 0 0 0 1840
2019/06/15 18:20:00 BASE 23.51 61 28.04 56 0.4 96 -0.2 1 0 975.6 NA 0.0000 -SN BR 3700 0 0 0 1870
2019/06/15 18:21:00 BASE 24.05 62 28.04 56 0.5 96 -0.2 1 0 975.6 NA 0.0000 -SN BR 3800 0 0 0 1870
2019/06/15 18:22:00 BASE 24.07 61 28.04 56 0.5 95 -0.1 1 0 975.6 NA 0.0000 -SN BR 4200 0 0 0 1900
2019/06/15 18:23:00 BASE 23.22 60 28.04 56 0.6 95 -0.1 1 0 975.5 NA 0.0000 -SN BR 3800 0 0 0 2000
2019/06/15 18:24:00 BASE 23.67 60 28.04 56 0.6 95 -0.1 1 0 975.4 NA 0.0000 -SN BR 3400 0 0 0 1970
2019/06/15 18:25:00 BASE 23.52 61 28.04 56 0.6 95 -0.1 1 0 975.5 NA 0.0000 -SN BR 3400 0 0 0 1840
2019/06/15 18:26:00 BASE 23.03 63 28.04 56 0.6 95 -0.1 1 0 975.4 NA 0.0000 -SN BR 3400 0 0 0 1800
2019/06/15 18:27:00 BASE 22.58 61 27.78 56 0.6 95 -0.1 1 0 975.4 NA 0.0000 -SN BR 3300 0 0 0 1870
2019/06/15 18:28:00 BASE 22.39 61 27.78 56 0.6 95 -0.1 1 0 975.3 NA 0.0000 -SN BR 3500 0 0 0 1800
2019/06/15 18:29:00 BASE 22.74 62 27.78 56 0.6 95 -0.1 1 0 975.3 NA 0.0000 -SN BR 3700 0 0 0 1710
2019/06/15 18:30:00 BASE 23.40 61 27.78 56 0.6 95 -0.1 1 0 975.2 NA 0.0000 -SN BR 3600 0 0 0 1840
2019/06/15 18:31:00 BASE 22.82 59 27.42 59 0.6 95 -0.1 1 0 975.2 NA 0.0000 -SN BR 3600 0 0 0 1710
2019/06/15 18:32:00 BASE 22.68 57 27.42 59 0.6 95 -0.1 1 0 975.2 NA 0.0000 -SN BR 3400 0 0 0 1770
2019/06/15 18:33:00 BASE 22.86 54 27.42 59 0.6 95 -0.1 1 0 975.1 NA 0.0000 -SN BR 3500 0 0 0 1740
2019/06/15 18:34:00 BASE 22.65 54 27.42 59 0.6 95 -0.1 1 0 975.1 NA 0.0000 -SN BR 3600 0 0 0 1640
2019/06/15 18:35:00 BASE 23.06 54 27.42 59 0.6 95 -0.1 1 0 975.0 NA 0.0000 -SN BR 3400 0 0 0 1510
2019/06/15 18:36:00 BASE 22.47 54 27.42 59 0.6 96 -0.0 1 0 975.0 NA 0.0000 -SN BR 3500 0 0 0 1610
2019/06/15 18:37:00 BASE 22.16 54 27.42 59 0.6 96 -0.0 1 0 975.1 NA 0.0000 -SN BR 3300 0 0 0 1710
2019/06/15 18:38:00 BASE 22.07 55 27.42 59 0.6 96 -0.0 1 0 975.0 NA 0.0000 -SN BR 3400 0 0 0 1740
2019/06/15 18:39:00 BASE 21.71 57 27.42 59 0.6 96 -0.0 1 0 975.1 NA 0.0000 -SN BR 3700 0 0 0 1610
2019/06/15 18:40:00 BASE 21.40 57 26.75 50 0.6 96 0.0 0 0 975.1 NA 0.0000 -SN BR 3700 0 0 0 1770
2019/06/15 18:41:00 BASE 21.57 60 26.75 50 0.6 96 0.1 0 0 975.1 NA 0.0000 -SN BR 3500 0 0 0 1940
2019/06/15 18:42:00 BASE 21.81 60 26.75 50 0.6 97 0.1 0 0 975.1 NA 0.0000 -SN BR 3500 0 0 0 2070
2019/06/15 18:43:00 BASE 21.46 59 26.75 50 0.6 97 0.1 0 0 975.1 NA 0.0000 -SN BR 3700 0 0 0 2170
2019/06/15 18:44:00 BASE 21.20 60 25.93 41 0.6 97 0.2 0 0 975.1 NA 0.0000 -SN BR 3700 0 0 0 2130
2019/06/15 18:45:00 BASE 20.71 60 25.10 61 0.6 97 0.2 0 0 975.1 NA 0.0000 -SN BR 3700 0 0 0 2070
2019/06/15 18:46:00 BASE 19.72 60 25.10 61 0.6 97 0.2 0 0 975.0 NA 0.0000 -SN BR 3500 0 0 0 2070
2019/06/15 18:47:00 BASE 19.02 57 25.10 61 0.6 97 0.2 0 0 974.9 NA 0.0000 -SN BR 3800 0 0 0 1800
2019/06/15 18:48:00 BASE 19.37 54 25.10 61 0.7 97 0.2 0 0 974.9 NA 0.0000 -SN BR 4500 0 0 0 2100
2019/06/15 18:49:00 BASE 19.98 50 25.10 61 0.7 97 0.3 0 0 974.8 NA 0.0000 -SN BR 5000 0 0 0 2100
2019/06/15 18:50:00 BASE 21.23 48 25.88 53 0.7 97 0.3 0 0 974.7 NA 0.0000 -SN BR 4800 0 0 0 2230
2019/06/15 18:51:00 BASE 22.83 48 26.24 48 0.8 97 0.3 0 0 974.6 NA 0.0000 -SN BR 3800 0 0 0 1900
2019/06/15 18:52:00 BASE 23.24 47 26.80 49 0.8 97 0.4 0 0 974.6 NA 0.0000 -SN BR 3400 0 0 0 1940
2019/06/15 18:53:00 BASE 22.83 48 26.80 49 0.8 97 0.4 0 0 974.6 NA 0.0000 -SN BR 3400 0 0 0 2070
2019/06/15 18:54:00 BASE 21.14 47 26.80 49 0.8 97 0.4 0 0 974.6 NA 0.0000 -SN BR 3800 0 0 0 2170
2019/06/15 18:55:00 BASE 21.20 48 26.80 49 0.8 97 0.4 0 0 974.6 NA 0.0000 -SN BR 4100 0 0 0 2170
2019/06/15 18:56:00 BASE 22.74 48 26.80 49 0.8 97 0.4 0 0 974.5 NA 0.0000 -SN BR 3600 0 0 0 2170
2019/06/15 18:57:00 BASE 22.12 47 26.80 49 0.8 97 0.4 0 0 974.5 NA 0.0000 -SN BR 3600 0 0 0 2170
2019/06/15 18:58:00 BASE 21.97 49 26.80 49 0.8 97 0.4 0 0 974.5 NA 0.0000 -SN BR 3600 0 0 0 2170
2019/06/15 18:59:00 BASE 22.06 48 26.80 49 0.8 97 0.4 0 0 974.4 NA 0.0000 -SN BR 3600 0 0 0 2260
2019/06/15 19:00:00 BASE 21.15 51 26.80 49 0.8 97 0.4 0 0 974.5 NA 0.0000 -SN BR 4100 0 0 0 2130
2019/06/15 19:01:00 BASE 20.77 52 26.80 49 0.8 97 0.4 0 0 974.5 NA 0.0000 -SN BR 4500 0 0 0 2000
2019/06/15 19:02:00 BASE 21.98 53 27.47 57 0.8 97 0.3 0 0 974.5 NA 0.0000 -SN BR 4200 0 0 0 2260
2019/06/15 19:03:00 BASE 21.30 54 27.47 57 0.7 97 0.3 0 0 974.5 NA 0.0000 -SN BR 4100 0 0 0 1840
2019/06/15 19:04:00 BASE 20.10 53 27.47 57 0.7 97 0.3 0 0 974.5 NA 0.0000 -SN BR 4300 0 0 0 1770
2019/06/15 19:05:00 BASE 20.79 54 27.47 57 0.7 97 0.3 0 0 974.5 NA 0.0000 -SN BR 4500 0 0 0 2000
2019/06/15 19:06:00 BASE 20.18 53 27.47 57 0.6 97 0.3 0 0 974.5 NA 0.0000 -SN BR 4700 0 0 0 2030
2019/06/15 19:07:00 BASE 20.52 49 27.47 57 0.6 98 0.3 0 0 974.3 NA 0.0000 -SN BR 4600 0 0 0 2230
2019/06/15 19:08:00 BASE 21.92 51 27.47 57 0.6 98 0.3 0 0 974.3 NA 0.0000 -SN BR 5000 0 0 0 2130
2019/06/15 19:09:00 BASE 22.37 52 27.47 57 0.6 98 0.3 0 0 974.3 NA 0.0000 -SN BR 7000 0 0 0 1840
2019/06/15 19:10:00 BASE 22.69 51 27.47 57 0.6 98 0.3 0 0 974.2 NA 0.0000 -SN BR 8000 0 0 0 2070
2019/06/15 19:11:00 BASE 23.90 50 27.47 57 0.5 98 0.3 0 0 974.1 NA 0.0000 -SN BR 9000 0 0 0 1440
2019/06/15 19:12:00 BASE 24.05 51 27.32 51 0.5 98 0.2 0 0 974.2 NA 0.0000 -SN BR 9000 0 0 0 1570
2019/06/15 19:13:00 BASE 23.14 51 27.32 51 0.5 98 0.2 0 0 974.1 NA 0.0000 -SN BR 9999 0 0 0 1870
2019/06/15 19:14:00 BASE 23.97 50 28.86 52 0.4 98 0.2 0 0 974.1 NA 0.0000 -SN BR 9999 0 0 0 1480
2019/06/15 19:15:00 BASE 24.74 50 28.86 52 0.4 98 0.1 0 0 974.1 NA 0.0000 -SN BR 9999 0 0 0 1610
2019/06/15 19:16:00 BASE 24.78 52 28.86 52 0.4 98 0.1 0 0 974.1 NA 0.0000 -SN BR 9999 0 0 0 1280
2019/06/15 19:17:00 BASE 24.25 53 28.86 52 0.4 98 0.1 0 0 974.2 NA 0.0000 -SN BR 9999 0 0 0 1310
2019/06/15 19:18:00 BASE 23.73 55 28.86 52 0.4 98 0.1 0 0 974.2 NA 0.0000 -SN BR 9999 0 0 0 1280
2019/06/15 19:19:00 BASE 24.17 58 28.86 52 0.4 98 0.1 0 0 974.2 NA 0.0000 -SN 9999 0 0 0 1280
2019/06/15 19:20:00 BASE 23.96 59 28.86 52 0.4 98 0.1 0 0 974.2 NA 0.0000 -SN 9999 0 0 0 1020
2019/06/15 19:21:00 BASE 23.99 60 28.86 52 0.3 98 0.1 0 0 974.2 NA 0.0000 -SN 9999 0 0 0 1020
2019/06/15 19:22:00 BASE 23.79 62 28.86 52 0.3 98 0.1 0 0 974.2 NA 0.0000 -SN 9999 0 0 0 1280
2019/06/15 19:23:00 BASE 22.91 63 28.86 52 0.3 98 0.0 0 0 974.2 NA 0.0000 -SN 9999 0 0 0 1080
2019/06/15 19:24:00 BASE 23.54 62 27.93 56 0.3 98 0.0 0 0 974.2 NA 0.0000 -SN 9999 0 0 0 890
2019/06/15 19:25:00 BASE 23.98 63 26.70 56 0.4 97 0.0 0 0 974.2 NA 0.0000 -SN 9999 0 0 0 1080
2019/06/15 19:26:00 BASE 22.22 66 26.70 56 0.4 97 -0.0 0 0 974.3 NA 0.0000 -SN 9999 0 0 0 520
2019/06/15 19:27:00 BASE 21.63 69 26.70 56 0.4 97 -0.0 0 0 974.3 NA 0.0000 -SN 9999 0 0 0 620
2019/06/15 19:28:00 BASE 21.39 72 26.60 59 0.4 97 -0.0 0 0 974.4 NA 0.0000 -SN 9999 0 0 0 590
2019/06/15 19:29:00 BASE 19.84 75 26.60 59 0.4 97 -0.0 0 0 974.4 NA 0.0000 -SN 9999 6660 0 0 0
2019/06/15 19:30:00 BASE 18.30 80 26.60 59 0.4 97 -0.0 0 0 974.4 NA 0.0000 -SN 9999 6200 0 0 0
2019/06/15 19:31:00 BASE 16.35 89 25.93 60 0.4 96 -0.1 0 0 974.4 NA 0.0000 9999 6430 0 0 0
2019/06/15 19:32:00 BASE 16.00 96 25.93 60 0.4 96 -0.2 0 0 974.5 NA 0.0000 9999 6370 0 0 0
2019/06/15 19:33:00 BASE 16.65 98 25.93 60 0.2 96 -0.4 0 0 974.5 NA 0.0000 9999 6370 0 0 0
2019/06/15 19:34:00 BASE 17.09 100 25.93 60 0.1 95 -0.6 0 0 974.6 NA 0.0000 9999 6760 0 0 0
2019/06/15 19:35:00 BASE 17.50 101 23.97 71 -0.1 95 -0.8 0 0 974.5 NA 0.0000 9999 6790 0 0 0
2019/06/15 19:36:00 BASE 17.58 102 23.97 71 -0.3 95 -1.0 0 0 974.5 NA 0.0000 9999 6760 0 0 0
2019/06/15 19:37:00 BASE 16.48 102 22.17 66 -0.4 94 -1.2 0 0 974.4 NA 0.0000 9999 6660 0 0 0
2019/06/15 19:38:00 BASE 15.06 100 22.07 79 -0.5 94 -1.3 0 0 974.4 NA 0.0000 9999 5640 0 0 0
2019/06/15 19:39:00 BASE 14.83 98 19.50 96 -0.6 94 -1.4 0 0 974.3 NA 0.0000 9999 5610 0 0 0
2019/06/15 19:40:00 BASE 14.33 96 19.50 96 -0.6 94 -1.4 0 0 974.2 NA 0.0000 9999 6400 0 0 0
2019/06/15 19:41:00 BASE 13.73 96 19.50 96 -0.6 94 -1.5 0 0 974.3 NA 0.0000 9999 6300 0 0 0
2019/06/15 19:42:00 BASE 14.05 98 19.50 96 -0.6 94 -1.5 0 0 974.2 NA 0.0000 9999 6300 0 0 0
2019/06/15 19:43:00 BASE 14.23 101 19.50 96 -0.5 93 -1.5 0 0 974.2 NA 0.0000 9999 5220 0 0 0
2019/06/15 19:44:00 BASE 15.90 103 19.60 104 -0.5 93 -1.5 0 0 974.3 NA 0.0000 9999 5350 0 0 0
2019/06/15 19:45:00 BASE 17.11 102 19.60 104 -0.5 93 -1.6 0 0 974.3 NA 0.0000 9999 5120 0 0 0
2019/06/15 19:46:00 BASE 17.76 103 20.83 102 -0.6 92 -1.7 0 0 974.3 NA 0.0000 9999 4630 0 0 0
2019/06/15 19:47:00 BASE 18.12 101 20.83 102 -0.6 92 -1.8 0 0 974.2 NA 0.0000 9999 4400 0 0 0
2019/06/15 19:48:00 BASE 17.52 100 20.83 102 -0.7 92 -1.9 0 0 974.2 NA 0.0000 9999 3810 0 0 0
2019/06/15 19:49:00 BASE 17.44 102 20.83 102 -0.7 91 -1.9 0 0 974.3 NA 0.0000 9999 5350 0 0 0
2019/06/15 19:50:00 BASE 17.52 102 20.83 102 -0.8 91 -2.0 0 0 974.3 NA 0.0000 9999 5280 0 0 0
2019/06/15 19:51:00 BASE 17.58 104 20.83 102 -0.8 91 -2.1 0 0 974.2 NA 0.0000 9999 5320 0 0 0
2019/06/15 19:52:00 BASE 16.95 104 20.83 102 -0.8 91 -2.1 0 0 974.1 NA 0.0000 9999 5680 0 0 0
2019/06/15 19:53:00 BASE 16.81 107 20.83 102 -0.9 91 -2.1 0 0 974.1 NA 0.0000 9999 5740 0 0 0
2019/06/15 19:54:00 BASE 17.62 113 20.83 102 -0.9 91 -2.2 0 0 974.1 NA 0.0000 9999 4130 0 0 0
2019/06/15 19:55:00 BASE 18.02 114 20.83 102 -0.9 91 -2.2 0 0 974.1 NA 0.0000 9999 3580 0 0 0
2019/06/15 19:56:00 BASE 16.81 109 19.34 113 -0.8 91 -2.1 0 0 974.1 NA 0.0000 9999 5280 0 0 0
2019/06/15 19:57:00 BASE 15.46 102 19.34 113 -0.8 91 -2.1 0 0 974.0 NA 0.0000 9999 3840 0 0 0
2019/06/15 19:58:00 BASE 14.74 102 19.34 113 -0.8 91 -2.1 0 0 974.2 NA 0.0000 9999 4040 0 0 0
2019/06/15 19:59:00 BASE 14.33 105 19.34 113 -0.8 90 -2.2 0 0 974.1 NA 0.0000 9999 4000 0 0 0
2019/06/15 20:00:00 BASE 14.81 110 19.34 113 -0.8 90 -2.2 0 0 974.1 NA 0.0000 9999 4000 0 0 0
2019/06/15 20:01:00 BASE 16.37 122 19.65 126 -0.8 90 -2.2 0 0 974.1 NA 0.0000 9999 3740 0 0 0
2019/06/15 20:02:00 BASE 15.48 131 19.65 126 -0.8 90 -2.2 0 0 973.9 NA 0.0000 9999 3740 4720 0 0
2019/06/15 20:03:00 BASE 13.63 123 19.65 126 -0.8 90 -2.2 0 0 974.0 NA 0.0000 9999 3580 0 0 0
2019/06/15 20:04:00 BASE 12.99 115 19.65 126 -0.7 90 -2.2 0 0 974.0 NA 0.0000 9999 3710 0 0 0
2019/06/15 20:05:00 BASE 12.48 115 19.65 126 -0.7 89 -2.2 0 0 974.1 NA 0.0000 9999 4560 0 0 0
2019/06/15 20:06:00 BASE 12.61 110 19.65 126 -0.7 89 -2.3 0 0 974.1 NA 0.0000 9999 4890 0 0 0
2019/06/15 20:07:00 BASE 12.56 115 19.65 126 -0.7 89 -2.4 0 0 973.9 NA 0.0000 9999 3940 0 0 0
2019/06/15 20:08:00 BASE 11.52 128 19.65 126 -0.7 88 -2.4 0 0 973.7 NA 0.0000 9999 4590 0 0 0
2019/06/15 20:09:00 BASE 11.39 119 19.65 126 -0.7 88 -2.5 0 0 974.0 NA 0.0000 9999 4560 0 0 0
2019/06/15 20:10:00 BASE 12.44 110 19.65 126 -0.8 88 -2.5 0 0 974.0 NA 0.0000 9999 5090 0 0 0
2019/06/15 20:11:00 BASE 12.66 123 15.79 141 -0.8 88 -2.5 0 0 973.9 NA 0.0000 9999 4560 0 0 0
2019/06/15 20:12:00 BASE 12.00 122 14.56 118 -0.8 88 -2.5 0 0 974.0 NA 0.0000 9999 4530 0 0 0
2019/06/15 20:13:00 BASE 11.42 112 13.99 112 -0.8 88 -2.4 0 0 973.9 NA 0.0000 9999 3450 0 0 0
2019/06/15 20:14:00 BASE 10.87 116 13.89 110 -0.8 88 -2.4 0 0 973.7 NA 0.0000 9999 3450 0 0 0
2019/06/15 20:15:00 BASE 10.25 123 13.89 110 -0.7 88 -2.4 0 0 973.7 NA 0.0000 9999 3710 0 0 0
2019/06/15 20:16:00 BASE 11.34 114 14.46 101 -0.7 88 -2.4 0 0 973.9 NA 0.0000 9999 3150 0 0 0
2019/06/15 20:17:00 BASE 11.22 107 14.46 101 -0.7 88 -2.4 0 0 973.8 NA 0.0000 9999 3280 0 0 0
2019/06/15 20:18:00 BASE 9.98 124 14.46 101 -0.7 88 -2.4 0 0 973.5 NA 0.0000 9999 2620 0 0 0
2019/06/15 20:19:00 BASE 10.85 129 14.46 101 -0.7 88 -2.4 0 0 973.5 NA 0.0000 9999 2850 0 0 0
2019/06/15 20:20:00 BASE 11.86 118 14.46 101 -0.7 88 -2.5 0 0 973.7 NA 0.0000 UP 9999 0 0 0 660
2019/06/15 20:21:00 BASE 11.78 112 14.46 101 -0.7 88 -2.4 0 0 973.8 NA 0.0000 UP 9999 2990 0 0 0
2019/06/15 20:22:00 BASE 10.35 105 14.46 101 -0.7 88 -2.4 0 0 973.7 NA 0.0000 UP 9999 4560 0 0 0
2019/06/15 20:23:00 BASE 8.33 102 14.46 101 -0.7 88 -2.4 0 0 973.7 NA 0.0000 UP 9999 3480 0 0 0
2019/06/15 20:24:00 BASE 7.50 116 14.46 101 -0.7 88 -2.4 0 0 973.6 NA 0.0000 UP 9999 4490 0 0 0
2019/06/15 20:25:00 BASE 9.43 132 14.46 101 -0.7 88 -2.3 0 0 973.7 NA 0.0000 UP 9999 3900 0 0 0
2019/06/15 20:26:00 BASE 9.98 136 13.79 136 -0.6 88 -2.3 0 0 973.7 NA 0.0000 UP 9999 1250 0 0 0
2019/06/15 20:27:00 BASE 8.03 133 13.79 136 -0.6 88 -2.4 0 0 973.8 NA 0.0000 UP 9999 3450 0 0 0
2019/06/15 20:28:00 BASE 7.37 137 13.79 136 -0.6 88 -2.4 0 0 973.7 NA 0.0000 UP 9999 5280 0 0 0
2019/06/15 20:29:00 BASE 7.09 139 13.79 136 -0.6 88 -2.4 0 0 973.7 NA 0.0000 UP 9999 5020 0 0 0
2019/06/15 20:30:00 BASE 7.01 128 13.79 136 -0.6 87 -2.4 0 0 973.8 NA 0.0000 UP 9999 4070 0 0 0
2019/06/15 20:31:00 BASE 8.14 124 13.79 136 -0.6 87 -2.4 0 0 973.9 NA 0.0000 UP 8000 3810 0 0 0
2019/06/15 20:32:00 BASE 8.73 129 13.79 136 -0.6 87 -2.4 0 0 973.9 NA 0.0000 UP 5000 0 0 0 1120
2019/06/15 20:33:00 BASE 7.43 124 13.79 136 -0.6 88 -2.4 0 0 973.9 NA 0.0000 -SN 5000 3580 0 0 0
2019/06/15 20:34:00 BASE 6.54 114 13.79 136 -0.6 88 -2.4 0 0 973.9 NA 0.0000 -SN BR 8000 2950 0 0 0
2019/06/15 20:35:00 BASE 7.46 114 10.08 130 -0.7 89 -2.3 0 0 974.0 NA 0.0000 -SN BR 9999 820 0 0 0
2019/06/15 20:36:00 BASE 8.23 121 10.08 130 -0.7 89 -2.2 0 0 974.0 NA 0.0000 -SN BR 9999 2430 0 0 0
2019/06/15 20:37:00 BASE 7.95 129 10.08 130 -0.7 90 -2.1 0 0 973.9 NA 0.0000 -SN BR 8000 1310 0 0 0
2019/06/15 20:38:00 BASE 8.38 136 10.08 130 -0.6 90 -2.1 0 0 973.9 NA 0.0000 -SN BR 8000 0 0 0 4130
2019/06/15 20:39:00 BASE 8.85 142 10.08 130 -0.7 91 -2.0 0 0 973.8 NA 0.0000 -SN BR 8000 0 0 0 4130
2019/06/15 20:40:00 BASE 8.71 144 10.08 130 -0.7 91 -2.0 0 0 973.8 NA 0.0000 -SN BR 9999 0 0 0 4070
2019/06/15 20:41:00 BASE 8.94 137 9.98 146 -0.7 91 -1.9 0 0 973.8 NA 0.0000 -SN BR 9999 460 0 0 0
2019/06/15 20:42:00 BASE 8.84 134 9.98 146 -0.7 92 -1.9 0 0 973.8 NA 0.0000 -SN BR 9999 0 0 0 4530
2019/06/15 20:43:00 BASE 8.27 139 10.24 134 -0.8 92 -1.9 0 0 973.7 NA 0.0000 -SN BR 9999 0 0 0 4100
2019/06/15 20:44:00 BASE 8.63 135 10.49 140 -0.8 93 -1.8 0 0 973.9 NA 0.0000 -SN BR 7000 0 0 0 4130
2019/06/15 20:45:00 BASE 9.47 124 10.65 120 -0.8 93 -1.7 0 0 974.0 NA 0.0000 -SN BR 5000 0 0 0 4130
2019/06/15 20:46:00 BASE 10.14 119 11.57 124 -0.8 94 -1.7 0 0 974.0 NA 0.0000 -SN BR 5000 0 0 0 4000
2019/06/15 20:47:00 BASE 10.65 124 11.57 124 -0.8 95 -1.6 0 0 974.0 NA 0.0000 -SN BR 9000 0 0 0 4000
2019/06/15 20:48:00 BASE 10.52 130 11.57 124 -0.8 95 -1.5 0 0 974.0 NA 0.0000 -SN BR 8000 2200 0 0 0
2019/06/15 20:49:00 BASE 10.61 142 11.57 124 -0.9 96 -1.4 0 0 973.8 NA 0.0000 -SN BR 7000 0 0 0 3810
2019/06/15 20:50:00 BASE 10.63 150 11.57 124 -0.9 97 -1.4 0 0 973.8 NA 0.0000 -SN BR 7000 2690 0 0 0
2019/06/15 20:51:00 BASE 9.37 148 11.57 124 -0.9 98 -1.3 0 0 973.9 NA 0.0000 -SN BR 7000 2660 0 0 0
2019/06/15 20:52:00 BASE 8.20 137 11.57 124 -1.0 98 -1.2 0 0 974.1 NA 0.0000 -SN BR 9000 2620 0 0 0
2019/06/15 20:53:00 BASE 7.87 133 11.57 124 -1.0 99 -1.1 0 0 974.0 NA 0.0000 -SN BR 9000 2760 0 0 0
2019/06/15 20:54:00 BASE 8.58 143 11.57 124 -1.0 99 -1.1 0 0 973.9 NA 0.0000 -SN BR 7000 0 0 0 3670
2019/06/15 20:55:00 BASE 9.36 154 11.57 124 -1.0 100 -1.1 0 0 973.8 NA 0.0000 -SN BR 8000 2200 0 0 0
2019/06/15 20:56:00 BASE 9.48 154 11.52 144 -1.1 100 -1.1 0 0 973.8 NA 0.0000 -SN BR 9000 0 0 0 3940
2019/06/15 20:57:00 BASE 9.77 146 11.52 144 -1.1 100 -1.1 0 0 974.0 NA 0.0000 -SN BR 8000 3480 0 0 0
2019/06/15 20:58:00 BASE 9.75 143 11.52 144 -1.1 100 -1.1 0 0 973.9 NA 0.0000 -SN BR 8000 3450 0 0 0
2019/06/15 20:59:00 BASE 9.62 144 11.16 150 -1.1 100 -1.1 0 0 973.8 NA 0.0000 -SN BR 7000 2300 0 0 0
2019/06/15 21:00:00 BASE 10.26 140 12.91 133 -1.1 100 -1.1 0 0 973.9 NA 0.0000 -SN BR 6000 2200 0 0 0
2019/06/15 21:01:00 BASE 10.21 129 12.91 133 -1.1 100 -1.1 0 0 973.9 NA 0.0000 -SN BR 6000 2690 0 0 0
2019/06/15 21:02:00 BASE 10.20 122 12.91 133 -1.1 100 -1.1 0 0 974.0 NA 0.0000 -SN BR 6000 2560 0 0 0
2019/06/15 21:03:00 BASE 10.82 122 12.91 133 -1.1 100 -1.1 0 0 974.0 NA 0.0000 -SN BR 4300 2030 0 0 0
2019/06/15 21:04:00 BASE 10.42 129 12.91 133 -1.1 100 -1.1 0 0 974.0 NA 0.0000 -SN BR 3600 0 0 0 3280
2019/06/15 21:05:00 BASE 10.87 142 12.91 150 -1.1 100 -1.1 0 0 973.8 NA 0.0000 -SN BR 3100 0 0 0 3410
2019/06/15 21:06:00 BASE 12.31 151 14.35 152 -1.1 100 -1.1 0 0 973.7 NA 0.0000 -SN BR 2000 300 0 0 0
2019/06/15 21:07:00 BASE 12.49 154 14.35 152 -1.1 100 -1.1 0 0 973.6 NA 0.0000 -SN BR 1000 0 0 0 2950
2019/06/15 21:08:00 BASE 11.55 153 14.35 152 -1.2 100 -1.2 0 0 973.7 NA 0.0000 -SN BR 0900 330 0 0 0
2019/06/15 21:09:00 BASE 10.30 150 14.35 152 -1.2 100 -1.2 0 0 973.7 NA 0.0000 -SN BR 1300 0 0 0 2850
2019/06/15 21:10:00 BASE 9.73 145 14.35 152 -1.2 100 -1.2 0 0 973.8 NA 0.0000 -SN BR 1300 0 0 0 3020
2019/06/15 21:11:00 BASE 10.16 138 14.35 152 -1.2 100 -1.2 0 0 973.9 NA 0.0000 -SN BR 1500 0 0 0 3180
2019/06/15 21:12:00 BASE 10.28 131 14.35 152 -1.2 100 -1.2 0 0 974.0 NA 0.0000 -SN BR 1500 330 0 0 0
2019/06/15 21:13:00 BASE 9.13 132 14.35 152 -1.3 100 -1.3 0 0 974.0 NA 0.0000 -SN BR 2100 330 0 0 0
2019/06/15 21:14:00 BASE 7.57 135 14.35 152 -1.3 100 -1.3 0 0 973.9 NA 0.0000 -SN BR 3400 0 0 0 2530
2019/06/15 21:15:00 BASE 7.31 136 14.35 152 -1.3 100 -1.3 0 0 973.9 NA 0.0000 -SN BR 3000 0 0 0 2590
2019/06/15 21:16:00 BASE 8.22 131 12.71 155 -1.3 100 -1.3 0 0 974.0 NA 0.0000 -SN BR 3100 0 0 0 3020
2019/06/15 21:17:00 BASE 8.60 127 12.40 153 -1.3 100 -1.3 0 0 974.0 NA 0.0000 -SN BR 3100 260 0 0 0
2019/06/15 21:18:00 BASE 8.09 129 11.47 132 -1.3 100 -1.3 0 0 973.9 NA 0.0000 -SN BR 2100 0 0 0 2530
2019/06/15 21:19:00 BASE 7.82 130 11.47 132 -1.3 100 -1.3 0 0 973.9 NA 0.0000 -SN BR 2000 230 0 0 0
2019/06/15 21:20:00 BASE 7.80 127 11.47 132 -1.4 100 -1.4 0 0 973.9 NA 0.0000 -SN BR 3500 0 0 0 2530
2019/06/15 21:21:00 BASE 7.69 121 11.11 128 -1.4 100 -1.4 0 0 973.9 NA 0.0000 -SN BR 3400 0 0 0 2490
2019/06/15 21:22:00 BASE 8.01 118 9.67 127 -1.4 100 -1.4 0 0 973.9 NA 0.0000 -SN BR 3200 0 0 0 2660
2019/06/15 21:23:00 BASE 8.41 122 9.67 134 -1.4 100 -1.4 0 0 973.8 NA 0.0000 -SN BR 2500 0 0 0 2890
2019/06/15 21:24:00 BASE 9.04 135 10.60 147 -1.4 100 -1.4 0 0 973.8 NA 0.0000 -SN BR 1900 0 0 0 2660
2019/06/15 21:25:00 BASE 9.98 144 10.85 147 -1.4 100 -1.4 0 0 973.8 NA 0.0000 -SN BR 1600 300 0 0 0
2019/06/15 21:26:00 BASE 9.31 140 10.85 147 -1.4 100 -1.4 0 0 973.8 NA 0.0000 -SN BR 1500 300 0 0 0
2019/06/15 21:27:00 BASE 7.20 135 10.85 147 -1.4 100 -1.4 0 0 973.7 NA 0.0000 -SN BR 2200 330 0 0 0
2019/06/15 21:28:00 BASE 6.68 131 10.85 147 -1.4 100 -1.4 0 0 973.7 NA 0.0000 -SN BR 3800 0 0 0 2360
2019/06/15 21:29:00 BASE 8.46 129 10.85 147 -1.4 100 -1.4 0 0 973.7 NA 0.0000 -SN BR 3500 0 0 0 2430
2019/06/15 21:30:00 BASE 9.20 125 10.85 147 -1.4 100 -1.4 0 0 973.7 NA 0.0000 -SN BR 3300 0 0 0 2200
2019/06/15 21:31:00 BASE 8.86 118 10.85 147 -1.4 100 -1.4 0 0 973.8 NA 0.0000 -SN BR 3000 0 0 0 2170
2019/06/15 21:32:00 BASE 9.63 112 11.27 107 -1.4 100 -1.4 0 0 973.8 NA 0.0000 -SN BR 2800 0 0 0 2260
2019/06/15 21:33:00 BASE 10.17 111 11.27 115 -1.4 100 -1.4 0 0 973.8 NA 0.0000 -SN BR 3000 0 0 0 2130
2019/06/15 21:34:00 BASE 10.28 118 11.32 121 -1.4 100 -1.4 0 0 973.7 NA 0.0000 -SN BR 3300 230 0 0 0
2019/06/15 21:35:00 BASE 10.31 130 11.32 121 -1.4 100 -1.4 0 0 973.6 NA 0.0000 -SN BR 3400 0 0 0 2170
2019/06/15 21:36:00 BASE 9.91 141 11.32 121 -1.4 100 -1.4 0 0 973.5 NA 0.0000 -SN BR 3200 0 0 0 2260
2019/06/15 21:37:00 BASE 10.07 140 11.32 121 -1.4 100 -1.4 0 0 973.6 NA 0.0000 -SN BR 3000 0 0 0 2170
2019/06/15 21:38:00 BASE 10.88 138 12.86 143 -1.4 100 -1.4 0 0 973.6 NA 0.0000 -SN BR 2800 0 0 0 1640
2019/06/15 21:39:00 BASE 11.61 142 12.91 137 -1.4 100 -1.4 0 0 973.5 NA 0.0000 -SN BR 1400 0 0 0 1250
2019/06/15 21:40:00 BASE 11.70 144 12.91 137 -1.4 100 -1.4 0 0 973.5 NA 0.0000 -SN BR 0700 0 0 0 1310
2019/06/15 21:41:00 BASE 11.32 144 12.91 137 -1.4 100 -1.4 0 0 973.6 NA 0.0000 -SN BR 0800 0 0 0 2200
2019/06/15 21:42:00 BASE 11.33 138 13.38 139 -1.4 100 -1.4 0 0 973.7 NA 0.0000 -SN BR 2100 0 0 0 2330
2019/06/15 21:43:00 BASE 11.04 125 13.38 139 -1.4 100 -1.4 0 0 973.7 NA 0.0000 -SN BR 2200 0 0 0 2100
2019/06/15 21:44:00 BASE 10.45 116 13.38 139 -1.4 100 -1.4 0 0 973.7 NA 0.0000 -SN BR 1400 0 0 0 1180
2019/06/15 21:45:00 BASE 10.13 121 13.38 139 -1.4 100 -1.4 0 0 973.7 NA 0.0000 -SN BR 1200 0 0 0 1020
2019/06/15 21:46:00 BASE 9.74 136 13.38 139 -1.4 100 -1.4 0 0 973.5 NA 0.0000 -SN BR 1900 0 0 0 1250
2019/06/15 21:47:00 BASE 10.08 151 13.38 139 -1.4 100 -1.4 0 0 973.3 NA 0.0000 -SN BR 1200 0 0 0 2300
2019/06/15 21:48:00 BASE 10.61 156 13.38 139 -1.4 100 -1.4 0 0 973.4 NA 0.0000 -SN BR 0750 0 0 0 1540
2019/06/15 21:49:00 BASE 8.86 148 13.38 139 -1.4 100 -1.4 0 0 973.5 NA 0.0000 -SN BR 0700 0 0 0 2260
2019/06/15 21:50:00 BASE 6.79 126 13.38 139 -1.4 100 -1.4 0 0 973.6 NA 0.0000 -SN BR 1100 0 0 0 2300
2019/06/15 21:51:00 BASE 6.97 121 13.38 139 -1.4 100 -1.4 0 0 973.6 NA 0.0000 -SN BR 2600 0 0 0 2000
2019/06/15 21:52:00 BASE 7.18 137 12.09 117 -1.4 100 -1.4 0 0 973.5 NA 0.0000 -SN BR 2700 0 0 0 2300
2019/06/15 21:53:00 BASE 6.04 141 11.99 150 -1.4 100 -1.4 0 0 973.5 NA 0.0000 -SN BR 1900 0 0 0 2170
2019/06/15 21:54:00 BASE 4.30 130 11.99 150 -1.4 100 -1.4 0 0 973.4 NA 0.0000 -SN BR 1600 0 0 0 2130
2019/06/15 21:55:00 BASE 3.85 105 11.99 150 -1.4 100 -1.4 0 0 973.5 NA 0.2540 -SN BR 3300 0 0 0 2260
2019/06/15 21:56:00 BASE 5.30 92 11.99 150 -1.4 100 -1.4 0 0 973.5 NA 0.0000 -SN BR 3400 0 0 0 2260
2019/06/15 21:57:00 BASE 6.65 105 11.99 150 -1.4 100 -1.4 0 0 973.4 NA 0.0000 -SN BR 3400 0 0 0 2430
2019/06/15 21:58:00 BASE 6.81 119 9.36 95 -1.3 100 -1.3 0 0 973.4 NA 0.0000 -SN BR 3400 0 0 0 2330
2019/06/15 21:59:00 BASE 7.47 136 10.08 154 -1.3 100 -1.3 0 0 973.4 NA 0.0000 -SN BR 2200 230 0 0 0
2019/06/15 22:00:00 BASE 9.49 150 11.68 148 -1.3 100 -1.3 0 0 973.3 NA 0.0000 -SN BR 1400 260 0 0 0
2019/06/15 22:01:00 BASE 10.56 149 11.68 148 -1.3 100 -1.3 0 0 973.4 NA 0.0000 -SN BR 1500 360 0 0 0
2019/06/15 22:02:00 BASE 9.46 147 11.68 148 -1.3 100 -1.3 0 0 973.4 NA 0.0000 -SN BR 1800 360 0 0 0
2019/06/15 22:03:00 BASE 8.15 139 11.68 148 -1.3 100 -1.3 0 0 973.5 NA 0.0000 -SN BR 2400 300 0 0 0
2019/06/15 22:04:00 BASE 8.04 123 11.68 148 -1.3 100 -1.3 0 0 973.5 NA 0.0000 -SN BR 5000 0 0 0 3410
2019/06/15 22:05:00 BASE 7.73 117 11.68 148 -1.3 100 -1.3 0 0 973.5 NA 0.0000 -SN BR 5000 360 1940 0 0
2019/06/15 22:06:00 BASE 7.14 112 11.68 148 -1.3 100 -1.3 0 0 973.5 NA 0.0000 -SN BR 5000 360 1940 0 0
2019/06/15 22:07:00 BASE 8.10 101 11.68 148 -1.2 100 -1.2 0 0 973.6 NA 0.0000 -SN BR 5000 360 0 0 0
2019/06/15 22:08:00 BASE 8.51 99 11.68 148 -1.2 100 -1.2 0 0 973.6 NA 0.0000 -SN BR 5000 360 0 0 0
2019/06/15 22:09:00 BASE 7.29 110 11.68 148 -1.2 100 -1.2 0 0 973.5 NA 0.0000 -SN BR 5000 360 0 0 0
2019/06/15 22:10:00 BASE 7.13 121 11.37 149 -1.2 100 -1.2 0 0 973.5 NA 0.0000 -SN BR 8000 0 0 0 3480
2019/06/15 22:11:00 BASE 8.26 119 9.88 112 -1.2 100 -1.2 0 0 973.6 NA 0.0000 -SN BR 8000 330 0 0 0
2019/06/15 22:12:00 BASE 8.53 114 9.88 112 -1.2 100 -1.2 0 0 973.6 NA 0.0000 -SN BR 7000 300 0 0 0
2019/06/15 22:13:00 BASE 8.00 119 9.88 112 -1.2 100 -1.2 0 0 973.6 NA 0.0000 -SN BR 6000 300 0 0 0
2019/06/15 22:14:00 BASE 7.70 126 9.88 112 -1.2 100 -1.2 0 0 973.5 NA 0.0000 -SN BR 3000 300 0 0 0
2019/06/15 22:15:00 BASE 8.02 138 9.88 112 -1.2 100 -1.2 0 0 973.4 NA 0.0000 -SN BR 1800 260 2030 0 0
2019/06/15 22:16:00 BASE 8.59 149 9.88 112 -1.2 100 -1.2 0 0 973.4 NA 0.0000 -SN BR 1700 260 0 0 0
2019/06/15 22:17:00 BASE 8.14 147 9.88 112 -1.2 100 -1.2 0 0 973.4 NA 0.0000 -SN BR 2500 330 0 0 0
2019/06/15 22:18:00 BASE 7.28 141 9.88 112 -1.2 100 -1.2 0 0 973.5 NA 0.0000 -SN BR 7000 330 0 0 0
2019/06/15 22:19:00 BASE 5.99 139 9.88 112 -1.2 100 -1.2 0 0 973.5 NA 0.0000 -SN BR 8000 330 0 0 0
2019/06/15 22:20:00 BASE 5.65 127 9.88 112 -1.2 100 -1.2 0 0 973.4 NA 0.0000 -SN BR 8000 300 0 0 0
2019/06/15 22:21:00 BASE 6.71 97 9.41 150 -1.2 100 -1.2 0 0 973.4 NA 0.0000 -SN BR 8000 330 0 0 0
2019/06/15 22:22:00 BASE 7.97 97 9.77 115 -1.2 100 -1.2 0 0 973.4 NA 0.0000 -SN BR 8000 330 0 0 0
2019/06/15 22:23:00 BASE 9.57 119 11.68 125 -1.2 100 -1.2 0 0 973.4 NA 0.0000 -SN BR 9999 360 0 0 0
2019/06/15 22:24:00 BASE 10.25 128 11.68 125 -1.2 100 -1.2 0 0 973.4 NA 0.0000 -SN BR 9999 360 0 0 0
2019/06/15 22:25:00 BASE 9.20 132 11.68 125 -1.2 100 -1.2 0 0 973.3 NA 0.0000 -SN BR 9999 0 0 0 2950
2019/06/15 22:26:00 BASE 7.54 137 11.68 125 -1.2 100 -1.2 0 0 973.3 NA 0.0000 -SN BR 9999 390 0 0 0
2019/06/15 22:27:00 BASE 6.58 136 11.68 125 -1.2 100 -1.2 0 0 973.4 NA 0.0000 -SN BR 8000 360 0 0 0
2019/06/15 22:28:00 BASE 6.66 121 11.68 125 -1.2 100 -1.2 0 0 973.4 NA 0.0000 -SN BR 5000 300 0 0 0
2019/06/15 22:29:00 BASE 7.02 109 11.68 125 -1.2 100 -1.2 0 0 973.5 NA 0.0000 -SN BR 5000 330 1940 0 0
2019/06/15 22:30:00 BASE 6.72 111 11.68 125 -1.2 100 -1.2 0 0 973.5 NA 0.0000 -SN BR 4800 300 0 0 0
2019/06/15 22:31:00 BASE 5.91 108 11.68 125 -1.2 100 -1.2 0 0 973.5 NA 0.0000 -SN BR 4500 300 0 0 0
2019/06/15 22:32:00 BASE 5.76 104 11.68 125 -1.2 100 -1.2 0 0 973.5 NA 0.0000 -SN BR 4400 260 0 0 0
2019/06/15 22:33:00 BASE 6.26 108 10.85 131 -1.2 100 -1.2 0 0 973.4 NA 0.0000 -SN BR 4500 260 0 0 0
2019/06/15 22:34:00 BASE 6.35 112 9.41 130 -1.3 100 -1.3 0 0 973.4 NA 0.0000 -SN BR 2900 0 0 0 2300
2019/06/15 22:35:00 BASE 6.03 112 7.87 110 -1.3 100 -1.3 0 0 973.4 NA 0.0000 -SN BR 2400 230 1740 0 0
2019/06/15 22:36:00 BASE 5.32 116 7.87 110 -1.3 100 -1.3 0 0 973.4 NA 0.0000 -SN BR 3400 230 0 0 0
2019/06/15 22:37:00 BASE 4.80 121 7.87 110 -1.3 100 -1.3 0 0 973.3 NA 0.0000 -SN BR 3100 230 0 0 0
2019/06/15 22:38:00 BASE 5.73 120 8.13 119 -1.3 100 -1.3 0 0 973.3 NA 0.0000 -SN BR 2900 260 0 0 0
2019/06/15 22:39:00 BASE 6.50 109 8.13 119 -1.2 100 -1.2 0 0 973.3 NA 0.0000 -SN BR 2700 1480 0 0 0
2019/06/15 22:40:00 BASE 5.97 100 8.13 119 -1.2 100 -1.2 0 0 973.3 NA 0.0000 -SN BR 2800 0 0 0 2130
2019/06/15 22:41:00 BASE 5.31 106 8.13 119 -1.1 100 -1.1 0 0 973.3 NA 0.0000 -SN BR 2700 0 0 0 1940
2019/06/15 22:42:00 BASE 4.86 123 8.13 119 -1.0 100 -1.0 0 0 973.3 NA 0.0000 -SN BR 2700 0 0 0 1770
2019/06/15 22:43:00 BASE 4.61 135 8.13 119 -1.0 100 -1.0 0 0 973.4 NA 0.0000 -SN BR 2600 0 0 0 1710
2019/06/15 22:44:00 BASE 4.29 136 8.13 119 -1.0 100 -1.0 0 0 973.4 NA 0.0000 -SN BR 2500 0 0 0 1540
2019/06/15 22:45:00 BASE 4.24 132 8.13 119 -1.0 100 -1.0 0 0 973.4 NA 0.0000 -SN BR 2500 0 0 0 1410
2019/06/15 22:46:00 BASE 4.68 134 8.13 119 -1.1 100 -1.1 0 0 973.4 NA 0.0000 -SN BR 2200 0 0 0 1050
2019/06/15 22:47:00 BASE 5.21 144 8.13 119 -1.1 100 -1.1 0 0 973.4 NA 0.0000 -SN BR 1900 0 0 0 1020
2019/06/15 22:48:00 BASE 5.40 146 6.79 101 -1.2 100 -1.2 0 0 973.3 NA 0.0000 -SN BR 1400 0 0 0 850
2019/06/15 22:49:00 BASE 5.43 142 6.58 141 -1.2 100 -1.2 0 0 973.3 NA 0.0000 -SN BR 1000 0 0 0 820
2019/06/15 22:50:00 BASE 5.73 139 6.58 141 -1.3 100 -1.3 0 0 973.3 NA 0.0000 -SN BR 0800 0 0 0 820
2019/06/15 22:51:00 BASE 5.71 141 6.58 141 -1.3 100 -1.3 0 0 973.2 NA 0.0000 -SN BR 0900 0 0 0 890
2019/06/15 22:52:00 BASE 5.40 148 7.25 151 -1.3 100 -1.3 0 0 973.2 NA 0.0000 -SN BR 0900 0 0 0 850
2019/06/15 22:53:00 BASE 6.26 152 7.92 152 -1.3 100 -1.3 0 0 973.2 NA 0.0000 -SN BR 0900 0 0 0 790
2019/06/15 22:54:00 BASE 6.53 147 7.92 152 -1.3 100 -1.3 0 0 973.3 NA 0.0000 -SN BR 0800 0 0 0 720
2019/06/15 22:55:00 BASE 4.96 145 7.92 152 -1.3 100 -1.3 0 0 973.3 NA 0.0000 +SN BR 0700 0 0 0 660
2019/06/15 22:56:00 BASE 3.55 143 7.92 152 -1.3 100 -1.3 0 0 973.3 NA 0.0000 +SN BR 0750 0 0 0 660
2019/06/15 22:57:00 BASE 2.53 127 7.92 152 -1.3 100 -1.3 0 0 973.4 NA 0.0000 SN FZFG 0800 0 0 0 720
2019/06/15 22:58:00 BASE 2.07 112 7.92 152 -1.3 100 -1.3 0 0 973.4 NA 0.0000 SN FZFG 0800 0 0 0 720
2019/06/15 22:59:00 BASE 3.05 118 7.92 152 -1.3 100 -1.3 0 0 973.4 NA 0.0000 SN FZFG 0750 0 0 0 720
2019/06/15 23:00:00 BASE 5.16 132 7.92 152 -1.2 100 -1.2 0 0 973.4 NA 0.0000 SN FZFG 0700 0 0 0 750
2019/06/15 23:01:00 BASE 7.07 147 8.54 162 -1.2 100 -1.2 0 0 973.2 NA 0.0000 SN FZFG 0700 0 0 0 750
2019/06/15 23:02:00 BASE 7.74 166 8.54 162 -1.2 100 -1.2 0 0 973.2 NA 0.0000 SN FZFG 0800 0 0 0 750
2019/06/15 23:03:00 BASE 6.63 177 8.54 162 -1.2 100 -1.2 0 0 973.2 NA 0.0000 SN FZFG 1000 0 0 0 1640
2019/06/15 23:04:00 BASE 5.88 176 8.54 162 -1.2 100 -1.2 0 0 973.3 NA 0.0000 SN FZFG 1100 0 0 0 1610
2019/06/15 23:05:00 BASE 5.75 168 8.54 162 -1.2 100 -1.2 0 0 973.3 NA 0.0000 SN FZFG 1500 0 0 0 2000
2019/06/15 23:06:00 BASE 5.44 154 8.54 162 -1.2 100 -1.2 0 0 973.3 NA 0.0000 +SN BR 2600 300 0 0 0
2019/06/15 23:07:00 BASE 5.16 128 8.54 162 -1.2 100 -1.2 0 0 973.4 NA 0.0000 SN BR 3000 300 0 0 0
2019/06/15 23:08:00 BASE 4.67 112 8.54 162 -1.2 100 -1.2 0 0 973.4 NA 0.0000 -SN BR 3400 300 0 0 0
2019/06/15 23:09:00 BASE 5.25 132 8.54 162 -1.2 100 -1.2 0 0 973.3 NA 0.0000 -SN BR 3100 300 0 0 0
2019/06/15 23:10:00 BASE 5.60 153 8.54 162 -1.2 100 -1.2 0 0 973.4 NA 0.0000 -SN BR 3100 300 1670 0 0
2019/06/15 23:11:00 BASE 5.92 138 8.49 171 -1.2 100 -1.2 0 0 973.4 NA 0.0000 -SN BR 3700 330 1900 0 0
2019/06/15 23:12:00 BASE 6.91 124 8.64 119 -1.1 100 -1.1 0 0 973.5 NA 0.0000 -SN BR 3900 360 0 0 0
2019/06/15 23:13:00 BASE 6.69 128 8.64 119 -1.1 100 -1.1 0 0 973.4 NA 0.0000 -SN BR 4000 330 0 0 0
2019/06/15 23:14:00 BASE 6.39 131 8.64 119 -1.1 100 -1.1 0 0 973.4 NA 0.0000 -SN BR 4200 330 0 0 0
2019/06/15 23:15:00 BASE 7.53 125 9.83 121 -1.1 100 -1.1 0 0 973.4 NA 0.0000 -SN BR 3900 330 0 0 0
2019/06/15 23:16:00 BASE 8.78 117 9.88 110 -1.1 100 -1.1 0 0 973.4 NA 0.0000 -SN BR 2600 330 0 0 0
2019/06/15 23:17:00 BASE 9.29 108 9.88 110 -1.1 100 -1.1 0 0 973.4 NA 0.0000 -SN BR 2400 260 0 0 0
2019/06/15 23:18:00 BASE 8.88 102 9.88 110 -1.1 100 -1.1 0 0 973.5 NA 0.0000 -SN BR 2400 260 0 0 0
2019/06/15 23:19:00 BASE 7.65 108 9.88 110 -1.1 100 -1.1 0 0 973.5 NA 0.0000 -SN BR 1700 0 0 0 2850
2019/06/15 23:20:00 BASE 7.41 115 9.88 110 -1.1 100 -1.1 0 0 973.5 NA 0.0000 -SN BR 2300 200 0 0 0
2019/06/15 23:21:00 BASE 8.61 117 9.88 113 -1.1 100 -1.1 0 0 973.4 NA 0.0000 -SN BR 3600 0 0 0 2300
2019/06/15 23:22:00 BASE 8.80 119 9.88 113 -1.1 100 -1.1 0 0 973.4 NA 0.0000 -SN BR 3500 0 0 0 2260
2019/06/15 23:23:00 BASE 8.18 129 10.44 137 -1.1 100 -1.1 0 0 973.4 NA 0.0000 -SN BR 2200 0 0 0 2230
2019/06/15 23:24:00 BASE 8.75 129 11.37 119 -1.1 100 -1.1 0 0 973.4 NA 0.0000 -SN BR 1500 0 0 0 2260
2019/06/15 23:25:00 BASE 9.75 119 11.52 103 -1.0 100 -1.0 0 0 973.4 NA 0.0000 -SN BR 1500 0 0 0 2300
2019/06/15 23:26:00 BASE 8.91 122 11.52 103 -0.9 100 -0.9 0 0 973.3 NA 0.0000 -SN BR 1900 0 0 0 2000
2019/06/15 23:27:00 BASE 9.12 123 11.52 103 -0.9 100 -0.9 0 0 973.4 NA 0.0000 -SN BR 2200 230 0 0 0
2019/06/15 23:28:00 BASE 9.66 114 11.52 103 -0.8 100 -0.8 0 0 973.3 NA 0.0000 -SN BR 1900 230 0 0 0
2019/06/15 23:29:00 BASE 8.22 99 11.52 103 -0.7 100 -0.7 0 0 973.3 NA 0.0000 -SN BR 3500 260 0 0 0
2019/06/15 23:30:00 BASE 6.10 93 11.52 103 -0.6 100 -0.6 0 0 973.3 NA 0.0000 -SN BR 3500 230 0 0 0
2019/06/15 23:31:00 BASE 7.26 126 12.14 156 -0.6 100 -0.6 0 0 973.3 NA 0.0000 -SN BR 3600 230 0 0 0
2019/06/15 23:32:00 BASE 9.93 150 12.19 158 -0.6 100 -0.6 0 0 973.3 NA 0.0000 -SN BR 2400 0 0 0 2990
2019/06/15 23:33:00 BASE 8.46 156 12.19 158 -0.6 100 -0.6 0 0 973.3 NA 0.0000 -SN BR 1700 330 0 0 0
2019/06/15 23:34:00 BASE 6.71 160 12.19 158 -0.7 100 -0.7 0 0 973.3 NA 0.0000 -SN BR 2500 300 0 0 0
2019/06/15 23:35:00 BASE 6.94 164 12.19 158 -0.9 100 -0.9 0 0 973.4 NA 0.0000 -SN BR 2600 300 0 0 0
2019/06/15 23:36:00 BASE 6.72 173 12.19 158 -0.9 100 -0.9 0 0 973.4 NA 0.0000 -SN BR 1700 300 0 0 0
2019/06/15 23:37:00 BASE 5.19 174 12.19 158 -1.0 100 -1.0 0 0 973.4 NA 0.0000 -SN BR 2400 0 0 0 2890
2019/06/15 23:38:00 BASE 4.42 163 12.19 158 -1.0 100 -1.0 0 0 973.4 NA 0.0000 -SN BR 4800 330 0 0 0
2019/06/15 23:39:00 BASE 4.74 161 12.19 158 -1.0 100 -1.0 0 0 973.3 NA 0.0000 -SN BR 3000 330 0 0 0
2019/06/15 23:40:00 BASE 5.17 175 12.19 158 -1.1 100 -1.1 0 0 973.3 NA 0.0000 -SN BR 2600 330 0 0 0
2019/06/15 23:41:00 BASE 4.10 170 12.19 158 -1.1 100 -1.1 0 0 973.4 NA 0.0000 -SN BR 5000 330 0 0 0
2019/06/15 23:42:00 BASE 2.33 165 9.05 158 -1.1 100 -1.1 0 0 973.5 NA 0.0000 -SN BR 5000 360 0 0 0
2019/06/15 23:43:00 BASE 2.84 161 7.92 174 -1.1 100 -1.1 0 0 973.5 NA 0.0000 -SN BR 6000 360 0 0 0
2019/06/15 23:44:00 BASE 3.77 155 7.92 174 -1.1 100 -1.1 0 0 973.5 NA 0.0000 -SN BR 5000 330 1310 0 0
2019/06/15 23:45:01 BASE 3.17 135 6.84 183 -1.0 100 -1.0 0 0 973.5 NA 0.0000 -SN BR 4500 0 0 0 2990
2019/06/15 23:46:00 BASE 4.27 103 7.61 98 -1.0 100 -1.0 0 0 973.6 NA 0.0000 -SN BR 5000 360 0 0 0
2019/06/15 23:47:00 BASE 6.06 101 7.61 98 -0.9 100 -0.9 0 0 973.6 NA 0.0000 -SN BR 6000 1570 0 0 0
2019/06/15 23:48:00 BASE 5.67 108 7.61 98 -0.9 100 -0.9 0 0 973.7 NA 0.0000 -SN BR 5000 1480 0 0 0
2019/06/15 23:49:00 BASE 4.42 109 7.61 98 -0.9 100 -0.9 0 0 973.6 NA 0.0000 -SN BR 6000 0 0 0 3080
2019/06/15 23:50:00 BASE 3.36 120 7.61 98 -0.9 100 -0.9 0 0 973.6 NA 0.0000 -SN BR 9999 0 0 0 3220
2019/06/15 23:51:00 BASE 3.75 127 7.61 98 -0.9 100 -0.9 0 0 973.6 NA 0.0000 -SN BR 9999 390 0 0 0
2019/06/15 23:52:00 BASE 4.73 121 7.61 98 -0.9 100 -0.9 0 0 973.6 NA 0.0000 -SN BR 5000 0 0 0 2620
2019/06/15 23:53:00 BASE 4.91 115 7.61 98 -0.9 100 -0.9 0 0 973.5 NA 0.0000 -SN BR 3500 330 0 0 0
2019/06/15 23:54:00 BASE 4.73 100 7.61 98 -0.9 100 -0.9 0 0 973.5 NA 0.0000 -SN BR 3400 0 0 0 2490
2019/06/15 23:55:00 BASE 4.40 40 7.61 98 -0.8 100 -0.8 0 0 973.5 NA 0.0000 -SN BR 4200 300 0 0 0
2019/06/15 23:56:00 BASE 5.04 357 7.31 110 -0.7 100 -0.7 0 0 973.5 NA 0.0000 -SN BR 6000 230 0 0 0
2019/06/15 23:57:00 BASE 6.33 328 12.86 308 -0.6 100 -0.6 0 0 973.5 NA 0.0000 -SN BR 7000 300 0 0 0
2019/06/15 23:58:00 BASE 7.14 312 12.86 308 -0.4 100 -0.4 0 0 973.4 NA 0.0000 -SN BR 7000 0 0 0 2000
2019/06/15 23:59:00 BASE 5.85 325 12.86 308 -0.3 100 -0.3 0 0 973.5 NA 0.0000 -SN BR 8000 230 0 0 0